Time,TemperatureF,DewpointF,PressureIn,WindDirection,WindDirectionDegrees,WindSpeedMPH,WindSpeedGustMPH,Humidity,HourlyPrecipIn,Conditions,Clouds,dailyrainin,SoftwareType,DateUTC
2013-07-07 00:00:00,75.2,65.2,29.99,NNW,338,0.0,4.0,71,0.00,,---,0.00,VWS V14.01,2013-07-07 04:00:00,
2013-07-07 00:01:00,75.2,65.2,29.99,NNW,338,0.0,0.0,71,0.00,,---,0.00,VWS V14.01,2013-07-07 04:01:00,
2013-07-07 00:02:00,75.2,65.2,29.99,NNW,338,0.0,0.0,71,0.00,,---,0.00,VWS V14.01,2013-07-07 04:02:00,
2013-07-07 00:03:00,75.2,65.2,29.99,NNW,338,0.0,0.0,71,0.00,,---,0.00,VWS V14.01,2013-07-07 04:03:00,
2013-07-07 00:04:00,75.2,65.2,29.99,NNW,338,0.0,0.0,71,0.00,,---,0.00,VWS V14.01,2013-07-07 04:04:00,
2013-07-07 00:05:00,75.1,65.1,29.99,NNW,338,0.0,0.0,71,0.00,,---,0.00,VWS V14.01,2013-07-07 04:05:00,
2013-07-07 00:06:00,75.0,65.0,29.99,NNW,338,0.0,0.0,71,0.00,,---,0.00,VWS V14.01,2013-07-07 04:06:00,
2013-07-07 00:07:00,75.0,65.0,29.99,NNW,338,0.0,0.0,71,0.00,,---,0.00,VWS V14.01,2013-07-07 04:07:00,
2013-07-07 00:08:00,75.0,65.0,29.99,NNW,338,0.0,0.0,71,0.00,,---,0.00,VWS V14.01,2013-07-07 04:08:00,
2013-07-07 00:09:00,75.0,65.0,29.99,NNW,338,0.0,0.0,71,0.00,,---,0.00,VWS V14.01,2013-07-07 04:09:00,
2013-07-07 00:10:00,75.0,65.0,29.99,NNW,338,0.0,0.0,71,0.00,,---,0.00,VWS V14.01,2013-07-07 04:10:00,
2013-07-07 00:11:00,75.0,65.0,29.99,NNW,338,0.0,0.0,71,0.00,,---,0.00,VWS V14.01,2013-07-07 04:11:00,
2013-07-07 00:12:00,75.0,65.0,29.99,NNW,338,0.0,0.0,71,0.00,,---,0.00,VWS V14.01,2013-07-07 04:12:00,
2013-07-07 00:13:00,75.0,65.0,29.99,NNW,338,0.0,0.0,71,0.00,,---,0.00,VWS V14.01,2013-07-07 04:13:00,
2013-07-07 00:14:00,75.0,65.0,29.99,NNW,338,0.0,0.0,71,0.00,,---,0.00,VWS V14.01,2013-07-07 04:14:00,
2013-07-07 00:15:00,75.0,65.0,29.99,NNW,338,0.0,0.0,71,0.00,,---,0.00,VWS V14.01,2013-07-07 04:15:00,
2013-07-07 00:16:00,74.9,64.9,29.99,NNW,338,0.0,0.0,71,0.00,,---,0.00,VWS V14.01,2013-07-07 04:16:00,
2013-07-07 00:17:00,74.9,64.9,29.99,NNW,338,0.0,0.0,71,0.00,,---,0.00,VWS V14.01,2013-07-07 04:17:00,
2013-07-07 00:18:00,74.9,64.9,29.99,NNW,338,0.0,0.0,71,0.00,,---,0.00,VWS V14.01,2013-07-07 04:18:00,
2013-07-07 00:19:00,74.9,64.9,29.99,NNW,338,0.0,0.0,71,0.00,,---,0.00,VWS V14.01,2013-07-07 04:19:00,
2013-07-07 00:20:00,74.9,64.9,29.99,NNW,338,0.0,0.0,71,0.00,,---,0.00,VWS V14.01,2013-07-07 04:20:00,
2013-07-07 00:21:00,74.9,64.9,29.99,NNW,338,0.0,0.0,71,0.00,,---,0.00,VWS V14.01,2013-07-07 04:21:00,
2013-07-07 00:22:00,74.8,65.2,29.99,NNW,338,0.0,0.0,72,0.00,,---,0.00,VWS V14.01,2013-07-07 04:22:00,
2013-07-07 00:23:00,74.9,65.3,29.99,NNW,338,0.0,0.0,72,0.00,,---,0.00,VWS V14.01,2013-07-07 04:23:00,
2013-07-07 00:24:00,74.9,65.3,29.99,NNW,338,0.0,0.0,72,0.00,,---,0.00,VWS V14.01,2013-07-07 04:24:00,
2013-07-07 00:25:00,74.8,65.2,29.99,NNW,338,0.0,0.0,72,0.00,,---,0.00,VWS V14.01,2013-07-07 04:25:00,
2013-07-07 00:26:00,74.8,65.2,29.99,NNW,338,0.0,0.0,72,0.00,,---,0.00,VWS V14.01,2013-07-07 04:26:00,
2013-07-07 00:27:00,74.8,65.2,29.99,NNW,338,0.0,0.0,72,0.00,,---,0.00,VWS V14.01,2013-07-07 04:27:00,
2013-07-07 00:28:00,74.8,65.2,29.99,NNW,338,0.0,0.0,72,0.00,,---,0.00,VWS V14.01,2013-07-07 04:28:00,
2013-07-07 00:29:00,74.8,65.2,29.99,NNW,338,0.0,0.0,72,0.00,,---,0.00,VWS V14.01,2013-07-07 04:29:00,
2013-07-07 00:30:00,74.8,65.2,29.99,NNW,338,0.0,0.0,72,0.00,,---,0.00,VWS V14.01,2013-07-07 04:30:00,
2013-07-07 00:31:00,74.8,65.2,29.99,NNW,338,0.0,0.0,72,0.00,,---,0.00,VWS V14.01,2013-07-07 04:31:00,
2013-07-07 00:32:00,74.8,65.2,29.99,NNW,338,0.0,0.0,72,0.00,,---,0.00,VWS V14.01,2013-07-07 04:32:00,
2013-07-07 00:33:00,74.7,65.1,29.99,NNW,338,3.0,4.0,72,0.00,,---,0.00,VWS V14.01,2013-07-07 04:33:00,
2013-07-07 00:34:00,74.7,65.1,29.99,NNW,337,3.0,4.0,72,0.00,,---,0.00,VWS V14.01,2013-07-07 04:34:00,
2013-07-07 00:35:00,74.7,65.1,29.99,NNW,335,2.0,4.0,72,0.00,,---,0.00,VWS V14.01,2013-07-07 04:35:00,
2013-07-07 00:36:00,74.7,65.1,29.99,NNW,334,2.0,4.0,72,0.00,,---,0.00,VWS V14.01,2013-07-07 04:36:00,
2013-07-07 00:37:00,74.8,65.2,29.99,NNW,333,3.0,4.0,72,0.00,,---,0.00,VWS V14.01,2013-07-07 04:37:00,
2013-07-07 00:38:00,74.8,65.2,29.99,NNW,333,3.0,4.0,72,0.00,,---,0.00,VWS V14.01,2013-07-07 04:38:00,
2013-07-07 00:39:00,74.7,65.1,29.99,NNW,333,3.0,4.0,72,0.00,,---,0.00,VWS V14.01,2013-07-07 04:39:00,
2013-07-07 00:40:00,74.7,65.1,29.99,NNW,333,3.0,4.0,72,0.00,,---,0.00,VWS V14.01,2013-07-07 04:40:00,
2013-07-07 00:41:00,74.7,65.1,29.99,NNW,333,3.0,4.0,72,0.00,,---,0.00,VWS V14.01,2013-07-07 04:41:00,
2013-07-07 00:42:00,74.6,65.0,29.99,NNW,333,3.0,4.0,72,0.00,,---,0.00,VWS V14.01,2013-07-07 04:42:00,
2013-07-07 00:43:00,74.5,65.3,29.99,NNW,333,2.0,4.0,73,0.00,,---,0.00,VWS V14.01,2013-07-07 04:43:00,
2013-07-07 00:44:00,74.5,65.3,29.99,NNW,333,3.0,4.0,73,0.00,,---,0.00,VWS V14.01,2013-07-07 04:44:00,
2013-07-07 00:45:00,74.4,65.2,29.99,NNW,333,2.0,4.0,73,0.00,,---,0.00,VWS V14.01,2013-07-07 04:45:00,
2013-07-07 00:46:00,74.4,65.2,29.99,NNW,333,3.0,4.0,73,0.00,,---,0.00,VWS V14.01,2013-07-07 04:46:00,
2013-07-07 00:47:00,74.4,65.2,29.99,NNW,333,3.0,4.0,73,0.00,,---,0.00,VWS V14.01,2013-07-07 04:47:00,
2013-07-07 00:48:00,74.3,65.1,29.99,NNW,333,3.0,4.0,73,0.00,,---,0.00,VWS V14.01,2013-07-07 04:48:00,
2013-07-07 00:49:00,74.2,65.4,29.99,NNW,333,3.0,4.0,74,0.00,,---,0.00,VWS V14.01,2013-07-07 04:49:00,
2013-07-07 00:50:00,74.2,65.0,29.99,NNW,333,3.0,4.0,73,0.00,,---,0.00,VWS V14.01,2013-07-07 04:50:00,
2013-07-07 00:51:00,74.1,65.3,29.99,NNW,333,3.0,4.0,74,0.00,,---,0.00,VWS V14.01,2013-07-07 04:51:00,
2013-07-07 00:52:00,74.1,65.3,29.99,NNW,333,2.0,4.0,74,0.00,,---,0.00,VWS V14.01,2013-07-07 04:52:00,
2013-07-07 00:53:00,74.0,65.2,29.99,NNW,333,2.0,4.0,74,0.00,,---,0.00,VWS V14.01,2013-07-07 04:53:00,
2013-07-07 00:54:00,73.9,65.1,29.99,NNW,333,2.0,4.0,74,0.00,,---,0.00,VWS V14.01,2013-07-07 04:54:00,
2013-07-07 00:55:00,73.9,65.1,29.99,NNW,333,2.0,4.0,74,0.00,,---,0.00,VWS V14.01,2013-07-07 04:55:00,
2013-07-07 00:56:00,73.9,65.1,29.99,NNW,333,2.0,4.0,74,0.00,,---,0.00,VWS V14.01,2013-07-07 04:56:00,
2013-07-07 00:57:00,73.8,65.4,29.99,NNW,333,2.0,4.0,75,0.00,,---,0.00,VWS V14.01,2013-07-07 04:57:00,
2013-07-07 00:58:00,73.7,65.3,29.99,NNW,333,2.0,4.0,75,0.00,,---,0.00,VWS V14.01,2013-07-07 04:58:00,
2013-07-07 00:59:00,73.7,65.3,29.99,NNW,333,1.0,4.0,75,0.00,,---,0.00,VWS V14.01,2013-07-07 04:59:00,
2013-07-07 01:00:00,73.6,65.2,29.99,NNW,332,1.0,4.0,75,0.00,,---,0.00,VWS V14.01,2013-07-07 05:00:00,
2013-07-07 01:01:00,73.5,65.1,29.99,NNW,332,0.0,2.0,75,0.00,,---,0.00,VWS V14.01,2013-07-07 05:01:00,
2013-07-07 01:02:00,73.4,65.0,29.99,NNW,332,0.0,2.0,75,0.00,,---,0.00,VWS V14.01,2013-07-07 05:02:00,
2013-07-07 01:03:00,73.3,65.3,29.99,NNW,332,1.0,3.0,76,0.00,,---,0.00,VWS V14.01,2013-07-07 05:03:00,
2013-07-07 01:04:00,73.2,65.2,29.99,NW,323,3.0,5.0,76,0.00,,---,0.00,VWS V14.01,2013-07-07 05:04:00,
2013-07-07 01:05:00,73.1,65.1,29.99,WNW,298,3.0,5.0,76,0.00,,---,0.00,VWS V14.01,2013-07-07 05:05:00,
2013-07-07 01:06:00,73.1,65.1,29.99,WNW,298,2.0,5.0,76,0.00,,---,0.00,VWS V14.01,2013-07-07 05:06:00,
2013-07-07 01:07:00,73.0,65.0,29.99,WNW,298,3.0,5.0,76,0.00,,---,0.00,VWS V14.01,2013-07-07 05:07:00,
2013-07-07 01:08:00,73.0,65.0,29.99,WNW,298,3.0,5.0,76,0.00,,---,0.00,VWS V14.01,2013-07-07 05:08:00,
2013-07-07 01:09:00,73.0,65.0,29.99,WNW,298,3.0,5.0,76,0.00,,---,0.00,VWS V14.01,2013-07-07 05:09:00,
2013-07-07 01:10:00,72.9,65.3,29.99,WNW,297,3.0,5.0,77,0.00,,---,0.00,VWS V14.01,2013-07-07 05:10:00,
2013-07-07 01:11:00,72.9,65.3,29.99,WNW,297,2.0,5.0,77,0.00,,---,0.00,VWS V14.01,2013-07-07 05:11:00,
2013-07-07 01:12:00,72.9,65.3,29.99,WNW,297,4.0,5.0,77,0.00,,---,0.00,VWS V14.01,2013-07-07 05:12:00,
2013-07-07 01:13:00,72.9,65.3,29.99,WNW,297,2.0,5.0,77,0.00,,---,0.00,VWS V14.01,2013-07-07 05:13:00,
2013-07-07 01:14:00,72.9,65.3,29.99,WNW,297,2.0,5.0,77,0.00,,---,0.00,VWS V14.01,2013-07-07 05:14:00,
2013-07-07 01:15:00,73.0,65.4,29.99,WNW,297,2.0,5.0,77,0.00,,---,0.00,VWS V14.01,2013-07-07 05:15:00,
2013-07-07 01:16:00,73.0,65.4,29.99,WNW,297,3.0,5.0,77,0.00,,---,0.00,VWS V14.01,2013-07-07 05:16:00,
2013-07-07 01:17:00,73.1,65.5,29.99,WNW,297,2.0,5.0,77,0.00,,---,0.00,VWS V14.01,2013-07-07 05:17:00,
2013-07-07 01:18:00,73.1,65.5,29.99,WNW,297,2.0,5.0,77,0.00,,---,0.00,VWS V14.01,2013-07-07 05:18:00,
2013-07-07 01:19:00,73.2,65.6,29.99,WNW,297,3.0,5.0,77,0.00,,---,0.00,VWS V14.01,2013-07-07 05:19:00,
2013-07-07 01:20:00,73.3,65.7,29.99,WNW,297,4.0,5.0,77,0.00,,---,0.00,VWS V14.01,2013-07-07 05:20:00,
2013-07-07 01:21:00,73.3,65.3,29.99,WNW,297,2.0,5.0,76,0.00,,---,0.00,VWS V14.01,2013-07-07 05:21:00,
2013-07-07 01:22:00,73.3,65.3,29.99,WNW,297,3.0,5.0,76,0.00,,---,0.00,VWS V14.01,2013-07-07 05:22:00,
2013-07-07 01:23:00,73.4,65.4,29.99,WNW,297,3.0,5.0,76,0.00,,---,0.00,VWS V14.01,2013-07-07 05:23:00,
2013-07-07 01:24:00,73.4,65.4,29.99,WNW,297,1.0,5.0,76,0.00,,---,0.00,VWS V14.01,2013-07-07 05:24:00,
2013-07-07 01:25:00,73.5,65.5,29.99,WNW,297,0.0,5.0,76,0.00,,---,0.00,VWS V14.01,2013-07-07 05:25:00,
2013-07-07 01:26:00,73.5,65.5,29.99,WNW,297,0.0,5.0,76,0.00,,---,0.00,VWS V14.01,2013-07-07 05:26:00,
2013-07-07 01:27:00,73.5,65.5,29.99,WNW,297,0.0,5.0,76,0.00,,---,0.00,VWS V14.01,2013-07-07 05:27:00,
2013-07-07 01:28:00,73.5,65.5,29.99,WNW,297,0.0,5.0,76,0.00,,---,0.00,VWS V14.01,2013-07-07 05:28:00,
2013-07-07 01:29:00,73.5,65.5,29.99,WNW,297,0.0,5.0,76,0.00,,---,0.00,VWS V14.01,2013-07-07 05:29:00,
2013-07-07 01:30:00,73.5,65.5,29.99,WNW,297,0.0,5.0,76,0.00,,---,0.00,VWS V14.01,2013-07-07 05:30:00,
2013-07-07 01:31:00,73.6,65.6,29.99,WNW,297,0.0,0.0,76,0.00,,---,0.00,VWS V14.01,2013-07-07 05:31:00,
2013-07-07 01:32:00,73.5,65.5,29.99,WNW,297,0.0,0.0,76,0.00,,---,0.00,VWS V14.01,2013-07-07 05:32:00,
2013-07-07 01:33:00,73.5,65.5,29.98,WNW,297,0.0,0.0,76,0.00,,---,0.00,VWS V14.01,2013-07-07 05:33:00,
2013-07-07 01:34:00,73.5,65.5,29.98,WNW,297,0.0,0.0,76,0.00,,---,0.00,VWS V14.01,2013-07-07 05:34:00,
2013-07-07 01:35:00,73.6,65.6,29.99,WNW,297,0.0,0.0,76,0.00,,---,0.00,VWS V14.01,2013-07-07 05:35:00,
2013-07-07 01:36:00,73.6,65.6,29.99,WNW,297,0.0,0.0,76,0.00,,---,0.00,VWS V14.01,2013-07-07 05:36:00,
2013-07-07 01:37:00,73.6,65.6,29.98,WNW,297,0.0,0.0,76,0.00,,---,0.00,VWS V14.01,2013-07-07 05:37:00,
2013-07-07 01:38:00,73.6,65.6,29.99,WNW,297,0.0,0.0,76,0.00,,---,0.00,VWS V14.01,2013-07-07 05:38:00,
2013-07-07 01:39:00,73.7,65.7,29.99,WNW,297,0.0,0.0,76,0.00,,---,0.00,VWS V14.01,2013-07-07 05:39:00,
2013-07-07 01:40:00,73.7,65.7,29.98,WNW,297,0.0,0.0,76,0.00,,---,0.00,VWS V14.01,2013-07-07 05:40:00,
2013-07-07 01:41:00,73.7,65.7,29.99,WNW,297,0.0,0.0,76,0.00,,---,0.00,VWS V14.01,2013-07-07 05:41:00,
2013-07-07 01:42:00,73.7,65.7,29.99,WNW,297,0.0,0.0,76,0.00,,---,0.00,VWS V14.01,2013-07-07 05:42:00,
2013-07-07 01:43:00,73.8,65.8,29.99,WNW,297,0.0,0.0,76,0.00,,---,0.00,VWS V14.01,2013-07-07 05:43:00,
2013-07-07 01:44:00,73.8,65.8,29.99,WNW,297,0.0,0.0,76,0.00,,---,0.00,VWS V14.01,2013-07-07 05:44:00,
2013-07-07 01:45:00,73.8,65.8,29.99,WNW,297,0.0,0.0,76,0.00,,---,0.00,VWS V14.01,2013-07-07 05:45:00,
2013-07-07 01:46:00,73.8,65.8,29.99,WNW,297,0.0,0.0,76,0.00,,---,0.00,VWS V14.01,2013-07-07 05:46:00,
2013-07-07 01:47:00,73.9,65.9,29.99,WNW,297,0.0,0.0,76,0.00,,---,0.00,VWS V14.01,2013-07-07 05:47:00,
2013-07-07 01:48:00,73.9,65.9,29.99,WNW,297,0.0,0.0,76,0.00,,---,0.00,VWS V14.01,2013-07-07 05:48:00,
2013-07-07 01:49:00,73.9,65.9,29.99,WNW,297,0.0,0.0,76,0.00,,---,0.00,VWS V14.01,2013-07-07 05:49:00,
2013-07-07 01:50:00,73.9,65.9,29.99,WNW,297,0.0,0.0,76,0.00,,---,0.00,VWS V14.01,2013-07-07 05:50:00,
2013-07-07 01:51:00,73.9,65.9,29.99,WNW,297,0.0,0.0,76,0.00,,---,0.00,VWS V14.01,2013-07-07 05:51:00,
2013-07-07 01:52:00,73.9,65.9,29.99,WNW,297,0.0,0.0,76,0.00,,---,0.00,VWS V14.01,2013-07-07 05:52:00,
2013-07-07 01:53:00,73.9,65.9,29.99,WNW,297,0.0,0.0,76,0.00,,---,0.00,VWS V14.01,2013-07-07 05:53:00,
2013-07-07 01:54:00,73.9,65.9,29.99,WNW,297,0.0,0.0,76,0.00,,---,0.00,VWS V14.01,2013-07-07 05:54:00,
2013-07-07 01:55:00,73.8,65.8,29.99,WNW,297,0.0,0.0,76,0.00,,---,0.00,VWS V14.01,2013-07-07 05:55:00,
2013-07-07 01:56:00,73.8,65.8,29.99,WNW,297,0.0,0.0,76,0.00,,---,0.00,VWS V14.01,2013-07-07 05:56:00,
2013-07-07 01:57:00,73.8,65.8,29.99,WNW,297,0.0,0.0,76,0.00,,---,0.00,VWS V14.01,2013-07-07 05:57:00,
2013-07-07 01:58:00,73.8,65.8,29.99,WNW,297,0.0,0.0,76,0.00,,---,0.00,VWS V14.01,2013-07-07 05:58:00,
2013-07-07 01:59:00,73.8,65.8,29.99,WNW,297,0.0,0.0,76,0.00,,---,0.00,VWS V14.01,2013-07-07 05:59:00,
2013-07-07 02:00:00,73.8,65.8,29.99,WNW,297,0.0,0.0,76,0.00,,---,0.00,VWS V14.01,2013-07-07 06:00:00,
2013-07-07 02:01:00,73.8,65.8,29.99,WNW,297,0.0,0.0,76,0.00,,---,0.00,VWS V14.01,2013-07-07 06:01:00,
2013-07-07 02:02:00,73.7,65.7,29.99,WNW,297,0.0,0.0,76,0.00,,---,0.00,VWS V14.01,2013-07-07 06:02:00,
2013-07-07 02:03:00,73.7,65.7,29.99,WNW,297,0.0,0.0,76,0.00,,---,0.00,VWS V14.01,2013-07-07 06:03:00,
2013-07-07 02:04:00,73.7,65.7,29.99,WNW,297,0.0,0.0,76,0.00,,---,0.00,VWS V14.01,2013-07-07 06:04:00,
2013-07-07 02:05:00,73.7,65.7,29.99,WNW,297,0.0,0.0,76,0.00,,---,0.00,VWS V14.01,2013-07-07 06:05:00,
2013-07-07 02:06:00,73.8,65.8,29.99,WNW,297,0.0,0.0,76,0.00,,---,0.00,VWS V14.01,2013-07-07 06:06:00,
2013-07-07 02:07:00,73.8,65.8,29.99,WNW,297,0.0,0.0,76,0.00,,---,0.00,VWS V14.01,2013-07-07 06:07:00,
2013-07-07 02:08:00,73.8,65.8,29.99,WNW,297,0.0,0.0,76,0.00,,---,0.00,VWS V14.01,2013-07-07 06:08:00,
2013-07-07 02:09:00,73.8,66.2,29.99,WNW,297,0.0,0.0,77,0.00,,---,0.00,VWS V14.01,2013-07-07 06:09:00,
2013-07-07 02:10:00,73.8,65.8,29.99,WNW,297,0.0,0.0,76,0.00,,---,0.00,VWS V14.01,2013-07-07 06:10:00,
2013-07-07 02:11:00,73.8,65.8,29.99,WNW,297,0.0,0.0,76,0.00,,---,0.00,VWS V14.01,2013-07-07 06:11:00,
2013-07-07 02:12:00,73.8,65.8,29.99,WNW,297,0.0,0.0,76,0.00,,---,0.00,VWS V14.01,2013-07-07 06:12:00,
2013-07-07 02:13:00,73.8,65.8,29.99,WNW,297,0.0,0.0,76,0.00,,---,0.00,VWS V14.01,2013-07-07 06:13:00,
2013-07-07 02:14:00,73.8,65.8,29.99,WNW,297,0.0,0.0,76,0.00,,---,0.00,VWS V14.01,2013-07-07 06:14:00,
2013-07-07 02:15:00,73.8,66.2,29.99,WNW,297,0.0,0.0,77,0.00,,---,0.00,VWS V14.01,2013-07-07 06:15:00,
2013-07-07 02:16:00,73.8,66.2,29.99,WNW,297,0.0,0.0,77,0.00,,---,0.00,VWS V14.01,2013-07-07 06:16:00,
2013-07-07 02:17:00,73.8,66.2,29.99,WNW,297,0.0,0.0,77,0.00,,---,0.00,VWS V14.01,2013-07-07 06:17:00,
2013-07-07 02:18:00,73.7,66.1,29.99,WNW,297,0.0,0.0,77,0.00,,---,0.00,VWS V14.01,2013-07-07 06:18:00,
2013-07-07 02:19:00,73.8,66.2,29.99,WNW,297,0.0,0.0,77,0.00,,---,0.00,VWS V14.01,2013-07-07 06:19:00,
2013-07-07 02:20:00,73.7,66.1,29.99,WNW,297,0.0,0.0,77,0.00,,---,0.00,VWS V14.01,2013-07-07 06:20:00,
2013-07-07 02:21:00,73.7,66.1,29.99,WNW,297,0.0,0.0,77,0.00,,---,0.00,VWS V14.01,2013-07-07 06:21:00,
2013-07-07 02:22:00,73.7,66.1,29.99,WNW,297,0.0,0.0,77,0.00,,---,0.00,VWS V14.01,2013-07-07 06:22:00,
2013-07-07 02:23:00,73.7,66.1,29.99,WNW,297,0.0,0.0,77,0.00,,---,0.00,VWS V14.01,2013-07-07 06:23:00,
2013-07-07 02:24:00,73.7,66.1,29.99,WNW,297,0.0,0.0,77,0.00,,---,0.00,VWS V14.01,2013-07-07 06:24:00,
2013-07-07 02:25:00,73.8,66.2,29.99,WNW,297,0.0,0.0,77,0.00,,---,0.00,VWS V14.01,2013-07-07 06:25:00,
2013-07-07 02:26:00,73.7,66.1,29.99,WNW,297,0.0,0.0,77,0.00,,---,0.00,VWS V14.01,2013-07-07 06:26:00,
2013-07-07 02:27:00,73.7,66.1,29.99,WNW,297,0.0,0.0,77,0.00,,---,0.00,VWS V14.01,2013-07-07 06:27:00,
2013-07-07 02:28:00,73.7,66.1,29.99,WNW,297,0.0,0.0,77,0.00,,---,0.00,VWS V14.01,2013-07-07 06:28:00,
2013-07-07 02:29:00,73.7,66.4,29.99,WNW,297,0.0,0.0,78,0.00,,---,0.00,VWS V14.01,2013-07-07 06:29:00,
2013-07-07 02:30:00,73.6,66.3,29.99,WNW,297,0.0,0.0,78,0.00,,---,0.00,VWS V14.01,2013-07-07 06:30:00,
2013-07-07 02:31:00,73.5,66.2,29.99,WNW,297,0.0,0.0,78,0.00,,---,0.00,VWS V14.01,2013-07-07 06:31:00,
2013-07-07 02:32:00,73.5,66.2,29.99,WNW,297,0.0,0.0,78,0.00,,---,0.00,VWS V14.01,2013-07-07 06:32:00,
2013-07-07 02:33:00,73.4,66.1,29.99,WNW,297,0.0,0.0,78,0.00,,---,0.00,VWS V14.01,2013-07-07 06:33:00,
2013-07-07 02:34:00,73.4,66.1,29.99,WNW,297,0.0,0.0,78,0.00,,---,0.00,VWS V14.01,2013-07-07 06:34:00,
2013-07-07 02:35:00,73.3,66.0,29.99,WNW,297,0.0,0.0,78,0.00,,---,0.00,VWS V14.01,2013-07-07 06:35:00,
2013-07-07 02:36:00,73.3,66.0,29.99,WNW,297,0.0,0.0,78,0.00,,---,0.00,VWS V14.01,2013-07-07 06:36:00,
2013-07-07 02:37:00,73.2,65.9,29.99,WNW,297,0.0,0.0,78,0.00,,---,0.00,VWS V14.01,2013-07-07 06:37:00,
2013-07-07 02:38:00,73.1,65.8,29.99,WNW,297,0.0,0.0,78,0.00,,---,0.00,VWS V14.01,2013-07-07 06:38:00,
2013-07-07 02:39:00,73.0,65.7,29.99,WNW,297,0.0,0.0,78,0.00,,---,0.00,VWS V14.01,2013-07-07 06:39:00,
2013-07-07 02:40:00,73.0,66.1,29.99,WNW,297,0.0,0.0,79,0.00,,---,0.00,VWS V14.01,2013-07-07 06:40:00,
2013-07-07 02:41:00,72.9,66.0,29.99,WNW,297,0.0,0.0,79,0.00,,---,0.00,VWS V14.01,2013-07-07 06:41:00,
2013-07-07 02:42:00,72.8,65.9,29.99,West,265,0.0,0.0,79,0.00,,---,0.00,VWS V14.01,2013-07-07 06:42:00,
2013-07-07 02:43:00,72.8,66.3,29.99,West,265,0.0,0.0,80,0.00,,---,0.00,VWS V14.01,2013-07-07 06:43:00,
2013-07-07 02:44:00,72.8,66.3,29.99,WSW,248,0.0,0.0,80,0.00,,---,0.00,VWS V14.01,2013-07-07 06:44:00,
2013-07-07 02:45:00,72.8,66.3,29.99,WSW,248,0.0,0.0,80,0.00,,---,0.00,VWS V14.01,2013-07-07 06:45:00,
2013-07-07 02:46:00,72.9,66.4,29.99,WSW,248,0.0,0.0,80,0.00,,---,0.00,VWS V14.01,2013-07-07 06:46:00,
2013-07-07 02:47:00,72.9,66.4,29.99,WSW,248,0.0,0.0,80,0.00,,---,0.00,VWS V14.01,2013-07-07 06:47:00,
2013-07-07 02:48:00,72.9,66.0,29.99,WSW,248,0.0,0.0,79,0.00,,---,0.00,VWS V14.01,2013-07-07 06:48:00,
2013-07-07 02:49:00,72.9,66.0,29.99,WSW,248,0.0,0.0,79,0.00,,---,0.00,VWS V14.01,2013-07-07 06:49:00,
2013-07-07 02:50:00,73.0,66.5,29.99,WSW,248,0.0,0.0,80,0.00,,---,0.00,VWS V14.01,2013-07-07 06:50:00,
2013-07-07 02:51:00,73.0,66.1,29.99,WSW,248,0.0,0.0,79,0.00,,---,0.00,VWS V14.01,2013-07-07 06:51:00,
2013-07-07 02:52:00,73.1,66.2,29.99,WSW,248,0.0,0.0,79,0.00,,---,0.00,VWS V14.01,2013-07-07 06:52:00,
2013-07-07 02:53:00,73.1,66.2,29.99,WSW,248,0.0,0.0,79,0.00,,---,0.00,VWS V14.01,2013-07-07 06:53:00,
2013-07-07 02:54:00,73.1,66.2,29.99,WSW,248,0.0,0.0,79,0.00,,---,0.00,VWS V14.01,2013-07-07 06:54:00,
2013-07-07 02:55:00,73.1,66.2,29.99,WSW,248,0.0,0.0,79,0.00,,---,0.00,VWS V14.01,2013-07-07 06:55:00,
2013-07-07 02:56:00,73.2,66.3,29.99,WSW,248,0.0,0.0,79,0.00,,---,0.00,VWS V14.01,2013-07-07 06:56:00,
2013-07-07 02:57:00,73.2,66.3,29.99,WSW,248,0.0,0.0,79,0.00,,---,0.00,VWS V14.01,2013-07-07 06:57:00,
2013-07-07 02:58:00,73.3,66.4,29.99,WSW,248,0.0,0.0,79,0.00,,---,0.00,VWS V14.01,2013-07-07 06:58:00,
2013-07-07 02:59:00,73.3,66.4,29.99,WSW,248,5.0,6.0,79,0.00,,---,0.00,VWS V14.01,2013-07-07 06:59:00,
2013-07-07 03:00:00,73.3,66.4,29.99,WSW,248,5.0,6.0,79,0.00,,---,0.00,VWS V14.01,2013-07-07 07:00:00,
2013-07-07 03:01:00,73.3,66.4,29.99,WSW,248,4.0,5.0,79,0.00,,---,0.00,VWS V14.01,2013-07-07 07:01:00,
2013-07-07 03:02:00,73.2,66.3,29.99,WSW,248,4.0,5.0,79,0.00,,---,0.00,VWS V14.01,2013-07-07 07:02:00,
2013-07-07 03:03:00,73.2,66.3,29.99,WSW,248,4.0,5.0,79,0.00,,---,0.00,VWS V14.01,2013-07-07 07:03:00,
2013-07-07 03:04:00,73.2,66.3,29.99,WSW,248,4.0,6.0,79,0.00,,---,0.00,VWS V14.01,2013-07-07 07:04:00,
2013-07-07 03:05:00,73.1,66.2,29.99,WSW,249,2.0,6.0,79,0.00,,---,0.00,VWS V14.01,2013-07-07 07:05:00,
2013-07-07 03:06:00,73.0,66.1,29.99,WSW,250,4.0,6.0,79,0.00,,---,0.00,VWS V14.01,2013-07-07 07:06:00,
2013-07-07 03:07:00,72.9,66.0,29.99,WSW,252,6.0,6.0,79,0.00,,---,0.00,VWS V14.01,2013-07-07 07:07:00,
2013-07-07 03:08:00,72.8,66.3,29.99,WSW,254,4.0,6.0,80,0.00,,---,0.00,VWS V14.01,2013-07-07 07:08:00,
2013-07-07 03:09:00,72.7,66.2,29.99,WSW,254,4.0,6.0,80,0.00,,---,0.00,VWS V14.01,2013-07-07 07:09:00,
2013-07-07 03:10:00,72.6,66.1,29.99,WSW,257,5.0,6.0,80,0.00,,---,0.00,VWS V14.01,2013-07-07 07:10:00,
2013-07-07 03:11:00,72.5,66.0,30.00,WSW,257,4.0,6.0,80,0.00,,---,0.00,VWS V14.01,2013-07-07 07:11:00,
2013-07-07 03:12:00,72.5,66.0,29.99,WSW,258,4.0,6.0,80,0.00,,---,0.00,VWS V14.01,2013-07-07 07:12:00,
2013-07-07 03:13:00,72.5,66.0,29.99,WSW,258,4.0,6.0,80,0.00,,---,0.00,VWS V14.01,2013-07-07 07:13:00,
2013-07-07 03:14:00,72.6,66.1,30.00,WSW,258,4.0,6.0,80,0.00,,---,0.00,VWS V14.01,2013-07-07 07:14:00,
2013-07-07 03:15:00,72.6,66.1,30.00,WSW,258,5.0,6.0,80,0.00,,---,0.00,VWS V14.01,2013-07-07 07:15:00,
2013-07-07 03:16:00,72.6,66.1,29.99,WSW,258,4.0,6.0,80,0.00,,---,0.00,VWS V14.01,2013-07-07 07:16:00,
2013-07-07 03:17:00,72.6,66.1,30.00,WSW,258,5.0,6.0,80,0.00,,---,0.00,VWS V14.01,2013-07-07 07:17:00,
2013-07-07 03:18:00,72.7,66.2,30.00,West,259,5.0,6.0,80,0.00,,---,0.00,VWS V14.01,2013-07-07 07:18:00,
2013-07-07 03:19:00,72.7,66.2,30.00,West,261,6.0,6.0,80,0.00,,---,0.00,VWS V14.01,2013-07-07 07:19:00,
2013-07-07 03:20:00,72.7,66.2,30.00,West,261,4.0,6.0,80,0.00,,---,0.00,VWS V14.01,2013-07-07 07:20:00,
2013-07-07 03:21:00,72.7,66.2,30.00,West,261,4.0,6.0,80,0.00,,---,0.00,VWS V14.01,2013-07-07 07:21:00,
2013-07-07 03:22:00,72.7,66.2,29.99,West,261,4.0,6.0,80,0.00,,---,0.00,VWS V14.01,2013-07-07 07:22:00,
2013-07-07 03:23:00,72.8,66.3,29.99,West,261,0.0,6.0,80,0.00,,---,0.00,VWS V14.01,2013-07-07 07:23:00,
2013-07-07 03:24:00,72.8,66.3,29.99,West,261,0.0,6.0,80,0.00,,---,0.00,VWS V14.01,2013-07-07 07:24:00,
2013-07-07 03:25:00,72.9,66.4,29.99,West,261,0.0,6.0,80,0.00,,---,0.00,VWS V14.01,2013-07-07 07:25:00,
2013-07-07 03:26:00,72.9,66.4,29.99,West,261,3.0,6.0,80,0.00,,---,0.00,VWS V14.01,2013-07-07 07:26:00,
2013-07-07 03:27:00,73.0,66.5,29.99,West,261,4.0,6.0,80,0.00,,---,0.00,VWS V14.01,2013-07-07 07:27:00,
2013-07-07 03:28:00,73.1,66.6,29.99,West,261,3.0,6.0,80,0.00,,---,0.00,VWS V14.01,2013-07-07 07:28:00,
2013-07-07 03:29:00,73.1,66.2,29.99,West,261,4.0,6.0,79,0.00,,---,0.00,VWS V14.01,2013-07-07 07:29:00,
2013-07-07 03:30:00,73.3,66.4,29.99,West,261,3.0,6.0,79,0.00,,---,0.00,VWS V14.01,2013-07-07 07:30:00,
2013-07-07 03:31:00,73.3,66.4,29.99,West,261,3.0,4.0,79,0.00,,---,0.00,VWS V14.01,2013-07-07 07:31:00,
2013-07-07 03:32:00,73.3,66.4,29.99,West,261,3.0,4.0,79,0.00,,---,0.00,VWS V14.01,2013-07-07 07:32:00,
2013-07-07 03:33:00,73.4,66.5,29.99,West,261,1.0,4.0,79,0.00,,---,0.00,VWS V14.01,2013-07-07 07:33:00,
2013-07-07 03:34:00,73.3,66.4,29.99,West,261,4.0,4.0,79,0.00,,---,0.00,VWS V14.01,2013-07-07 07:34:00,
2013-07-07 03:35:00,73.3,66.4,29.99,West,261,4.0,5.0,79,0.00,,---,0.00,VWS V14.01,2013-07-07 07:35:00,
2013-07-07 03:36:00,73.3,66.4,30.00,West,261,3.0,5.0,79,0.00,,---,0.00,VWS V14.01,2013-07-07 07:36:00,
2013-07-07 03:37:00,73.3,66.4,30.00,West,261,3.0,5.0,79,0.00,,---,0.00,VWS V14.01,2013-07-07 07:37:00,
2013-07-07 03:38:00,73.2,66.7,30.00,West,261,5.0,6.0,80,0.00,,---,0.00,VWS V14.01,2013-07-07 07:38:00,
2013-07-07 03:39:00,73.1,66.6,30.00,West,261,6.0,6.0,80,0.00,,---,0.00,VWS V14.01,2013-07-07 07:39:00,
2013-07-07 03:40:00,73.0,66.5,30.00,West,262,5.0,6.0,80,0.00,,---,0.00,VWS V14.01,2013-07-07 07:40:00,
2013-07-07 03:41:00,72.9,66.4,30.00,West,262,5.0,6.0,80,0.00,,---,0.00,VWS V14.01,2013-07-07 07:41:00,
2013-07-07 03:42:00,72.9,66.4,30.00,West,262,5.0,6.0,80,0.00,,---,0.00,VWS V14.01,2013-07-07 07:42:00,
2013-07-07 03:43:00,73.0,66.5,30.00,West,262,5.0,6.0,80,0.00,,---,0.00,VWS V14.01,2013-07-07 07:43:00,
2013-07-07 03:44:00,73.0,66.5,30.00,West,262,4.0,6.0,80,0.00,,---,0.00,VWS V14.01,2013-07-07 07:44:00,
2013-07-07 03:45:00,73.1,66.6,30.00,West,262,3.0,6.0,80,0.00,,---,0.00,VWS V14.01,2013-07-07 07:45:00,
2013-07-07 03:46:00,73.1,66.6,30.00,West,262,2.0,6.0,80,0.00,,---,0.00,VWS V14.01,2013-07-07 07:46:00,
2013-07-07 03:47:00,73.2,66.7,30.00,West,262,2.0,6.0,80,0.00,,---,0.00,VWS V14.01,2013-07-07 07:47:00,
2013-07-07 03:48:00,73.3,66.8,30.00,West,262,0.0,6.0,80,0.00,,---,0.00,VWS V14.01,2013-07-07 07:48:00,
2013-07-07 03:49:00,73.3,66.8,30.00,West,262,0.0,6.0,80,0.00,,---,0.00,VWS V14.01,2013-07-07 07:49:00,
2013-07-07 03:50:00,73.3,66.8,30.00,West,262,0.0,6.0,80,0.00,,---,0.00,VWS V14.01,2013-07-07 07:50:00,
2013-07-07 03:51:00,73.3,66.8,30.00,West,262,0.0,6.0,80,0.00,,---,0.00,VWS V14.01,2013-07-07 07:51:00,
2013-07-07 03:52:00,73.4,66.5,30.00,West,262,0.0,6.0,79,0.00,,---,0.00,VWS V14.01,2013-07-07 07:52:00,
2013-07-07 03:53:00,73.4,66.5,30.00,West,262,0.0,6.0,79,0.00,,---,0.00,VWS V14.01,2013-07-07 07:53:00,
2013-07-07 03:54:00,73.5,66.6,30.00,West,262,0.0,6.0,79,0.00,,---,0.00,VWS V14.01,2013-07-07 07:54:00,
2013-07-07 03:55:00,73.5,66.6,30.00,West,262,0.0,6.0,79,0.00,,---,0.00,VWS V14.01,2013-07-07 07:55:00,
2013-07-07 03:56:00,73.5,66.6,30.00,West,262,0.0,6.0,79,0.00,,---,0.00,VWS V14.01,2013-07-07 07:56:00,
2013-07-07 03:57:00,73.6,66.7,30.00,West,262,0.0,6.0,79,0.00,,---,0.00,VWS V14.01,2013-07-07 07:57:00,
2013-07-07 03:58:00,73.6,66.7,30.00,West,262,0.0,6.0,79,0.00,,---,0.00,VWS V14.01,2013-07-07 07:58:00,
2013-07-07 03:59:00,73.7,66.8,30.00,West,262,0.0,6.0,79,0.00,,---,0.00,VWS V14.01,2013-07-07 07:59:00,
2013-07-07 04:00:00,73.7,66.8,30.00,West,262,0.0,6.0,79,0.00,,---,0.00,VWS V14.01,2013-07-07 08:00:00,
2013-07-07 04:01:00,73.8,66.9,30.00,West,262,0.0,0.0,79,0.00,,---,0.00,VWS V14.01,2013-07-07 08:01:00,
2013-07-07 04:02:00,73.9,67.0,30.00,West,262,0.0,0.0,79,0.00,,---,0.00,VWS V14.01,2013-07-07 08:02:00,
2013-07-07 04:03:00,74.0,66.7,30.00,West,262,0.0,0.0,78,0.00,,---,0.00,VWS V14.01,2013-07-07 08:03:00,
2013-07-07 04:04:00,74.1,66.8,30.00,West,262,0.0,0.0,78,0.00,,---,0.00,VWS V14.01,2013-07-07 08:04:00,
2013-07-07 04:05:00,74.2,66.9,30.00,West,262,0.0,0.0,78,0.00,,---,0.00,VWS V14.01,2013-07-07 08:05:00,
2013-07-07 04:06:00,74.2,66.9,30.00,West,262,0.0,0.0,78,0.00,,---,0.00,VWS V14.01,2013-07-07 08:06:00,
2013-07-07 04:07:00,74.2,66.9,30.00,West,262,0.0,0.0,78,0.00,,---,0.00,VWS V14.01,2013-07-07 08:07:00,
2013-07-07 04:08:00,74.3,66.6,30.00,West,262,0.0,0.0,77,0.00,,---,0.00,VWS V14.01,2013-07-07 08:08:00,
2013-07-07 04:09:00,74.3,66.6,30.00,West,262,0.0,0.0,77,0.00,,---,0.00,VWS V14.01,2013-07-07 08:09:00,
2013-07-07 04:10:00,74.3,66.6,30.00,West,262,0.0,0.0,77,0.00,,---,0.00,VWS V14.01,2013-07-07 08:10:00,
2013-07-07 04:11:00,74.4,66.7,30.00,West,262,0.0,0.0,77,0.00,,---,0.00,VWS V14.01,2013-07-07 08:11:00,
2013-07-07 04:12:00,74.4,66.7,30.00,West,262,0.0,0.0,77,0.00,,---,0.00,VWS V14.01,2013-07-07 08:12:00,
2013-07-07 04:13:00,74.4,66.7,30.00,West,262,0.0,0.0,77,0.00,,---,0.00,VWS V14.01,2013-07-07 08:13:00,
2013-07-07 04:14:00,74.5,66.8,30.00,West,262,0.0,0.0,77,0.00,,---,0.00,VWS V14.01,2013-07-07 08:14:00,
2013-07-07 04:15:00,74.6,66.9,30.00,West,262,0.0,0.0,77,0.00,,---,0.00,VWS V14.01,2013-07-07 08:15:00,
2013-07-07 04:16:00,74.6,66.9,30.00,West,262,0.0,0.0,77,0.00,,---,0.00,VWS V14.01,2013-07-07 08:16:00,
2013-07-07 04:17:00,74.7,66.6,30.00,West,262,0.0,0.0,76,0.00,,---,0.00,VWS V14.01,2013-07-07 08:17:00,
2013-07-07 04:18:00,74.8,66.7,30.00,West,262,0.0,1.0,76,0.00,,---,0.00,VWS V14.01,2013-07-07 08:18:00,
2013-07-07 04:19:00,74.9,66.8,30.00,West,262,0.0,1.0,76,0.00,,---,0.00,VWS V14.01,2013-07-07 08:19:00,
2013-07-07 04:20:00,74.9,66.4,30.00,West,262,0.0,1.0,75,0.00,,---,0.00,VWS V14.01,2013-07-07 08:20:00,
2013-07-07 04:21:00,75.1,66.6,30.00,West,262,0.0,1.0,75,0.00,,---,0.00,VWS V14.01,2013-07-07 08:21:00,
2013-07-07 04:22:00,75.1,66.6,30.00,West,262,0.0,1.0,75,0.00,,---,0.00,VWS V14.01,2013-07-07 08:22:00,
2013-07-07 04:23:00,75.2,66.7,30.00,West,262,0.0,1.0,75,0.00,,---,0.00,VWS V14.01,2013-07-07 08:23:00,
2013-07-07 04:24:00,75.2,66.7,30.00,West,262,0.0,1.0,75,0.00,,---,0.00,VWS V14.01,2013-07-07 08:24:00,
2013-07-07 04:25:00,75.3,66.8,30.00,West,262,0.0,1.0,75,0.00,,---,0.00,VWS V14.01,2013-07-07 08:25:00,
2013-07-07 04:26:00,75.3,66.8,30.00,West,262,0.0,1.0,75,0.00,,---,0.00,VWS V14.01,2013-07-07 08:26:00,
2013-07-07 04:27:00,75.3,66.8,30.00,West,262,0.0,1.0,75,0.00,,---,0.00,VWS V14.01,2013-07-07 08:27:00,
2013-07-07 04:28:00,75.4,66.9,30.00,West,262,0.0,1.0,75,0.00,,---,0.00,VWS V14.01,2013-07-07 08:28:00,
2013-07-07 04:29:00,75.4,66.9,30.00,West,262,0.0,1.0,75,0.00,,---,0.00,VWS V14.01,2013-07-07 08:29:00,
2013-07-07 04:30:00,75.4,66.9,30.00,West,262,0.0,1.0,75,0.00,,---,0.00,VWS V14.01,2013-07-07 08:30:00,
2013-07-07 04:31:00,75.4,66.9,30.00,West,262,0.0,0.0,75,0.00,,---,0.00,VWS V14.01,2013-07-07 08:31:00,
2013-07-07 04:32:00,75.4,66.9,30.00,West,262,0.0,0.0,75,0.00,,---,0.00,VWS V14.01,2013-07-07 08:32:00,
2013-07-07 04:33:00,75.4,66.9,30.00,West,262,0.0,0.0,75,0.00,,---,0.00,VWS V14.01,2013-07-07 08:33:00,
2013-07-07 04:34:00,75.4,66.9,30.00,West,262,0.0,0.0,75,0.00,,---,0.00,VWS V14.01,2013-07-07 08:34:00,
2013-07-07 04:35:00,75.4,66.9,30.00,West,262,0.0,0.0,75,0.00,,---,0.00,VWS V14.01,2013-07-07 08:35:00,
2013-07-07 04:36:00,75.4,66.9,30.00,West,262,0.0,0.0,75,0.00,,---,0.00,VWS V14.01,2013-07-07 08:36:00,
2013-07-07 04:37:00,75.5,67.0,30.00,West,262,0.0,0.0,75,0.00,,---,0.00,VWS V14.01,2013-07-07 08:37:00,
2013-07-07 04:38:00,75.5,67.0,30.00,West,262,0.0,3.0,75,0.00,,---,0.00,VWS V14.01,2013-07-07 08:38:00,
2013-07-07 04:39:00,75.5,67.0,30.00,West,262,0.0,3.0,75,0.00,,---,0.00,VWS V14.01,2013-07-07 08:39:00,
2013-07-07 04:40:00,75.5,67.0,30.00,West,262,0.0,3.0,75,0.00,,---,0.00,VWS V14.01,2013-07-07 08:40:00,
2013-07-07 04:41:00,75.4,66.9,30.00,West,262,0.0,3.0,75,0.00,,---,0.00,VWS V14.01,2013-07-07 08:41:00,
2013-07-07 04:42:00,75.3,66.8,30.00,West,262,0.0,3.0,75,0.00,,---,0.00,VWS V14.01,2013-07-07 08:42:00,
2013-07-07 04:43:00,75.3,66.8,30.00,West,262,0.0,3.0,75,0.00,,---,0.00,VWS V14.01,2013-07-07 08:43:00,
2013-07-07 04:44:00,75.2,66.7,30.00,West,262,0.0,3.0,75,0.00,,---,0.00,VWS V14.01,2013-07-07 08:44:00,
2013-07-07 04:45:00,75.1,66.6,30.00,West,262,1.0,4.0,75,0.00,,---,0.00,VWS V14.01,2013-07-07 08:45:00,
2013-07-07 04:46:00,75.1,66.6,30.00,West,262,3.0,4.0,75,0.00,,---,0.00,VWS V14.01,2013-07-07 08:46:00,
2013-07-07 04:47:00,75.1,66.6,30.00,West,262,4.0,6.0,75,0.00,,---,0.00,VWS V14.01,2013-07-07 08:47:00,
2013-07-07 04:48:00,75.1,66.6,30.00,West,262,3.0,6.0,75,0.00,,---,0.00,VWS V14.01,2013-07-07 08:48:00,
2013-07-07 04:49:00,75.1,66.6,30.00,West,262,6.0,7.0,75,0.00,,---,0.00,VWS V14.01,2013-07-07 08:49:00,
2013-07-07 04:50:00,75.2,66.7,30.00,West,262,3.0,7.0,75,0.00,,---,0.00,VWS V14.01,2013-07-07 08:50:00,
2013-07-07 04:51:00,75.2,66.7,30.00,West,262,2.0,7.0,75,0.00,,---,0.00,VWS V14.01,2013-07-07 08:51:00,
2013-07-07 04:52:00,75.2,66.7,30.00,West,262,0.0,7.0,75,0.00,,---,0.00,VWS V14.01,2013-07-07 08:52:00,
2013-07-07 04:53:00,75.2,67.1,30.00,West,262,5.0,7.0,76,0.00,,---,0.00,VWS V14.01,2013-07-07 08:53:00,
2013-07-07 04:54:00,75.1,67.0,30.00,West,262,4.0,7.0,76,0.00,,---,0.00,VWS V14.01,2013-07-07 08:54:00,
2013-07-07 04:55:00,75.0,66.9,30.00,West,262,4.0,7.0,76,0.00,,---,0.00,VWS V14.01,2013-07-07 08:55:00,
2013-07-07 04:56:00,75.0,66.9,30.00,West,262,6.0,8.0,76,0.00,,---,0.00,VWS V14.01,2013-07-07 08:56:00,
2013-07-07 04:57:00,75.0,66.9,30.00,West,263,4.0,8.0,76,0.00,,---,0.00,VWS V14.01,2013-07-07 08:57:00,
2013-07-07 04:58:00,75.1,67.0,30.00,West,263,3.0,8.0,76,0.00,,---,0.00,VWS V14.01,2013-07-07 08:58:00,
2013-07-07 04:59:00,75.0,66.9,30.00,West,263,6.0,8.0,76,0.00,,---,0.00,VWS V14.01,2013-07-07 08:59:00,
2013-07-07 05:00:00,75.0,66.9,30.00,West,264,6.0,8.0,76,0.00,,---,0.00,VWS V14.01,2013-07-07 09:00:00,
2013-07-07 05:01:00,75.1,67.0,30.00,West,264,7.0,7.0,76,0.00,,---,0.00,VWS V14.01,2013-07-07 09:01:00,
2013-07-07 05:02:00,75.1,67.0,30.00,West,264,8.0,8.0,76,0.00,,---,0.00,VWS V14.01,2013-07-07 09:02:00,
2013-07-07 05:03:00,75.0,66.9,30.00,West,264,7.0,8.0,76,0.00,,---,0.00,VWS V14.01,2013-07-07 09:03:00,
2013-07-07 05:04:00,75.1,66.6,30.00,West,264,7.0,9.0,75,0.00,,---,0.00,VWS V14.01,2013-07-07 09:04:00,
2013-07-07 05:05:00,75.1,66.6,30.00,West,265,8.0,9.0,75,0.00,,---,0.00,VWS V14.01,2013-07-07 09:05:00,
2013-07-07 05:06:00,75.2,66.7,30.00,West,265,9.0,9.0,75,0.00,,---,0.00,VWS V14.01,2013-07-07 09:06:00,
2013-07-07 05:07:00,75.3,66.4,30.00,West,268,9.0,10.0,74,0.00,,---,0.00,VWS V14.01,2013-07-07 09:07:00,
2013-07-07 05:08:00,75.4,66.5,30.00,West,271,10.0,10.0,74,0.00,,---,0.00,VWS V14.01,2013-07-07 09:08:00,
2013-07-07 05:09:00,75.6,66.3,30.00,West,271,9.0,10.0,73,0.00,,---,0.00,VWS V14.01,2013-07-07 09:09:00,
2013-07-07 05:10:00,75.7,66.4,30.00,West,271,9.0,10.0,73,0.00,,---,0.00,VWS V14.01,2013-07-07 09:10:00,
2013-07-07 05:11:00,75.9,66.6,30.00,West,273,9.0,10.0,73,0.00,,---,0.00,VWS V14.01,2013-07-07 09:11:00,
2013-07-07 05:12:00,76.3,66.2,30.00,West,281,9.0,10.0,71,0.00,,---,0.00,VWS V14.01,2013-07-07 09:12:00,
2013-07-07 05:13:00,76.6,66.5,29.99,West,276,10.0,10.0,71,0.00,,---,0.00,VWS V14.01,2013-07-07 09:13:00,
2013-07-07 05:14:00,76.8,66.7,29.99,West,276,9.0,10.0,71,0.00,,---,0.00,VWS V14.01,2013-07-07 09:14:00,
2013-07-07 05:15:00,76.9,66.4,29.99,West,278,9.0,10.0,70,0.00,,---,0.00,VWS V14.01,2013-07-07 09:15:00,
2013-07-07 05:16:00,77.0,66.5,29.99,West,278,7.0,10.0,70,0.00,,---,0.00,VWS V14.01,2013-07-07 09:16:00,
2013-07-07 05:17:00,77.1,66.6,30.00,West,277,7.0,10.0,70,0.00,,---,0.00,VWS V14.01,2013-07-07 09:17:00,
2013-07-07 05:18:00,77.0,66.5,30.00,West,277,8.0,10.0,70,0.00,,---,0.00,VWS V14.01,2013-07-07 09:18:00,
2013-07-07 05:19:00,77.0,66.5,30.00,West,276,8.0,10.0,70,0.00,,---,0.00,VWS V14.01,2013-07-07 09:19:00,
2013-07-07 05:20:00,77.1,66.6,29.99,West,276,7.0,10.0,70,0.00,,---,0.00,VWS V14.01,2013-07-07 09:20:00,
2013-07-07 05:21:00,77.1,66.6,29.99,West,276,7.0,10.0,70,0.00,,---,0.00,VWS V14.01,2013-07-07 09:21:00,
2013-07-07 05:22:00,77.1,66.6,29.99,West,276,8.0,10.0,70,0.00,,---,0.00,VWS V14.01,2013-07-07 09:22:00,
2013-07-07 05:23:00,77.2,66.2,29.99,West,276,7.0,10.0,69,0.00,,---,0.00,VWS V14.01,2013-07-07 09:23:00,
2013-07-07 05:24:00,77.3,66.3,29.99,West,276,6.0,10.0,69,0.00,,---,0.00,VWS V14.01,2013-07-07 09:24:00,
2013-07-07 05:25:00,77.4,66.4,30.00,West,277,8.0,10.0,69,0.00,,---,0.00,VWS V14.01,2013-07-07 09:25:00,
2013-07-07 05:26:00,77.3,66.3,30.00,WNW,283,7.0,10.0,69,0.00,,---,0.00,VWS V14.01,2013-07-07 09:26:00,
2013-07-07 05:27:00,77.4,66.4,30.00,WNW,284,7.0,10.0,69,0.00,,---,0.00,VWS V14.01,2013-07-07 09:27:00,
2013-07-07 05:28:00,77.3,66.3,30.00,WNW,284,5.0,10.0,69,0.00,,---,0.00,VWS V14.01,2013-07-07 09:28:00,
2013-07-07 05:29:00,77.2,66.2,30.00,WNW,284,6.0,10.0,69,0.00,,---,0.00,VWS V14.01,2013-07-07 09:29:00,
2013-07-07 05:30:00,77.1,66.6,30.00,WNW,283,8.0,10.0,70,0.00,,---,0.00,VWS V14.01,2013-07-07 09:30:00,
2013-07-07 05:31:00,77.0,66.1,30.00,West,280,9.0,9.0,69,0.00,,---,0.00,VWS V14.01,2013-07-07 09:31:00,
2013-07-07 05:32:00,77.1,66.2,30.00,WNW,284,9.0,9.0,69,0.00,,---,0.00,VWS V14.01,2013-07-07 09:32:00,
2013-07-07 05:33:00,77.1,66.2,30.00,WNW,290,9.0,10.0,69,0.00,,---,0.00,VWS V14.01,2013-07-07 09:33:00,
2013-07-07 05:34:00,77.2,66.2,30.00,WNW,296,8.0,10.0,69,0.00,,---,0.00,VWS V14.01,2013-07-07 09:34:00,
2013-07-07 05:35:00,77.2,66.2,30.00,WNW,290,7.0,10.0,69,0.00,,---,0.00,VWS V14.01,2013-07-07 09:35:00,
2013-07-07 05:36:00,77.1,66.2,30.00,WNW,288,9.0,10.0,69,0.00,,---,0.00,VWS V14.01,2013-07-07 09:36:00,
2013-07-07 05:37:00,77.3,66.3,30.00,WNW,288,9.0,10.0,69,0.00,,---,0.00,VWS V14.01,2013-07-07 09:37:00,
2013-07-07 05:38:00,77.4,66.4,30.00,WNW,286,9.0,10.0,69,0.00,,---,0.00,VWS V14.01,2013-07-07 09:38:00,
2013-07-07 05:39:00,77.5,66.1,30.00,WNW,287,8.0,10.0,68,0.00,,---,0.00,VWS V14.01,2013-07-07 09:39:00,
2013-07-07 05:40:00,77.6,66.2,30.00,WNW,288,9.0,10.0,68,0.00,,---,0.00,VWS V14.01,2013-07-07 09:40:00,
2013-07-07 05:41:00,77.6,66.2,30.00,WNW,291,9.0,10.0,68,0.00,,---,0.00,VWS V14.01,2013-07-07 09:41:00,
2013-07-07 05:42:00,77.7,66.3,29.99,WNW,292,8.0,10.0,68,0.00,,---,0.00,VWS V14.01,2013-07-07 09:42:00,
2013-07-07 05:43:00,77.7,66.3,29.99,WNW,293,8.0,10.0,68,0.00,,---,0.00,VWS V14.01,2013-07-07 09:43:00,
2013-07-07 05:44:00,77.8,66.4,30.00,WNW,292,8.0,10.0,68,0.00,,---,0.00,VWS V14.01,2013-07-07 09:44:00,
2013-07-07 05:45:00,77.7,66.3,30.00,WNW,284,9.0,10.0,68,0.00,,---,0.00,VWS V14.01,2013-07-07 09:45:00,
2013-07-07 05:46:00,77.7,66.3,30.00,West,281,8.0,10.0,68,0.00,,---,0.00,VWS V14.01,2013-07-07 09:46:00,
2013-07-07 05:47:00,77.6,66.2,30.00,WNW,288,9.0,10.0,68,0.00,,---,0.00,VWS V14.01,2013-07-07 09:47:00,
2013-07-07 05:48:00,77.6,66.2,30.00,WNW,287,9.0,10.0,68,0.00,,---,0.00,VWS V14.01,2013-07-07 09:48:00,
2013-07-07 05:49:00,77.7,66.3,30.00,West,279,10.0,11.0,68,0.00,,---,0.00,VWS V14.01,2013-07-07 09:49:00,
2013-07-07 05:50:00,77.7,66.3,30.00,West,279,10.0,11.0,68,0.00,,---,0.00,VWS V14.01,2013-07-07 09:50:00,
2013-07-07 05:51:00,77.7,66.3,30.00,West,279,10.0,11.0,68,0.00,,---,0.00,VWS V14.01,2013-07-07 09:51:00,
2013-07-07 05:52:00,77.8,66.4,30.00,WNW,282,10.0,11.0,68,0.00,,---,0.00,VWS V14.01,2013-07-07 09:52:00,
2013-07-07 05:53:00,77.9,66.5,30.00,WNW,283,9.0,11.0,68,0.00,,---,0.00,VWS V14.01,2013-07-07 09:53:00,
2013-07-07 05:54:00,78.1,66.7,30.00,WNW,287,10.0,11.0,68,0.00,,---,0.00,VWS V14.01,2013-07-07 09:54:00,
2013-07-07 05:55:00,78.2,66.4,30.00,WNW,286,10.0,11.0,67,0.00,,---,0.00,VWS V14.01,2013-07-07 09:55:00,
2013-07-07 05:56:00,78.3,66.4,30.00,WNW,286,10.0,11.0,67,0.00,,---,0.00,VWS V14.01,2013-07-07 09:56:00,
2013-07-07 05:57:00,78.4,66.6,30.00,WNW,290,9.0,11.0,67,0.00,,---,0.00,VWS V14.01,2013-07-07 09:57:00,
2013-07-07 05:58:00,78.5,66.6,30.00,WNW,284,10.0,11.0,67,0.00,,---,0.00,VWS V14.01,2013-07-07 09:58:00,
2013-07-07 05:59:00,78.4,66.6,30.00,WNW,282,9.0,11.0,67,0.00,,---,0.00,VWS V14.01,2013-07-07 09:59:00,
2013-07-07 06:00:00,78.3,66.4,30.00,West,281,9.0,11.0,67,0.00,,---,0.00,VWS V14.01,2013-07-07 10:00:00,
2013-07-07 06:01:00,78.1,66.3,30.00,West,279,9.0,11.0,67,0.00,,---,0.00,VWS V14.01,2013-07-07 10:01:00,
2013-07-07 06:02:00,77.9,66.5,30.00,West,280,10.0,11.0,68,0.00,,---,0.00,VWS V14.01,2013-07-07 10:02:00,
2013-07-07 06:03:00,77.8,66.4,30.00,West,280,9.0,11.0,68,0.00,,---,0.00,VWS V14.01,2013-07-07 10:03:00,
2013-07-07 06:04:00,77.8,66.4,30.00,West,280,8.0,11.0,68,0.00,,---,0.00,VWS V14.01,2013-07-07 10:04:00,
2013-07-07 06:05:00,77.7,66.7,30.00,West,280,7.0,11.0,69,0.00,,---,0.00,VWS V14.01,2013-07-07 10:05:00,
2013-07-07 06:06:00,77.5,66.5,30.00,West,277,9.0,11.0,69,0.00,,---,0.00,VWS V14.01,2013-07-07 10:06:00,
2013-07-07 06:07:00,77.4,66.4,30.00,West,275,4.0,11.0,69,0.00,,---,0.00,VWS V14.01,2013-07-07 10:07:00,
2013-07-07 06:08:00,77.3,66.3,30.00,West,275,7.0,11.0,69,0.00,,---,0.00,VWS V14.01,2013-07-07 10:08:00,
2013-07-07 06:09:00,77.3,66.3,29.99,West,277,7.0,11.0,69,0.00,,---,0.00,VWS V14.01,2013-07-07 10:09:00,
2013-07-07 06:10:00,77.2,66.7,29.99,West,278,7.0,11.0,70,0.00,,---,0.00,VWS V14.01,2013-07-07 10:10:00,
2013-07-07 06:11:00,77.1,66.6,29.99,West,277,6.0,11.0,70,0.00,,---,0.00,VWS V14.01,2013-07-07 10:11:00,
2013-07-07 06:12:00,77.1,66.2,29.99,West,279,6.0,11.0,69,0.00,,---,0.00,VWS V14.01,2013-07-07 10:12:00,
2013-07-07 06:13:00,77.1,66.6,29.99,West,280,6.0,11.0,70,0.00,,---,0.00,VWS V14.01,2013-07-07 10:13:00,
2013-07-07 06:14:00,77.1,66.6,29.99,West,280,7.0,11.0,70,0.00,,---,0.00,VWS V14.01,2013-07-07 10:14:00,
2013-07-07 06:15:00,77.1,66.2,29.99,West,280,7.0,11.0,69,0.00,,---,0.00,VWS V14.01,2013-07-07 10:15:00,
2013-07-07 06:16:00,77.1,66.2,29.99,West,280,5.0,11.0,69,0.00,,---,0.00,VWS V14.01,2013-07-07 10:16:00,
2013-07-07 06:17:00,77.0,66.1,29.99,West,280,5.0,11.0,69,0.00,,---,0.00,VWS V14.01,2013-07-07 10:17:00,
2013-07-07 06:18:00,77.0,66.5,29.99,West,280,3.0,11.0,70,0.00,,---,0.00,VWS V14.01,2013-07-07 10:18:00,
2013-07-07 06:19:00,76.9,66.0,29.99,West,280,4.0,11.0,69,0.00,,---,0.00,VWS V14.01,2013-07-07 10:19:00,
2013-07-07 06:20:00,77.0,66.1,29.99,West,280,0.0,11.0,69,0.00,,---,0.00,VWS V14.01,2013-07-07 10:20:00,
2013-07-07 06:21:00,77.1,66.2,29.99,West,280,4.0,11.0,69,0.00,,---,0.00,VWS V14.01,2013-07-07 10:21:00,
2013-07-07 06:22:00,77.2,66.2,29.99,West,280,3.0,11.0,69,0.00,,---,0.00,VWS V14.01,2013-07-07 10:22:00,
2013-07-07 06:23:00,77.3,65.9,29.99,West,280,3.0,11.0,68,0.00,,---,0.00,VWS V14.01,2013-07-07 10:23:00,
2013-07-07 06:24:00,77.5,65.7,29.99,West,280,3.0,11.0,67,0.00,,---,0.00,VWS V14.01,2013-07-07 10:24:00,
2013-07-07 06:25:00,77.8,66.0,29.99,West,280,2.0,11.0,67,0.00,,---,0.00,VWS V14.01,2013-07-07 10:25:00,
2013-07-07 06:26:00,78.0,66.2,29.99,West,280,0.0,11.0,67,0.00,,---,0.00,VWS V14.01,2013-07-07 10:26:00,
2013-07-07 06:27:00,78.1,66.3,29.99,West,280,0.0,11.0,67,0.00,,---,0.00,VWS V14.01,2013-07-07 10:27:00,
2013-07-07 06:28:00,78.2,66.4,29.99,West,280,0.0,11.0,67,0.00,,---,0.00,VWS V14.01,2013-07-07 10:28:00,
2013-07-07 06:29:00,78.3,66.0,29.99,West,280,1.0,11.0,66,0.00,,---,0.00,VWS V14.01,2013-07-07 10:29:00,
2013-07-07 06:30:00,78.3,66.0,29.99,West,280,0.0,11.0,66,0.00,,---,0.00,VWS V14.01,2013-07-07 10:30:00,
2013-07-07 06:31:00,78.4,66.1,29.99,West,280,0.0,0.0,66,0.00,,---,0.00,VWS V14.01,2013-07-07 10:31:00,
2013-07-07 06:32:00,78.4,66.6,29.99,West,280,0.0,0.0,67,0.00,,---,0.00,VWS V14.01,2013-07-07 10:32:00,
2013-07-07 06:33:00,78.4,66.6,29.99,West,280,0.0,0.0,67,0.00,,---,0.00,VWS V14.01,2013-07-07 10:33:00,
2013-07-07 06:34:00,78.3,66.4,29.99,West,280,0.0,0.0,67,0.00,,---,0.00,VWS V14.01,2013-07-07 10:34:00,
2013-07-07 06:35:00,78.3,66.0,29.99,West,280,0.0,0.0,66,0.00,,---,0.00,VWS V14.01,2013-07-07 10:35:00,
2013-07-07 06:36:00,78.2,65.9,29.99,West,280,0.0,0.0,66,0.00,,---,0.00,VWS V14.01,2013-07-07 10:36:00,
2013-07-07 06:37:00,78.2,65.9,29.99,West,280,2.0,3.0,66,0.00,,---,0.00,VWS V14.01,2013-07-07 10:37:00,
2013-07-07 06:38:00,78.2,65.9,29.99,West,280,0.0,3.0,66,0.00,,---,0.00,VWS V14.01,2013-07-07 10:38:00,
2013-07-07 06:39:00,78.3,66.0,29.99,West,270,2.0,3.0,66,0.00,,---,0.00,VWS V14.01,2013-07-07 10:39:00,
2013-07-07 06:40:00,78.3,66.0,29.99,West,270,0.0,3.0,66,0.00,,---,0.00,VWS V14.01,2013-07-07 10:40:00,
2013-07-07 06:41:00,78.3,66.4,29.99,West,261,2.0,4.0,67,0.00,,---,0.00,VWS V14.01,2013-07-07 10:41:00,
2013-07-07 06:42:00,78.3,66.4,29.99,West,259,3.0,4.0,67,0.00,,---,0.00,VWS V14.01,2013-07-07 10:42:00,
2013-07-07 06:43:00,78.2,66.4,29.99,WSW,249,4.0,5.0,67,0.00,,---,0.00,VWS V14.01,2013-07-07 10:43:00,
2013-07-07 06:44:00,78.2,66.4,29.99,WSW,248,5.0,5.0,67,0.00,,---,0.00,VWS V14.01,2013-07-07 10:44:00,
2013-07-07 06:45:00,78.1,66.7,29.99,WSW,252,7.0,8.0,68,0.00,,---,0.00,VWS V14.01,2013-07-07 10:45:00,
2013-07-07 06:46:00,78.1,65.4,29.99,West,259,6.0,8.0,65,0.00,,---,0.00,VWS V14.01,2013-07-07 10:46:00,
2013-07-07 06:47:00,78.3,66.0,29.99,WSW,256,5.0,8.0,66,0.00,,---,0.00,VWS V14.01,2013-07-07 10:47:00,
2013-07-07 06:48:00,78.4,66.6,29.99,WSW,256,5.0,8.0,67,0.00,,---,0.00,VWS V14.01,2013-07-07 10:48:00,
2013-07-07 06:49:00,78.3,66.4,29.99,WSW,256,5.0,8.0,67,0.00,,---,0.00,VWS V14.01,2013-07-07 10:49:00,
2013-07-07 06:50:00,78.4,66.1,29.99,WSW,256,4.0,8.0,66,0.00,,---,0.00,VWS V14.01,2013-07-07 10:50:00,
2013-07-07 06:51:00,78.4,66.1,29.99,West,260,6.0,8.0,66,0.00,,---,0.00,VWS V14.01,2013-07-07 10:51:00,
2013-07-07 06:52:00,78.7,65.5,29.99,West,260,4.0,8.0,64,0.00,,---,0.00,VWS V14.01,2013-07-07 10:52:00,
2013-07-07 06:53:00,78.9,66.2,29.99,West,262,6.0,8.0,65,0.00,,---,0.00,VWS V14.01,2013-07-07 10:53:00,
2013-07-07 06:54:00,78.9,66.2,29.99,West,267,6.0,8.0,65,0.00,,---,0.00,VWS V14.01,2013-07-07 10:54:00,
2013-07-07 06:55:00,78.9,65.7,29.99,West,270,7.0,8.0,64,0.00,,---,0.00,VWS V14.01,2013-07-07 10:55:00,
2013-07-07 06:56:00,78.8,66.1,29.99,West,273,5.0,8.0,65,0.00,,---,0.00,VWS V14.01,2013-07-07 10:56:00,
2013-07-07 06:57:00,78.8,65.6,29.99,WNW,282,6.0,8.0,64,0.00,,---,0.00,VWS V14.01,2013-07-07 10:57:00,
2013-07-07 06:58:00,78.9,65.7,29.99,West,279,5.0,9.0,64,0.00,,---,0.00,VWS V14.01,2013-07-07 10:58:00,
2013-07-07 06:59:00,78.9,65.7,29.99,West,279,4.0,9.0,64,0.00,,---,0.00,VWS V14.01,2013-07-07 10:59:00,
2013-07-07 07:00:00,78.9,65.7,29.99,West,279,5.0,9.0,64,0.00,,---,0.00,VWS V14.01,2013-07-07 11:00:00,
2013-07-07 07:01:00,78.8,65.6,29.99,West,277,5.0,7.0,64,0.00,,---,0.00,VWS V14.01,2013-07-07 11:01:00,
2013-07-07 07:02:00,78.8,65.6,29.99,West,277,3.0,7.0,64,0.00,,---,0.00,VWS V14.01,2013-07-07 11:02:00,
2013-07-07 07:03:00,78.7,66.0,29.99,West,278,2.0,7.0,65,0.00,,---,0.00,VWS V14.01,2013-07-07 11:03:00,
2013-07-07 07:04:00,78.5,66.2,29.99,West,274,4.0,7.0,66,0.00,,---,0.00,VWS V14.01,2013-07-07 11:04:00,
2013-07-07 07:05:00,78.2,65.9,29.99,West,271,4.0,7.0,66,0.00,,---,0.00,VWS V14.01,2013-07-07 11:05:00,
2013-07-07 07:06:00,78.0,65.7,29.99,West,275,7.0,8.0,66,0.00,,---,0.00,VWS V14.01,2013-07-07 11:06:00,
2013-07-07 07:07:00,78.0,65.7,29.99,West,278,8.0,9.0,66,0.00,,---,0.00,VWS V14.01,2013-07-07 11:07:00,
2013-07-07 07:08:00,78.1,65.4,29.99,WNW,292,8.0,9.0,65,0.00,,---,0.00,VWS V14.01,2013-07-07 11:08:00,
2013-07-07 07:09:00,78.2,65.5,29.99,WNW,291,6.0,9.0,65,0.00,,---,0.00,VWS V14.01,2013-07-07 11:09:00,
2013-07-07 07:10:00,78.3,65.1,29.99,WNW,295,9.0,10.0,64,0.00,,---,0.00,VWS V14.01,2013-07-07 11:10:00,
2013-07-07 07:11:00,78.5,64.9,29.99,WNW,300,8.0,10.0,63,0.00,,---,0.00,VWS V14.01,2013-07-07 11:11:00,
2013-07-07 07:12:00,78.7,65.1,29.99,WNW,300,8.0,10.0,63,0.00,,---,0.00,VWS V14.01,2013-07-07 11:12:00,
2013-07-07 07:13:00,78.9,64.8,29.98,WNW,295,6.0,10.0,62,0.00,,---,0.00,VWS V14.01,2013-07-07 11:13:00,
2013-07-07 07:14:00,79.1,65.0,29.98,WNW,295,7.0,10.0,62,0.00,,---,0.00,VWS V14.01,2013-07-07 11:14:00,
2013-07-07 07:15:00,79.3,64.7,29.98,WNW,297,8.0,10.0,61,0.00,,---,0.00,VWS V14.01,2013-07-07 11:15:00,
2013-07-07 07:16:00,79.4,64.8,29.98,WNW,303,7.0,10.0,61,0.00,,---,0.00,VWS V14.01,2013-07-07 11:16:00,
2013-07-07 07:17:00,79.6,65.0,29.98,WNW,303,7.0,10.0,61,0.00,,---,0.00,VWS V14.01,2013-07-07 11:17:00,
2013-07-07 07:18:00,79.7,65.1,29.98,NW,304,7.0,10.0,61,0.00,,---,0.00,VWS V14.01,2013-07-07 11:18:00,
2013-07-07 07:19:00,79.9,64.8,29.98,NW,304,8.0,10.0,60,0.00,,---,0.00,VWS V14.01,2013-07-07 11:19:00,
2013-07-07 07:20:00,80.0,65.4,29.98,NW,304,7.0,10.0,61,0.00,,---,0.00,VWS V14.01,2013-07-07 11:20:00,
2013-07-07 07:21:00,80.1,65.4,29.98,NW,307,5.0,10.0,61,0.00,,---,0.00,VWS V14.01,2013-07-07 11:21:00,
2013-07-07 07:22:00,80.1,65.4,29.98,NW,305,5.0,10.0,61,0.00,,---,0.00,VWS V14.01,2013-07-07 11:22:00,
2013-07-07 07:23:00,80.1,65.9,29.98,NW,307,6.0,10.0,62,0.00,,---,0.00,VWS V14.01,2013-07-07 11:23:00,
2013-07-07 07:24:00,80.0,65.8,29.98,NW,309,8.0,10.0,62,0.00,,---,0.00,VWS V14.01,2013-07-07 11:24:00,
2013-07-07 07:25:00,79.8,65.6,29.98,NW,309,5.0,10.0,62,0.00,,---,0.00,VWS V14.01,2013-07-07 11:25:00,
2013-07-07 07:26:00,79.7,65.5,29.98,NW,309,6.0,10.0,62,0.00,,---,0.00,VWS V14.01,2013-07-07 11:26:00,
2013-07-07 07:27:00,79.6,65.0,29.98,NW,309,5.0,10.0,61,0.00,,---,0.00,VWS V14.01,2013-07-07 11:27:00,
2013-07-07 07:28:00,79.6,65.4,29.98,NW,308,5.0,10.0,62,0.00,,---,0.00,VWS V14.01,2013-07-07 11:28:00,
2013-07-07 07:29:00,79.6,65.4,29.98,NW,306,6.0,10.0,62,0.00,,---,0.00,VWS V14.01,2013-07-07 11:29:00,
2013-07-07 07:30:00,79.6,65.0,29.98,NW,306,4.0,10.0,61,0.00,,---,0.00,VWS V14.01,2013-07-07 11:30:00,
2013-07-07 07:31:00,79.6,65.0,29.98,NW,306,5.0,5.0,61,0.00,,---,0.00,VWS V14.01,2013-07-07 11:31:00,
2013-07-07 07:32:00,79.6,65.4,29.98,NW,306,3.0,6.0,62,0.00,,---,0.00,VWS V14.01,2013-07-07 11:32:00,
2013-07-07 07:33:00,79.6,65.4,29.98,NW,306,1.0,6.0,62,0.00,,---,0.00,VWS V14.01,2013-07-07 11:33:00,
2013-07-07 07:34:00,79.6,65.4,29.98,NW,308,3.0,6.0,62,0.00,,---,0.00,VWS V14.01,2013-07-07 11:34:00,
2013-07-07 07:35:00,79.6,65.4,29.98,NNW,328,2.0,6.0,62,0.00,,---,0.00,VWS V14.01,2013-07-07 11:35:00,
2013-07-07 07:36:00,79.6,65.4,29.98,NW,325,3.0,6.0,62,0.00,,---,0.00,VWS V14.01,2013-07-07 11:36:00,
2013-07-07 07:37:00,79.5,65.3,29.98,NW,325,3.0,6.0,62,0.00,,---,0.00,VWS V14.01,2013-07-07 11:37:00,
2013-07-07 07:38:00,79.5,65.8,29.98,NW,321,3.0,6.0,63,0.00,,---,0.00,VWS V14.01,2013-07-07 11:38:00,
2013-07-07 07:39:00,79.5,65.8,29.98,NW,316,6.0,6.0,63,0.00,,---,0.00,VWS V14.01,2013-07-07 11:39:00,
2013-07-07 07:40:00,79.5,65.8,29.98,NW,310,5.0,8.0,63,0.00,,---,0.00,VWS V14.01,2013-07-07 11:40:00,
2013-07-07 07:41:00,79.6,65.9,29.98,NW,317,6.0,8.0,63,0.00,,---,0.00,VWS V14.01,2013-07-07 11:41:00,
2013-07-07 07:42:00,79.7,66.0,29.98,NW,326,7.0,8.0,63,0.00,,---,0.00,VWS V14.01,2013-07-07 11:42:00,
2013-07-07 07:43:00,79.7,66.5,29.98,NNW,336,7.0,8.0,64,0.00,,---,0.00,VWS V14.01,2013-07-07 11:43:00,
2013-07-07 07:44:00,79.7,66.5,29.98,NNW,331,8.0,9.0,64,0.00,,---,0.00,VWS V14.01,2013-07-07 11:44:00,
2013-07-07 07:45:00,79.6,66.8,29.98,NNW,328,9.0,9.0,65,0.00,,---,0.00,VWS V14.01,2013-07-07 11:45:00,
2013-07-07 07:46:00,79.5,66.7,29.98,NW,318,6.0,9.0,65,0.00,,---,0.00,VWS V14.01,2013-07-07 11:46:00,
2013-07-07 07:47:00,79.4,67.1,29.98,NW,321,7.0,9.0,66,0.00,,---,0.00,VWS V14.01,2013-07-07 11:47:00,
2013-07-07 07:48:00,79.3,67.0,29.98,NW,324,9.0,9.0,66,0.00,,---,0.00,VWS V14.01,2013-07-07 11:48:00,
2013-07-07 07:49:00,79.3,67.0,29.98,NW,315,9.0,10.0,66,0.00,,---,0.00,VWS V14.01,2013-07-07 11:49:00,
2013-07-07 07:50:00,79.4,66.6,29.98,NW,317,9.0,10.0,65,0.00,,---,0.00,VWS V14.01,2013-07-07 11:50:00,
2013-07-07 07:51:00,79.6,66.8,29.98,NW,311,8.0,10.0,65,0.00,,---,0.00,VWS V14.01,2013-07-07 11:51:00,
2013-07-07 07:52:00,79.7,66.9,29.98,NW,318,10.0,10.0,65,0.00,,---,0.00,VWS V14.01,2013-07-07 11:52:00,
2013-07-07 07:53:00,79.8,67.0,29.98,NW,317,10.0,10.0,65,0.00,,---,0.00,VWS V14.01,2013-07-07 11:53:00,
2013-07-07 07:54:00,80.2,67.4,29.98,NW,318,9.0,10.0,65,0.00,,---,0.00,VWS V14.01,2013-07-07 11:54:00,
2013-07-07 07:55:00,80.6,67.3,29.98,NW,317,9.0,10.0,64,0.00,,---,0.00,VWS V14.01,2013-07-07 11:55:00,
2013-07-07 07:56:00,80.9,67.6,29.98,NW,309,10.0,11.0,64,0.00,,---,0.00,VWS V14.01,2013-07-07 11:56:00,
2013-07-07 07:57:00,81.3,67.5,29.98,NW,310,10.0,11.0,63,0.00,,---,0.00,VWS V14.01,2013-07-07 11:57:00,
2013-07-07 07:58:00,81.6,67.8,29.98,NW,309,9.0,11.0,63,0.00,,---,0.00,VWS V14.01,2013-07-07 11:58:00,
2013-07-07 07:59:00,81.9,67.6,29.98,NW,304,9.0,11.0,62,0.00,,---,0.00,VWS V14.01,2013-07-07 11:59:00,
2013-07-07 08:00:00,82.1,67.8,29.98,NW,304,9.0,11.0,62,0.00,,---,0.00,VWS V14.01,2013-07-07 12:00:00,
2013-07-07 08:01:00,82.2,68.4,29.98,NW,304,9.0,10.0,63,0.00,,---,0.00,VWS V14.01,2013-07-07 12:01:00,
2013-07-07 08:02:00,82.3,68.0,29.98,WNW,299,9.0,10.0,62,0.00,,---,0.00,VWS V14.01,2013-07-07 12:02:00,
2013-07-07 08:03:00,82.3,68.0,29.98,WNW,297,9.0,10.0,62,0.00,,---,0.00,VWS V14.01,2013-07-07 12:03:00,
2013-07-07 08:04:00,82.3,68.5,29.98,WNW,291,10.0,11.0,63,0.00,,---,0.00,VWS V14.01,2013-07-07 12:04:00,
2013-07-07 08:05:00,82.1,68.3,29.98,WNW,292,9.0,11.0,63,0.00,,---,0.00,VWS V14.01,2013-07-07 12:05:00,
2013-07-07 08:06:00,82.0,68.2,29.98,WNW,296,8.0,11.0,63,0.00,,---,0.00,VWS V14.01,2013-07-07 12:06:00,
2013-07-07 08:07:00,81.9,68.1,29.98,WNW,295,10.0,11.0,63,0.00,,---,0.00,VWS V14.01,2013-07-07 12:07:00,
2013-07-07 08:08:00,81.8,68.4,29.98,WNW,296,9.0,11.0,64,0.00,,---,0.00,VWS V14.01,2013-07-07 12:08:00,
2013-07-07 08:09:00,81.7,68.3,29.98,WNW,294,10.0,11.0,64,0.00,,---,0.00,VWS V14.01,2013-07-07 12:09:00,
2013-07-07 08:10:00,81.5,68.2,29.98,WNW,292,10.0,12.0,64,0.00,,---,0.00,VWS V14.01,2013-07-07 12:10:00,
2013-07-07 08:11:00,81.4,68.5,29.98,WNW,288,12.0,12.0,65,0.00,,---,0.00,VWS V14.01,2013-07-07 12:11:00,
2013-07-07 08:12:00,81.2,68.3,29.98,WNW,296,12.0,13.0,65,0.00,,---,0.00,VWS V14.01,2013-07-07 12:12:00,
2013-07-07 08:13:00,81.3,68.4,29.98,WNW,295,11.0,13.0,65,0.00,,---,0.00,VWS V14.01,2013-07-07 12:13:00,
2013-07-07 08:14:00,81.6,68.7,29.98,WNW,288,11.0,13.0,65,0.00,,---,0.00,VWS V14.01,2013-07-07 12:14:00,
2013-07-07 08:15:00,81.8,68.4,29.98,WNW,286,12.0,13.0,64,0.00,,---,0.00,VWS V14.01,2013-07-07 12:15:00,
2013-07-07 08:16:00,81.8,68.4,29.98,WNW,298,12.0,13.0,64,0.00,,---,0.00,VWS V14.01,2013-07-07 12:16:00,
2013-07-07 08:17:00,81.8,68.9,29.98,WNW,294,11.0,13.0,65,0.00,,---,0.00,VWS V14.01,2013-07-07 12:17:00,
2013-07-07 08:18:00,81.9,68.5,29.98,WNW,298,11.0,13.0,64,0.00,,---,0.00,VWS V14.01,2013-07-07 12:18:00,
2013-07-07 08:19:00,81.9,69.0,29.98,WNW,300,10.0,13.0,65,0.00,,---,0.00,VWS V14.01,2013-07-07 12:19:00,
2013-07-07 08:20:00,81.9,69.0,29.98,WNW,298,10.0,13.0,65,0.00,,---,0.00,VWS V14.01,2013-07-07 12:20:00,
2013-07-07 08:21:00,81.8,68.9,29.98,WNW,294,12.0,13.0,65,0.00,,---,0.00,VWS V14.01,2013-07-07 12:21:00,
2013-07-07 08:22:00,81.7,68.8,29.98,WNW,293,13.0,14.0,65,0.00,,---,0.00,VWS V14.01,2013-07-07 12:22:00,
2013-07-07 08:23:00,81.6,69.2,29.98,WNW,301,12.0,14.0,66,0.00,,---,0.00,VWS V14.01,2013-07-07 12:23:00,
2013-07-07 08:24:00,81.6,69.2,29.98,WNW,296,11.0,14.0,66,0.00,,---,0.00,VWS V14.01,2013-07-07 12:24:00,
2013-07-07 08:25:00,81.6,69.2,29.98,WNW,298,11.0,14.0,66,0.00,,---,0.00,VWS V14.01,2013-07-07 12:25:00,
2013-07-07 08:26:00,81.6,69.2,29.98,WNW,302,10.0,14.0,66,0.00,,---,0.00,VWS V14.01,2013-07-07 12:26:00,
2013-07-07 08:27:00,81.6,69.2,29.98,NW,304,10.0,14.0,66,0.00,,---,0.00,VWS V14.01,2013-07-07 12:27:00,
2013-07-07 08:28:00,81.5,69.1,29.98,WNW,301,8.0,14.0,66,0.00,,---,0.00,VWS V14.01,2013-07-07 12:28:00,
2013-07-07 08:29:00,81.5,69.1,29.98,WNW,298,9.0,14.0,66,0.00,,---,0.00,VWS V14.01,2013-07-07 12:29:00,
2013-07-07 08:30:00,81.5,69.1,29.98,WNW,302,9.0,14.0,66,0.00,,---,0.00,VWS V14.01,2013-07-07 12:30:00,
2013-07-07 08:31:00,81.5,69.5,29.98,NW,308,8.0,9.0,67,0.00,,---,0.00,VWS V14.01,2013-07-07 12:31:00,
2013-07-07 08:32:00,81.5,69.5,29.98,WNW,300,9.0,10.0,67,0.00,,---,0.00,VWS V14.01,2013-07-07 12:32:00,
2013-07-07 08:33:00,81.5,69.1,29.98,WNW,300,9.0,10.0,66,0.00,,---,0.00,VWS V14.01,2013-07-07 12:33:00,
2013-07-07 08:34:00,81.4,69.4,29.98,WNW,297,9.0,10.0,67,0.00,,---,0.00,VWS V14.01,2013-07-07 12:34:00,
2013-07-07 08:35:00,81.4,69.4,29.98,WNW,302,10.0,11.0,67,0.00,,---,0.00,VWS V14.01,2013-07-07 12:35:00,
2013-07-07 08:36:00,81.2,69.2,29.98,WNW,296,10.0,11.0,67,0.00,,---,0.00,VWS V14.01,2013-07-07 12:36:00,
2013-07-07 08:37:00,81.2,69.2,29.98,WNW,302,9.0,11.0,67,0.00,,---,0.00,VWS V14.01,2013-07-07 12:37:00,
2013-07-07 08:38:00,81.2,69.6,29.98,WNW,302,10.0,11.0,68,0.00,,---,0.00,VWS V14.01,2013-07-07 12:38:00,
2013-07-07 08:39:00,81.2,69.6,29.98,NW,304,10.0,11.0,68,0.00,,---,0.00,VWS V14.01,2013-07-07 12:39:00,
2013-07-07 08:40:00,81.4,69.4,29.98,NW,304,10.0,11.0,67,0.00,,---,0.00,VWS V14.01,2013-07-07 12:40:00,
2013-07-07 08:41:00,81.5,69.5,29.98,NW,310,10.0,11.0,67,0.00,,---,0.00,VWS V14.01,2013-07-07 12:41:00,
2013-07-07 08:42:00,81.7,69.7,29.98,NW,308,9.0,11.0,67,0.00,,---,0.00,VWS V14.01,2013-07-07 12:42:00,
2013-07-07 08:43:00,81.7,69.7,29.98,NW,309,9.0,11.0,67,0.00,,---,0.00,VWS V14.01,2013-07-07 12:43:00,
2013-07-07 08:44:00,81.7,69.7,29.98,NW,308,10.0,11.0,67,0.00,,---,0.00,VWS V14.01,2013-07-07 12:44:00,
2013-07-07 08:45:00,81.6,69.6,29.98,NW,309,10.0,11.0,67,0.00,,---,0.00,VWS V14.01,2013-07-07 12:45:00,
2013-07-07 08:46:00,81.6,69.6,29.98,NW,308,10.0,11.0,67,0.00,,---,0.00,VWS V14.01,2013-07-07 12:46:00,
2013-07-07 08:47:00,81.7,69.7,29.98,NW,304,10.0,11.0,67,0.00,,---,0.00,VWS V14.01,2013-07-07 12:47:00,
2013-07-07 08:48:00,81.7,69.7,29.98,WNW,302,10.0,11.0,67,0.00,,---,0.00,VWS V14.01,2013-07-07 12:48:00,
2013-07-07 08:49:00,81.7,69.7,29.98,NW,304,9.0,11.0,67,0.00,,---,0.00,VWS V14.01,2013-07-07 12:49:00,
2013-07-07 08:50:00,81.7,69.7,29.98,NW,309,8.0,11.0,67,0.00,,---,0.00,VWS V14.01,2013-07-07 12:50:00,
2013-07-07 08:51:00,81.8,70.2,29.98,NW,313,10.0,11.0,68,0.00,,---,0.00,VWS V14.01,2013-07-07 12:51:00,
2013-07-07 08:52:00,81.8,69.8,29.98,NW,304,8.0,11.0,67,0.00,,---,0.00,VWS V14.01,2013-07-07 12:52:00,
2013-07-07 08:53:00,81.9,69.9,29.98,NW,304,7.0,11.0,67,0.00,,---,0.00,VWS V14.01,2013-07-07 12:53:00,
2013-07-07 08:54:00,81.9,69.9,29.98,NW,309,7.0,11.0,67,0.00,,---,0.00,VWS V14.01,2013-07-07 12:54:00,
2013-07-07 08:55:00,82.0,70.0,29.98,NW,310,6.0,11.0,67,0.00,,---,0.00,VWS V14.01,2013-07-07 12:55:00,
2013-07-07 08:56:00,82.2,70.2,29.98,NW,309,9.0,11.0,67,0.00,,---,0.00,VWS V14.01,2013-07-07 12:56:00,
2013-07-07 08:57:00,82.4,70.3,29.98,NW,311,7.0,11.0,67,0.00,,---,0.00,VWS V14.01,2013-07-07 12:57:00,
2013-07-07 08:58:00,82.5,70.4,29.98,NW,323,6.0,11.0,67,0.00,,---,0.00,VWS V14.01,2013-07-07 12:58:00,
2013-07-07 08:59:00,82.7,70.2,29.98,NW,319,4.0,11.0,66,0.00,,---,0.00,VWS V14.01,2013-07-07 12:59:00,
2013-07-07 09:00:00,82.8,70.3,29.98,NW,309,7.0,11.0,66,0.00,,---,0.00,VWS V14.01,2013-07-07 13:00:00,
2013-07-07 09:01:00,82.9,70.4,29.98,WNW,300,7.0,7.0,66,0.00,,---,0.00,VWS V14.01,2013-07-07 13:01:00,
2013-07-07 09:02:00,82.9,70.4,29.97,WNW,288,10.0,11.0,66,0.00,,---,0.00,VWS V14.01,2013-07-07 13:02:00,
2013-07-07 09:03:00,83.0,70.5,29.98,NW,306,8.0,11.0,66,0.00,,---,0.00,VWS V14.01,2013-07-07 13:03:00,
2013-07-07 09:04:00,83.0,70.5,29.98,NW,307,7.0,11.0,66,0.00,,---,0.00,VWS V14.01,2013-07-07 13:04:00,
2013-07-07 09:05:00,82.9,70.4,29.98,NW,321,9.0,11.0,66,0.00,,---,0.00,VWS V14.01,2013-07-07 13:05:00,
2013-07-07 09:06:00,82.9,70.4,29.98,NW,305,7.0,11.0,66,0.00,,---,0.00,VWS V14.01,2013-07-07 13:06:00,
2013-07-07 09:07:00,82.9,70.4,29.98,WNW,300,7.0,11.0,66,0.00,,---,0.00,VWS V14.01,2013-07-07 13:07:00,
2013-07-07 09:08:00,83.0,70.5,29.98,WNW,301,7.0,11.0,66,0.00,,---,0.00,VWS V14.01,2013-07-07 13:08:00,
2013-07-07 09:09:00,83.2,70.7,29.98,WNW,300,5.0,11.0,66,0.00,,---,0.00,VWS V14.01,2013-07-07 13:09:00,
2013-07-07 09:10:00,83.2,70.7,29.98,NW,305,7.0,11.0,66,0.00,,---,0.00,VWS V14.01,2013-07-07 13:10:00,
2013-07-07 09:11:00,83.2,70.7,29.98,NW,306,7.0,11.0,66,0.00,,---,0.00,VWS V14.01,2013-07-07 13:11:00,
2013-07-07 09:12:00,83.1,70.6,29.98,WNW,301,7.0,11.0,66,0.00,,---,0.00,VWS V14.01,2013-07-07 13:12:00,
2013-07-07 09:13:00,83.0,70.5,29.98,NW,308,7.0,11.0,66,0.00,,---,0.00,VWS V14.01,2013-07-07 13:13:00,
2013-07-07 09:14:00,82.9,70.4,29.98,WNW,303,9.0,11.0,66,0.00,,---,0.00,VWS V14.01,2013-07-07 13:14:00,
2013-07-07 09:15:00,82.7,70.2,29.98,NW,304,7.0,11.0,66,0.00,,---,0.00,VWS V14.01,2013-07-07 13:15:00,
2013-07-07 09:16:00,82.6,70.5,29.98,NW,311,9.0,11.0,67,0.00,,---,0.00,VWS V14.01,2013-07-07 13:16:00,
2013-07-07 09:17:00,82.7,70.6,29.98,WNW,303,8.0,11.0,67,0.00,,---,0.00,VWS V14.01,2013-07-07 13:17:00,
2013-07-07 09:18:00,82.8,70.7,29.98,WNW,300,10.0,11.0,67,0.00,,---,0.00,VWS V14.01,2013-07-07 13:18:00,
2013-07-07 09:19:00,82.9,70.8,29.98,WNW,301,8.0,11.0,67,0.00,,---,0.00,VWS V14.01,2013-07-07 13:19:00,
2013-07-07 09:20:00,82.9,70.8,29.98,WNW,296,11.0,11.0,67,0.00,,---,0.00,VWS V14.01,2013-07-07 13:20:00,
2013-07-07 09:21:00,82.9,70.8,29.98,WNW,301,11.0,11.0,67,0.00,,---,0.00,VWS V14.01,2013-07-07 13:21:00,
2013-07-07 09:22:00,82.9,70.8,29.98,WNW,285,11.0,11.0,67,0.00,,---,0.00,VWS V14.01,2013-07-07 13:22:00,
2013-07-07 09:23:00,82.8,70.7,29.98,WNW,288,10.0,12.0,67,0.00,,---,0.00,VWS V14.01,2013-07-07 13:23:00,
2013-07-07 09:24:00,82.8,70.7,29.98,WNW,297,10.0,12.0,67,0.00,,---,0.00,VWS V14.01,2013-07-07 13:24:00,
2013-07-07 09:25:00,82.7,70.6,29.98,NW,305,9.0,12.0,67,0.00,,---,0.00,VWS V14.01,2013-07-07 13:25:00,
2013-07-07 09:26:00,82.7,70.6,29.98,NW,309,9.0,12.0,67,0.00,,---,0.00,VWS V14.01,2013-07-07 13:26:00,
2013-07-07 09:27:00,82.8,70.7,29.98,NW,310,9.0,12.0,67,0.00,,---,0.00,VWS V14.01,2013-07-07 13:27:00,
2013-07-07 09:28:00,83.0,70.9,29.98,NW,311,9.0,12.0,67,0.00,,---,0.00,VWS V14.01,2013-07-07 13:28:00,
2013-07-07 09:29:00,83.1,71.0,29.98,NW,311,9.0,12.0,67,0.00,,---,0.00,VWS V14.01,2013-07-07 13:29:00,
2013-07-07 09:30:00,83.3,71.2,29.98,NW,312,9.0,12.0,67,0.00,,---,0.00,VWS V14.01,2013-07-07 13:30:00,
2013-07-07 09:31:00,83.5,70.9,29.98,NW,311,9.0,9.0,66,0.00,,---,0.00,VWS V14.01,2013-07-07 13:31:00,
2013-07-07 09:32:00,83.6,71.1,29.98,NW,311,8.0,9.0,66,0.00,,---,0.00,VWS V14.01,2013-07-07 13:32:00,
2013-07-07 09:33:00,83.7,71.1,29.98,NW,312,9.0,10.0,66,0.00,,---,0.00,VWS V14.01,2013-07-07 13:33:00,
2013-07-07 09:34:00,83.8,71.2,29.98,NW,309,8.0,10.0,66,0.00,,---,0.00,VWS V14.01,2013-07-07 13:34:00,
2013-07-07 09:35:00,83.8,71.2,29.98,NW,307,10.0,10.0,66,0.00,,---,0.00,VWS V14.01,2013-07-07 13:35:00,
2013-07-07 09:36:00,83.8,71.2,29.98,WNW,300,9.0,10.0,66,0.00,,---,0.00,VWS V14.01,2013-07-07 13:36:00,
2013-07-07 09:37:00,83.8,71.2,29.97,WNW,300,5.0,10.0,66,0.00,,---,0.00,VWS V14.01,2013-07-07 13:37:00,
2013-07-07 09:38:00,83.9,71.3,29.97,WNW,301,6.0,10.0,66,0.00,,---,0.00,VWS V14.01,2013-07-07 13:38:00,
2013-07-07 09:39:00,84.0,71.0,29.98,WNW,298,8.0,10.0,65,0.00,,---,0.00,VWS V14.01,2013-07-07 13:39:00,
2013-07-07 09:40:00,84.1,71.5,29.97,WNW,301,7.0,10.0,66,0.00,,---,0.00,VWS V14.01,2013-07-07 13:40:00,
2013-07-07 09:41:00,84.1,71.1,29.97,WNW,300,6.0,10.0,65,0.00,,---,0.00,VWS V14.01,2013-07-07 13:41:00,
2013-07-07 09:42:00,83.8,70.8,29.98,NW,308,9.0,10.0,65,0.00,,---,0.00,VWS V14.01,2013-07-07 13:42:00,
2013-07-07 09:43:00,83.6,70.6,29.98,WNW,296,8.0,10.0,65,0.00,,---,0.00,VWS V14.01,2013-07-07 13:43:00,
2013-07-07 09:44:00,83.5,70.9,29.97,WNW,296,8.0,10.0,66,0.00,,---,0.00,VWS V14.01,2013-07-07 13:44:00,
2013-07-07 09:45:00,83.5,70.9,29.97,WNW,298,6.0,10.0,66,0.00,,---,0.00,VWS V14.01,2013-07-07 13:45:00,
2013-07-07 09:46:00,83.8,71.2,29.97,WNW,293,7.0,10.0,66,0.00,,---,0.00,VWS V14.01,2013-07-07 13:46:00,
2013-07-07 09:47:00,83.9,70.9,29.97,NW,325,5.0,10.0,65,0.00,,---,0.00,VWS V14.01,2013-07-07 13:47:00,
2013-07-07 09:48:00,83.9,70.9,29.97,NW,312,4.0,10.0,65,0.00,,---,0.00,VWS V14.01,2013-07-07 13:48:00,
2013-07-07 09:49:00,83.7,70.7,29.97,NW,312,5.0,10.0,65,0.00,,---,0.00,VWS V14.01,2013-07-07 13:49:00,
2013-07-07 09:50:00,83.6,71.1,29.97,NW,310,4.0,10.0,66,0.00,,---,0.00,VWS V14.01,2013-07-07 13:50:00,
2013-07-07 09:51:00,83.4,70.9,29.97,NW,310,4.0,10.0,66,0.00,,---,0.00,VWS V14.01,2013-07-07 13:51:00,
2013-07-07 09:52:00,83.2,70.7,29.97,NW,309,5.0,10.0,66,0.00,,---,0.00,VWS V14.01,2013-07-07 13:52:00,
2013-07-07 09:53:00,83.2,71.1,29.97,WNW,299,6.0,10.0,67,0.00,,---,0.00,VWS V14.01,2013-07-07 13:53:00,
2013-07-07 09:54:00,83.2,71.1,29.97,WNW,296,7.0,10.0,67,0.00,,---,0.00,VWS V14.01,2013-07-07 13:54:00,
2013-07-07 09:55:00,83.2,71.1,29.97,WNW,290,6.0,10.0,67,0.00,,---,0.00,VWS V14.01,2013-07-07 13:55:00,
2013-07-07 09:56:00,83.1,70.6,29.97,NW,304,6.0,10.0,66,0.00,,---,0.00,VWS V14.01,2013-07-07 13:56:00,
2013-07-07 09:57:00,83.1,70.6,29.97,NW,304,6.0,10.0,66,0.00,,---,0.00,VWS V14.01,2013-07-07 13:57:00,
2013-07-07 09:58:00,83.1,71.0,29.97,WNW,300,7.0,10.0,67,0.00,,---,0.00,VWS V14.01,2013-07-07 13:58:00,
2013-07-07 09:59:00,83.0,70.5,29.97,WNW,296,7.0,10.0,66,0.00,,---,0.00,VWS V14.01,2013-07-07 13:59:00,
2013-07-07 10:00:00,82.9,70.8,29.97,WNW,293,6.0,10.0,67,0.00,,---,0.00,VWS V14.01,2013-07-07 14:00:00,
2013-07-07 10:01:00,82.9,70.8,29.97,WNW,293,5.0,7.0,67,0.00,,---,0.00,VWS V14.01,2013-07-07 14:01:00,
2013-07-07 10:02:00,82.8,70.7,29.97,WNW,293,4.0,7.0,67,0.00,,---,0.00,VWS V14.01,2013-07-07 14:02:00,
2013-07-07 10:03:00,82.8,70.7,29.97,WNW,294,4.0,7.0,67,0.00,,---,0.00,VWS V14.01,2013-07-07 14:03:00,
2013-07-07 10:04:00,82.7,70.6,29.97,WNW,294,5.0,7.0,67,0.00,,---,0.00,VWS V14.01,2013-07-07 14:04:00,
2013-07-07 10:05:00,82.5,70.4,29.97,WNW,298,3.0,7.0,67,0.00,,---,0.00,VWS V14.01,2013-07-07 14:05:00,
2013-07-07 10:06:00,82.4,70.8,29.97,WNW,300,4.0,7.0,68,0.00,,---,0.00,VWS V14.01,2013-07-07 14:06:00,
2013-07-07 10:07:00,82.3,70.7,29.97,NW,323,5.0,7.0,68,0.00,,---,0.00,VWS V14.01,2013-07-07 14:07:00,
2013-07-07 10:08:00,82.1,70.5,29.97,NW,321,9.0,10.0,68,0.00,,---,0.00,VWS V14.01,2013-07-07 14:08:00,
2013-07-07 10:09:00,81.9,70.3,29.97,NW,314,9.0,10.0,68,0.00,,---,0.00,VWS V14.01,2013-07-07 14:09:00,
2013-07-07 10:10:00,81.9,70.7,29.97,NW,313,9.0,10.0,69,0.00,,---,0.00,VWS V14.01,2013-07-07 14:10:00,
2013-07-07 10:11:00,81.8,70.6,29.97,NW,313,9.0,10.0,69,0.00,,---,0.00,VWS V14.01,2013-07-07 14:11:00,
2013-07-07 10:12:00,81.8,70.6,29.97,NW,315,7.0,10.0,69,0.00,,---,0.00,VWS V14.01,2013-07-07 14:12:00,
2013-07-07 10:13:00,81.7,70.6,29.96,NW,313,8.0,10.0,69,0.00,,---,0.00,VWS V14.01,2013-07-07 14:13:00,
2013-07-07 10:14:00,81.6,70.4,29.96,NW,315,7.0,10.0,69,0.00,,---,0.00,VWS V14.01,2013-07-07 14:14:00,
2013-07-07 10:15:00,81.4,70.3,29.96,NW,320,7.0,10.0,69,0.00,,---,0.00,VWS V14.01,2013-07-07 14:15:00,
2013-07-07 10:16:00,81.4,70.3,29.96,NNW,332,9.0,10.0,69,0.00,,---,0.00,VWS V14.01,2013-07-07 14:16:00,
2013-07-07 10:17:00,81.3,70.6,29.96,NNW,329,5.0,10.0,70,0.00,,---,0.00,VWS V14.01,2013-07-07 14:17:00,
2013-07-07 10:18:00,81.2,70.5,29.96,NW,323,6.0,10.0,70,0.00,,---,0.00,VWS V14.01,2013-07-07 14:18:00,
2013-07-07 10:19:00,81.2,70.5,29.96,NW,324,7.0,10.0,70,0.00,,---,0.00,VWS V14.01,2013-07-07 14:19:00,
2013-07-07 10:20:00,81.3,70.6,29.96,NW,325,6.0,10.0,70,0.00,,---,0.00,VWS V14.01,2013-07-07 14:20:00,
2013-07-07 10:21:00,81.5,70.8,29.96,NW,325,6.0,10.0,70,0.00,,---,0.00,VWS V14.01,2013-07-07 14:21:00,
2013-07-07 10:22:00,81.8,71.1,29.96,NW,317,7.0,10.0,70,0.00,,---,0.00,VWS V14.01,2013-07-07 14:22:00,
2013-07-07 10:23:00,82.1,70.9,29.96,NW,313,6.0,10.0,69,0.00,,---,0.00,VWS V14.01,2013-07-07 14:23:00,
2013-07-07 10:24:00,82.2,71.0,29.96,NW,313,6.0,10.0,69,0.00,,---,0.00,VWS V14.01,2013-07-07 14:24:00,
2013-07-07 10:25:00,82.4,71.2,29.96,NW,313,4.0,10.0,69,0.00,,---,0.00,VWS V14.01,2013-07-07 14:25:00,
2013-07-07 10:26:00,82.7,71.5,29.96,NW,313,5.0,10.0,69,0.00,,---,0.00,VWS V14.01,2013-07-07 14:26:00,
2013-07-07 10:27:00,82.9,71.3,29.96,NW,313,4.0,10.0,68,0.00,,---,0.00,VWS V14.01,2013-07-07 14:27:00,
2013-07-07 10:28:00,83.0,71.4,29.96,NW,313,5.0,10.0,68,0.00,,---,0.00,VWS V14.01,2013-07-07 14:28:00,
2013-07-07 10:29:00,83.0,70.9,29.96,NW,315,4.0,10.0,67,0.00,,---,0.00,VWS V14.01,2013-07-07 14:29:00,
2013-07-07 10:30:00,82.9,70.8,29.96,NW,308,5.0,10.0,67,0.00,,---,0.00,VWS V14.01,2013-07-07 14:30:00,
2013-07-07 10:31:00,82.9,70.8,29.96,NW,316,3.0,5.0,67,0.00,,---,0.00,VWS V14.01,2013-07-07 14:31:00,
2013-07-07 10:32:00,82.8,70.7,29.96,NW,319,5.0,6.0,67,0.00,,---,0.00,VWS V14.01,2013-07-07 14:32:00,
2013-07-07 10:33:00,82.7,70.6,29.96,NW,321,6.0,7.0,67,0.00,,---,0.00,VWS V14.01,2013-07-07 14:33:00,
2013-07-07 10:34:00,82.5,70.9,29.96,NW,321,4.0,7.0,68,0.00,,---,0.00,VWS V14.01,2013-07-07 14:34:00,
2013-07-07 10:35:00,82.5,70.9,29.96,NW,321,4.0,7.0,68,0.00,,---,0.00,VWS V14.01,2013-07-07 14:35:00,
2013-07-07 10:36:00,82.4,70.8,29.96,NNW,327,4.0,7.0,68,0.00,,---,0.00,VWS V14.01,2013-07-07 14:36:00,
2013-07-07 10:37:00,82.4,70.8,29.95,NNW,327,3.0,7.0,68,0.00,,---,0.00,VWS V14.01,2013-07-07 14:37:00,
2013-07-07 10:38:00,82.4,70.8,29.96,NW,304,4.0,7.0,68,0.00,,---,0.00,VWS V14.01,2013-07-07 14:38:00,
2013-07-07 10:39:00,82.5,71.3,29.96,NW,304,2.0,7.0,69,0.00,,---,0.00,VWS V14.01,2013-07-07 14:39:00,
2013-07-07 10:40:00,82.5,70.9,29.95,NW,304,4.0,7.0,68,0.00,,---,0.00,VWS V14.01,2013-07-07 14:40:00,
2013-07-07 10:41:00,82.6,71.0,29.95,NW,308,4.0,7.0,68,0.00,,---,0.00,VWS V14.01,2013-07-07 14:41:00,
2013-07-07 10:42:00,82.7,71.5,29.95,NW,324,5.0,7.0,69,0.00,,---,0.00,VWS V14.01,2013-07-07 14:42:00,
2013-07-07 10:43:00,82.9,71.7,29.95,NNW,327,6.0,7.0,69,0.00,,---,0.00,VWS V14.01,2013-07-07 14:43:00,
2013-07-07 10:44:00,83.1,71.4,29.95,WNW,300,2.0,8.0,68,0.00,,---,0.00,VWS V14.01,2013-07-07 14:44:00,
2013-07-07 10:45:00,83.5,71.8,29.95,WNW,300,3.0,8.0,68,0.00,,---,0.00,VWS V14.01,2013-07-07 14:45:00,
2013-07-07 10:46:00,83.8,71.7,29.95,WNW,303,2.0,8.0,67,0.00,,---,0.00,VWS V14.01,2013-07-07 14:46:00,
2013-07-07 10:47:00,84.1,72.0,29.95,WNW,303,6.0,8.0,67,0.00,,---,0.00,VWS V14.01,2013-07-07 14:47:00,
2013-07-07 10:48:00,84.2,71.6,29.95,NW,315,5.0,8.0,66,0.00,,---,0.00,VWS V14.01,2013-07-07 14:48:00,
2013-07-07 10:49:00,84.4,71.8,29.95,NW,322,3.0,8.0,66,0.00,,---,0.00,VWS V14.01,2013-07-07 14:49:00,
2013-07-07 10:50:00,84.6,72.0,29.95,NW,322,4.0,8.0,66,0.00,,---,0.00,VWS V14.01,2013-07-07 14:50:00,
2013-07-07 10:51:00,84.7,71.6,29.95,NW,322,2.0,8.0,65,0.00,,---,0.00,VWS V14.01,2013-07-07 14:51:00,
2013-07-07 10:52:00,84.8,71.7,29.95,NW,323,3.0,8.0,65,0.00,,---,0.00,VWS V14.01,2013-07-07 14:52:00,
2013-07-07 10:53:00,84.8,71.7,29.95,NW,323,0.0,8.0,65,0.00,,---,0.00,VWS V14.01,2013-07-07 14:53:00,
2013-07-07 10:54:00,84.9,71.8,29.95,NW,323,0.0,8.0,65,0.00,,---,0.00,VWS V14.01,2013-07-07 14:54:00,
2013-07-07 10:55:00,85.0,72.4,29.95,East,101,2.0,8.0,66,0.00,,---,0.00,VWS V14.01,2013-07-07 14:55:00,
2013-07-07 10:56:00,85.2,72.6,29.95,ESE,102,0.0,8.0,66,0.00,,---,0.00,VWS V14.01,2013-07-07 14:56:00,
2013-07-07 10:57:00,85.3,73.1,29.95,ESE,102,0.0,8.0,67,0.00,,---,0.00,VWS V14.01,2013-07-07 14:57:00,
2013-07-07 10:58:00,85.5,72.8,29.95,ESE,102,0.0,8.0,66,0.00,,---,0.00,VWS V14.01,2013-07-07 14:58:00,
2013-07-07 10:59:00,85.5,72.4,29.95,SE,137,4.0,8.0,65,0.00,,---,0.00,VWS V14.01,2013-07-07 14:59:00,
2013-07-07 11:00:00,85.5,72.4,29.95,ESE,109,0.0,9.0,65,0.00,,---,0.00,VWS V14.01,2013-07-07 15:00:00,
2013-07-07 11:01:00,85.6,72.0,29.95,East,98,0.0,8.0,64,0.00,,---,0.00,VWS V14.01,2013-07-07 15:01:00,
2013-07-07 11:02:00,85.6,72.0,29.95,ESE,123,0.0,8.0,64,0.00,,---,0.00,VWS V14.01,2013-07-07 15:02:00,
2013-07-07 11:03:00,85.5,71.9,29.95,ESE,105,0.0,8.0,64,0.00,,---,0.00,VWS V14.01,2013-07-07 15:03:00,
2013-07-07 11:04:00,85.4,71.4,29.95,ENE,71,0.0,8.0,63,0.00,,---,0.00,VWS V14.01,2013-07-07 15:04:00,
2013-07-07 11:05:00,85.3,71.3,29.95,ENE,67,0.0,8.0,63,0.00,,---,0.00,VWS V14.01,2013-07-07 15:05:00,
2013-07-07 11:06:00,85.0,71.0,29.95,SSE,150,0.0,8.0,63,0.00,,---,0.00,VWS V14.01,2013-07-07 15:06:00,
2013-07-07 11:07:00,84.8,70.8,29.95,SE,144,0.0,8.0,63,0.00,,---,0.00,VWS V14.01,2013-07-07 15:07:00,
2013-07-07 11:08:00,84.8,70.8,29.95,ESE,102,0.0,8.0,63,0.00,,---,0.00,VWS V14.01,2013-07-07 15:08:00,
2013-07-07 11:09:00,84.7,70.7,29.95,ESE,106,0.0,8.0,63,0.00,,---,0.00,VWS V14.01,2013-07-07 15:09:00,
2013-07-07 11:10:00,84.6,70.6,29.95,ENE,73,0.0,8.0,63,0.00,,---,0.00,VWS V14.01,2013-07-07 15:10:00,
2013-07-07 11:11:00,84.6,71.1,29.95,SSE,161,0.0,8.0,64,0.00,,---,0.00,VWS V14.01,2013-07-07 15:11:00,
2013-07-07 11:12:00,84.6,70.6,29.95,ESE,119,0.0,8.0,63,0.00,,---,0.00,VWS V14.01,2013-07-07 15:12:00,
2013-07-07 11:13:00,84.6,71.1,29.95,ESE,104,0.0,8.0,64,0.00,,---,0.00,VWS V14.01,2013-07-07 15:13:00,
2013-07-07 11:14:00,84.6,70.6,29.95,ESE,122,0.0,8.0,63,0.00,,---,0.00,VWS V14.01,2013-07-07 15:14:00,
2013-07-07 11:15:00,84.7,71.2,29.95,ESE,110,0.0,8.0,64,0.00,,---,0.00,VWS V14.01,2013-07-07 15:15:00,
2013-07-07 11:16:00,84.8,71.3,29.95,ESE,104,0.0,8.0,64,0.00,,---,0.00,VWS V14.01,2013-07-07 15:16:00,
2013-07-07 11:17:00,84.9,71.8,29.94,ESE,106,0.0,8.0,65,0.00,,---,0.00,VWS V14.01,2013-07-07 15:17:00,
2013-07-07 11:18:00,85.1,71.6,29.94,ESE,106,0.0,8.0,64,0.00,,---,0.00,VWS V14.01,2013-07-07 15:18:00,
2013-07-07 11:19:00,85.2,71.7,29.94,ESE,106,0.0,8.0,64,0.00,,---,0.00,VWS V14.01,2013-07-07 15:19:00,
2013-07-07 11:20:00,85.3,72.2,29.94,ESE,106,0.0,8.0,65,0.00,,---,0.00,VWS V14.01,2013-07-07 15:20:00,
2013-07-07 11:21:00,85.5,72.4,29.94,East,95,0.0,8.0,65,0.00,,---,0.00,VWS V14.01,2013-07-07 15:21:00,
2013-07-07 11:22:00,85.7,72.6,29.94,East,84,1.0,8.0,65,0.00,,---,0.00,VWS V14.01,2013-07-07 15:22:00,
2013-07-07 11:23:00,85.9,72.8,29.94,East,86,2.0,8.0,65,0.00,,---,0.00,VWS V14.01,2013-07-07 15:23:00,
2013-07-07 11:24:00,86.1,73.0,29.94,East,91,1.0,8.0,65,0.00,,---,0.00,VWS V14.01,2013-07-07 15:24:00,
2013-07-07 11:25:00,86.4,73.2,29.94,ESE,118,0.0,8.0,65,0.00,,---,0.00,VWS V14.01,2013-07-07 15:25:00,
2013-07-07 11:26:00,86.6,73.4,29.94,ESE,118,0.0,8.0,65,0.00,,---,0.00,VWS V14.01,2013-07-07 15:26:00,
2013-07-07 11:27:00,86.8,73.2,29.93,East,97,0.0,8.0,64,0.00,,---,0.00,VWS V14.01,2013-07-07 15:27:00,
2013-07-07 11:28:00,87.1,73.4,29.93,East,97,0.0,8.0,64,0.00,,---,0.00,VWS V14.01,2013-07-07 15:28:00,
2013-07-07 11:29:00,87.3,73.6,29.93,East,97,0.0,8.0,64,0.00,,---,0.00,VWS V14.01,2013-07-07 15:29:00,
2013-07-07 11:30:00,87.4,73.3,29.93,East,99,0.0,8.0,63,0.00,,---,0.00,VWS V14.01,2013-07-07 15:30:00,
2013-07-07 11:31:00,87.5,72.9,29.93,East,84,0.0,3.0,62,0.00,,---,0.00,VWS V14.01,2013-07-07 15:31:00,
2013-07-07 11:32:00,87.6,73.0,29.93,East,101,1.0,5.0,62,0.00,,---,0.00,VWS V14.01,2013-07-07 15:32:00,
2013-07-07 11:33:00,87.7,72.6,29.93,ESE,102,0.0,5.0,61,0.00,,---,0.00,VWS V14.01,2013-07-07 15:33:00,
2013-07-07 11:34:00,87.7,71.6,29.93,SE,138,0.0,7.0,59,0.00,,---,0.00,VWS V14.01,2013-07-07 15:34:00,
2013-07-07 11:35:00,87.6,71.0,29.93,ESE,112,0.0,7.0,58,0.00,,---,0.00,VWS V14.01,2013-07-07 15:35:00,
2013-07-07 11:36:00,87.4,70.8,29.93,ESE,108,0.0,7.0,58,0.00,,---,0.00,VWS V14.01,2013-07-07 15:36:00,
2013-07-07 11:37:00,87.2,70.6,29.93,East,87,2.0,7.0,58,0.00,,---,0.00,VWS V14.01,2013-07-07 15:37:00,
2013-07-07 11:38:00,87.1,70.0,29.93,SE,140,2.0,7.0,57,0.00,,---,0.00,VWS V14.01,2013-07-07 15:38:00,
2013-07-07 11:39:00,87.0,69.9,29.93,SE,125,0.0,7.0,57,0.00,,---,0.00,VWS V14.01,2013-07-07 15:39:00,
2013-07-07 11:40:00,86.8,70.3,29.93,ENE,73,7.0,7.0,58,0.00,,---,0.00,VWS V14.01,2013-07-07 15:40:00,
2013-07-07 11:41:00,86.6,70.6,29.93,SSE,150,0.0,7.0,59,0.00,,---,0.00,VWS V14.01,2013-07-07 15:41:00,
2013-07-07 11:42:00,86.3,70.3,29.93,ESE,107,2.0,7.0,59,0.00,,---,0.00,VWS V14.01,2013-07-07 15:42:00,
2013-07-07 11:43:00,85.9,70.4,29.93,ENE,76,1.0,7.0,60,0.00,,---,0.00,VWS V14.01,2013-07-07 15:43:00,
2013-07-07 11:44:00,85.5,70.0,29.93,East,96,2.0,7.0,60,0.00,,---,0.00,VWS V14.01,2013-07-07 15:44:00,
2013-07-07 11:45:00,85.1,69.7,29.93,ESE,114,7.0,7.0,60,0.00,,---,0.00,VWS V14.01,2013-07-07 15:45:00,
2013-07-07 11:46:00,84.8,69.4,29.93,South,178,0.0,7.0,60,0.00,,---,0.00,VWS V14.01,2013-07-07 15:46:00,
2013-07-07 11:47:00,84.7,68.8,29.92,SE,132,0.0,7.0,59,0.00,,---,0.00,VWS V14.01,2013-07-07 15:47:00,
2013-07-07 11:48:00,84.6,68.7,29.92,SE,130,0.0,7.0,59,0.00,,---,0.00,VWS V14.01,2013-07-07 15:48:00,
2013-07-07 11:49:00,84.6,68.7,29.93,East,98,0.0,7.0,59,0.00,,---,0.00,VWS V14.01,2013-07-07 15:49:00,
2013-07-07 11:50:00,84.7,69.3,29.93,SE,124,0.0,7.0,60,0.00,,---,0.00,VWS V14.01,2013-07-07 15:50:00,
2013-07-07 11:51:00,84.8,69.4,29.93,NNE,32,1.0,7.0,60,0.00,,---,0.00,VWS V14.01,2013-07-07 15:51:00,
2013-07-07 11:52:00,85.0,69.1,29.93,SSE,152,0.0,7.0,59,0.00,,---,0.00,VWS V14.01,2013-07-07 15:52:00,
2013-07-07 11:53:00,85.2,69.3,29.93,ESE,117,0.0,7.0,59,0.00,,---,0.00,VWS V14.01,2013-07-07 15:53:00,
2013-07-07 11:54:00,85.4,69.0,29.93,ESE,106,0.0,7.0,58,0.00,,---,0.00,VWS V14.01,2013-07-07 15:54:00,
2013-07-07 11:55:00,85.5,69.1,29.93,ESE,104,0.0,7.0,58,0.00,,---,0.00,VWS V14.01,2013-07-07 15:55:00,
2013-07-07 11:56:00,85.7,69.2,29.93,ESE,119,0.0,7.0,58,0.00,,---,0.00,VWS V14.01,2013-07-07 15:56:00,
2013-07-07 11:57:00,85.7,68.7,29.93,SE,130,0.0,7.0,57,0.00,,---,0.00,VWS V14.01,2013-07-07 15:57:00,
2013-07-07 11:58:00,85.7,68.7,29.93,NE,53,0.0,7.0,57,0.00,,---,0.00,VWS V14.01,2013-07-07 15:58:00,
2013-07-07 11:59:00,85.6,68.6,29.93,East,92,0.0,7.0,57,0.00,,---,0.00,VWS V14.01,2013-07-07 15:59:00,
2013-07-07 12:00:00,85.6,68.6,29.93,ESE,107,0.0,7.0,57,0.00,,---,0.00,VWS V14.01,2013-07-07 16:00:00,
2013-07-07 12:01:00,85.6,68.6,29.93,SE,130,0.0,2.0,57,0.00,,---,0.00,VWS V14.01,2013-07-07 16:01:00,
2013-07-07 12:02:00,85.6,69.1,29.93,East,99,0.0,2.0,58,0.00,,---,0.00,VWS V14.01,2013-07-07 16:02:00,
2013-07-07 12:03:00,85.7,69.2,29.93,ENE,57,0.0,4.0,58,0.00,,---,0.00,VWS V14.01,2013-07-07 16:03:00,
2013-07-07 12:04:00,85.7,69.2,29.93,ESE,122,0.0,4.0,58,0.00,,---,0.00,VWS V14.01,2013-07-07 16:04:00,
2013-07-07 12:05:00,85.8,69.3,29.93,ESE,112,0.0,4.0,58,0.00,,---,0.00,VWS V14.01,2013-07-07 16:05:00,
2013-07-07 12:06:00,86.0,69.5,29.93,ESE,113,0.0,4.0,58,0.00,,---,0.00,VWS V14.01,2013-07-07 16:06:00,
2013-07-07 12:07:00,86.1,69.6,29.93,East,84,0.0,6.0,58,0.00,,---,0.00,VWS V14.01,2013-07-07 16:07:00,
2013-07-07 12:08:00,86.2,69.7,29.93,East,87,2.0,6.0,58,0.00,,---,0.00,VWS V14.01,2013-07-07 16:08:00,
2013-07-07 12:09:00,86.3,69.8,29.93,ESE,116,0.0,6.0,58,0.00,,---,0.00,VWS V14.01,2013-07-07 16:09:00,
2013-07-07 12:10:00,86.5,70.0,29.93,East,96,0.0,6.0,58,0.00,,---,0.00,VWS V14.01,2013-07-07 16:10:00,
2013-07-07 12:11:00,86.6,70.1,29.93,ENE,66,5.0,6.0,58,0.00,,---,0.00,VWS V14.01,2013-07-07 16:11:00,
2013-07-07 12:12:00,86.7,70.2,29.93,ENE,66,0.0,6.0,58,0.00,,---,0.00,VWS V14.01,2013-07-07 16:12:00,
2013-07-07 12:13:00,86.8,70.3,29.93,SE,132,0.0,6.0,58,0.00,,---,0.00,VWS V14.01,2013-07-07 16:13:00,
2013-07-07 12:14:00,86.9,70.4,29.93,ESE,109,0.0,6.0,58,0.00,,---,0.00,VWS V14.01,2013-07-07 16:14:00,
2013-07-07 12:15:00,86.9,70.4,29.93,ESE,109,0.0,6.0,58,0.00,,---,0.00,VWS V14.01,2013-07-07 16:15:00,
2013-07-07 12:16:00,87.0,70.4,29.93,ESE,109,0.0,6.0,58,0.00,,---,0.00,VWS V14.01,2013-07-07 16:16:00,
2013-07-07 12:17:00,87.1,70.5,29.93,ESE,109,0.0,6.0,58,0.00,,---,0.00,VWS V14.01,2013-07-07 16:17:00,
2013-07-07 12:18:00,87.1,71.0,29.93,ESE,109,0.0,6.0,59,0.00,,---,0.00,VWS V14.01,2013-07-07 16:18:00,
2013-07-07 12:19:00,87.2,71.1,29.93,ESE,109,0.0,6.0,59,0.00,,---,0.00,VWS V14.01,2013-07-07 16:19:00,
2013-07-07 12:20:00,87.4,71.3,29.93,ESE,109,0.0,6.0,59,0.00,,---,0.00,VWS V14.01,2013-07-07 16:20:00,
2013-07-07 12:21:00,87.5,70.9,29.93,ESE,109,0.0,6.0,58,0.00,,---,0.00,VWS V14.01,2013-07-07 16:21:00,
2013-07-07 12:22:00,87.5,70.9,29.93,ESE,109,0.0,6.0,58,0.00,,---,0.00,VWS V14.01,2013-07-07 16:22:00,
2013-07-07 12:23:00,87.5,70.9,29.93,ESE,109,0.0,6.0,58,0.00,,---,0.00,VWS V14.01,2013-07-07 16:23:00,
2013-07-07 12:24:00,87.5,70.9,29.93,East,83,0.0,6.0,58,0.00,,---,0.00,VWS V14.01,2013-07-07 16:24:00,
2013-07-07 12:25:00,87.5,70.4,29.93,ENE,69,0.0,6.0,57,0.00,,---,0.00,VWS V14.01,2013-07-07 16:25:00,
2013-07-07 12:26:00,87.4,70.8,29.93,NE,56,0.0,6.0,58,0.00,,---,0.00,VWS V14.01,2013-07-07 16:26:00,
2013-07-07 12:27:00,87.4,70.8,29.93,East,98,0.0,6.0,58,0.00,,---,0.00,VWS V14.01,2013-07-07 16:27:00,
2013-07-07 12:28:00,87.3,71.2,29.93,East,98,0.0,6.0,59,0.00,,---,0.00,VWS V14.01,2013-07-07 16:28:00,
2013-07-07 12:29:00,87.3,70.7,29.93,ESE,118,1.0,6.0,58,0.00,,---,0.00,VWS V14.01,2013-07-07 16:29:00,
2013-07-07 12:30:00,87.3,71.2,29.93,ENE,74,0.0,6.0,59,0.00,,---,0.00,VWS V14.01,2013-07-07 16:30:00,
2013-07-07 12:31:00,87.2,70.6,29.93,SSE,151,0.0,2.0,58,0.00,,---,0.00,VWS V14.01,2013-07-07 16:31:00,
2013-07-07 12:32:00,87.1,70.5,29.93,NNE,28,0.0,5.0,58,0.00,,---,0.00,VWS V14.01,2013-07-07 16:32:00,
2013-07-07 12:33:00,86.8,70.3,29.93,ESE,121,0.0,5.0,58,0.00,,---,0.00,VWS V14.01,2013-07-07 16:33:00,
2013-07-07 12:34:00,86.6,70.1,29.93,ESE,122,1.0,6.0,58,0.00,,---,0.00,VWS V14.01,2013-07-07 16:34:00,
2013-07-07 12:35:00,86.3,69.8,29.93,ESE,115,0.0,6.0,58,0.00,,---,0.00,VWS V14.01,2013-07-07 16:35:00,
2013-07-07 12:36:00,86.0,69.5,29.93,East,101,2.0,6.0,58,0.00,,---,0.00,VWS V14.01,2013-07-07 16:36:00,
2013-07-07 12:37:00,85.7,69.7,29.92,NE,54,0.0,6.0,59,0.00,,---,0.00,VWS V14.01,2013-07-07 16:37:00,
2013-07-07 12:38:00,85.6,69.6,29.92,ENE,62,0.0,6.0,59,0.00,,---,0.00,VWS V14.01,2013-07-07 16:38:00,
2013-07-07 12:39:00,85.4,69.9,29.92,ESE,121,0.0,6.0,60,0.00,,---,0.00,VWS V14.01,2013-07-07 16:39:00,
2013-07-07 12:40:00,85.4,69.9,29.92,SE,127,0.0,6.0,60,0.00,,---,0.00,VWS V14.01,2013-07-07 16:40:00,
2013-07-07 12:41:00,85.4,69.9,29.92,East,84,0.0,6.0,60,0.00,,---,0.00,VWS V14.01,2013-07-07 16:41:00,
2013-07-07 12:42:00,85.3,69.8,29.92,South,182,0.0,6.0,60,0.00,,---,0.00,VWS V14.01,2013-07-07 16:42:00,
2013-07-07 12:43:00,85.2,70.2,29.92,South,182,0.0,6.0,61,0.00,,---,0.00,VWS V14.01,2013-07-07 16:43:00,
2013-07-07 12:44:00,85.1,70.2,29.92,East,100,2.0,6.0,61,0.00,,---,0.00,VWS V14.01,2013-07-07 16:44:00,
2013-07-07 12:45:00,84.9,70.0,29.92,NNW,341,0.0,6.0,61,0.00,,---,0.00,VWS V14.01,2013-07-07 16:45:00,
2013-07-07 12:46:00,84.7,70.2,29.92,ESE,112,0.0,6.0,62,0.00,,---,0.00,VWS V14.01,2013-07-07 16:46:00,
2013-07-07 12:47:00,84.4,70.4,29.92,SE,131,1.0,6.0,63,0.00,,---,0.00,VWS V14.01,2013-07-07 16:47:00,
2013-07-07 12:48:00,84.1,70.2,29.92,ESE,113,4.0,7.0,63,0.00,,---,0.00,VWS V14.01,2013-07-07 16:48:00,
2013-07-07 12:49:00,83.7,70.2,29.92,ESE,112,0.0,7.0,64,0.00,,---,0.00,VWS V14.01,2013-07-07 16:49:00,
2013-07-07 12:50:00,83.4,70.4,29.92,ESE,114,0.0,7.0,65,0.00,,---,0.00,VWS V14.01,2013-07-07 16:50:00,
2013-07-07 12:51:00,83.2,70.2,29.92,ESE,114,0.0,7.0,65,0.00,,---,0.00,VWS V14.01,2013-07-07 16:51:00,
2013-07-07 12:52:00,82.9,70.4,29.92,ESE,114,0.0,7.0,66,0.00,,---,0.00,VWS V14.01,2013-07-07 16:52:00,
2013-07-07 12:53:00,82.6,70.1,29.92,ESE,114,0.0,7.0,66,0.00,,---,0.00,VWS V14.01,2013-07-07 16:53:00,
2013-07-07 12:54:00,82.2,69.7,29.92,East,82,0.0,7.0,66,0.00,,---,0.00,VWS V14.01,2013-07-07 16:54:00,
2013-07-07 12:55:00,81.8,69.8,29.92,North,355,0.0,7.0,67,0.00,,---,0.00,VWS V14.01,2013-07-07 16:55:00,
2013-07-07 12:56:00,81.4,69.8,29.92,NW,325,0.0,7.0,68,0.00,,---,0.00,VWS V14.01,2013-07-07 16:56:00,
2013-07-07 12:57:00,81.1,69.6,29.92,NNE,28,0.0,7.0,68,0.00,,---,0.00,VWS V14.01,2013-07-07 16:57:00,
2013-07-07 12:58:00,80.9,69.8,29.92,NNE,28,0.0,7.0,69,0.00,,---,0.00,VWS V14.01,2013-07-07 16:58:00,
2013-07-07 12:59:00,80.6,69.9,29.92,SE,131,1.0,7.0,70,0.00,,---,0.00,VWS V14.01,2013-07-07 16:59:00,
2013-07-07 13:00:00,80.4,69.7,29.92,SE,131,0.0,7.0,70,0.00,,---,0.00,VWS V14.01,2013-07-07 17:00:00,
2013-07-07 13:01:00,80.3,70.1,29.92,SE,132,0.0,0.0,71,0.00,,---,0.00,VWS V14.01,2013-07-07 17:01:00,
2013-07-07 13:02:00,80.2,69.9,29.92,SE,132,0.0,0.0,71,0.00,,---,0.00,VWS V14.01,2013-07-07 17:02:00,
2013-07-07 13:03:00,80.1,69.9,29.92,SE,132,0.0,0.0,71,0.00,,---,0.00,VWS V14.01,2013-07-07 17:03:00,
2013-07-07 13:04:00,79.9,69.7,29.92,SE,132,0.0,0.0,71,0.00,,---,0.00,VWS V14.01,2013-07-07 17:04:00,
2013-07-07 13:05:00,79.7,69.9,29.92,SE,132,0.0,0.0,72,0.00,,---,0.00,VWS V14.01,2013-07-07 17:05:00,
2013-07-07 13:06:00,79.6,69.8,29.92,SE,132,0.0,0.0,72,0.00,,---,0.00,VWS V14.01,2013-07-07 17:06:00,
2013-07-07 13:07:00,79.4,69.6,29.92,SE,132,0.0,0.0,72,0.00,,---,0.00,VWS V14.01,2013-07-07 17:07:00,
2013-07-07 13:08:00,79.4,70.0,29.92,SE,132,0.0,0.0,73,0.00,,---,0.00,VWS V14.01,2013-07-07 17:08:00,
2013-07-07 13:09:00,79.3,69.9,29.92,SE,138,0.0,3.0,73,0.00,,---,0.00,VWS V14.01,2013-07-07 17:09:00,
2013-07-07 13:10:00,79.2,69.8,29.92,SE,138,0.0,3.0,73,0.00,,---,0.00,VWS V14.01,2013-07-07 17:10:00,
2013-07-07 13:11:00,79.2,69.8,29.92,SSE,155,0.0,3.0,73,0.00,,---,0.00,VWS V14.01,2013-07-07 17:11:00,
2013-07-07 13:12:00,79.0,69.6,29.92,SSE,155,0.0,3.0,73,0.00,,---,0.00,VWS V14.01,2013-07-07 17:12:00,
2013-07-07 13:13:00,78.8,69.4,29.92,SSE,155,0.0,3.0,73,0.00,,---,0.00,VWS V14.01,2013-07-07 17:13:00,
2013-07-07 13:14:00,78.6,69.6,29.92,SSE,156,0.0,3.0,74,0.00,,---,0.00,VWS V14.01,2013-07-07 17:14:00,
2013-07-07 13:15:00,78.4,69.4,29.92,SSE,157,0.0,3.0,74,0.00,,---,0.00,VWS V14.01,2013-07-07 17:15:00,
2013-07-07 13:16:00,78.2,69.2,29.92,SSE,153,0.0,3.0,74,0.00,,---,0.00,VWS V14.01,2013-07-07 17:16:00,
2013-07-07 13:17:00,78.0,69.1,29.92,SE,138,0.0,3.0,74,0.00,,---,0.00,VWS V14.01,2013-07-07 17:17:00,
2013-07-07 13:18:00,77.8,69.2,29.91,South,174,0.0,3.0,75,0.00,,---,0.00,VWS V14.01,2013-07-07 17:18:00,
2013-07-07 13:19:00,77.5,69.0,29.91,West,263,2.0,3.0,75,0.00,,---,0.00,VWS V14.01,2013-07-07 17:19:00,
2013-07-07 13:20:00,77.3,68.8,29.91,NW,304,3.0,3.0,75,0.00,,---,0.00,VWS V14.01,2013-07-07 17:20:00,
2013-07-07 13:21:00,77.1,68.6,29.92,WNW,300,2.0,3.0,75,0.00,,---,0.00,VWS V14.01,2013-07-07 17:21:00,
2013-07-07 13:22:00,77.1,69.0,29.92,NNW,340,0.0,3.0,76,0.00,,---,0.00,VWS V14.01,2013-07-07 17:22:00,
2013-07-07 13:23:00,76.9,68.8,29.92,NNW,340,0.0,3.0,76,0.00,,---,0.00,VWS V14.01,2013-07-07 17:23:00,
2013-07-07 13:24:00,76.8,68.7,29.92,NNW,340,0.0,3.0,76,0.00,,---,0.00,VWS V14.01,2013-07-07 17:24:00,
2013-07-07 13:25:00,76.7,68.6,29.92,NNW,336,0.0,3.0,76,0.00,,---,0.00,VWS V14.01,2013-07-07 17:25:00,
2013-07-07 13:26:00,76.6,68.5,29.92,WSW,248,0.0,4.0,76,0.00,,---,0.00,VWS V14.01,2013-07-07 17:26:00,
2013-07-07 13:27:00,76.6,68.5,29.92,West,281,0.0,4.0,76,0.00,,---,0.00,VWS V14.01,2013-07-07 17:27:00,
2013-07-07 13:28:00,76.6,68.5,29.92,WNW,300,0.0,4.0,76,0.00,,---,0.00,VWS V14.01,2013-07-07 17:28:00,
2013-07-07 13:29:00,76.6,68.5,29.92,NW,306,0.0,4.0,76,0.00,,---,0.00,VWS V14.01,2013-07-07 17:29:00,
2013-07-07 13:30:00,76.5,68.8,29.92,NW,313,0.0,4.0,77,0.00,,---,0.00,VWS V14.01,2013-07-07 17:30:00,
2013-07-07 13:31:00,76.5,68.8,29.92,NW,317,0.0,1.0,77,0.00,,---,0.00,VWS V14.01,2013-07-07 17:31:00,
2013-07-07 13:32:00,76.5,68.8,29.92,NNW,327,0.0,3.0,77,0.00,,---,0.00,VWS V14.01,2013-07-07 17:32:00,
2013-07-07 13:33:00,76.4,68.7,29.92,North,355,0.0,3.0,77,0.00,,---,0.00,VWS V14.01,2013-07-07 17:33:00,
2013-07-07 13:34:00,76.4,68.7,29.92,North,355,0.0,3.0,77,0.00,,---,0.00,VWS V14.01,2013-07-07 17:34:00,
2013-07-07 13:35:00,76.4,68.7,29.92,North,350,0.0,3.0,77,0.00,,---,0.00,VWS V14.01,2013-07-07 17:35:00,
2013-07-07 13:36:00,76.4,68.7,29.92,NNW,338,0.0,3.0,77,0.00,,---,0.00,VWS V14.01,2013-07-07 17:36:00,
2013-07-07 13:37:00,76.4,68.7,29.92,NNW,338,0.0,3.0,77,0.00,,---,0.00,VWS V14.01,2013-07-07 17:37:00,
2013-07-07 13:38:00,76.4,68.7,29.92,NNE,30,0.0,3.0,77,0.00,,---,0.00,VWS V14.01,2013-07-07 17:38:00,
2013-07-07 13:39:00,76.3,68.6,29.92,NNE,28,0.0,3.0,77,0.00,,---,0.00,VWS V14.01,2013-07-07 17:39:00,
2013-07-07 13:40:00,76.2,68.5,29.93,NNE,26,0.0,3.0,77,0.00,,---,0.00,VWS V14.01,2013-07-07 17:40:00,
2013-07-07 13:41:00,76.2,68.5,29.92,NNE,26,0.0,3.0,77,0.00,,---,0.00,VWS V14.01,2013-07-07 17:41:00,
2013-07-07 13:42:00,76.2,68.5,29.93,SE,124,0.0,3.0,77,0.00,,---,0.00,VWS V14.01,2013-07-07 17:42:00,
2013-07-07 13:43:00,76.2,68.5,29.93,SE,126,0.0,3.0,77,0.00,,---,0.00,VWS V14.01,2013-07-07 17:43:00,
2013-07-07 13:44:00,76.2,68.5,29.93,South,171,0.0,3.0,77,0.00,,---,0.00,VWS V14.01,2013-07-07 17:44:00,
2013-07-07 13:45:00,76.2,68.1,29.93,South,187,4.0,4.0,76,0.00,,---,0.00,VWS V14.01,2013-07-07 17:45:00,
2013-07-07 13:46:00,76.2,68.1,29.93,SSE,167,0.0,4.0,76,0.00,,---,0.00,VWS V14.01,2013-07-07 17:46:00,
2013-07-07 13:47:00,76.3,68.2,29.92,SSW,192,2.0,4.0,76,0.00,,---,0.00,VWS V14.01,2013-07-07 17:47:00,
2013-07-07 13:48:00,76.3,68.2,29.92,South,171,1.0,4.0,76,0.00,,---,0.00,VWS V14.01,2013-07-07 17:48:00,
2013-07-07 13:49:00,76.4,68.3,29.92,SSE,167,0.0,4.0,76,0.00,,---,0.00,VWS V14.01,2013-07-07 17:49:00,
2013-07-07 13:50:00,76.5,68.4,29.92,South,179,3.0,6.0,76,0.00,,---,0.00,VWS V14.01,2013-07-07 17:50:00,
2013-07-07 13:51:00,76.6,68.1,29.92,South,171,2.0,6.0,75,0.00,,---,0.00,VWS V14.01,2013-07-07 17:51:00,
2013-07-07 13:52:00,76.6,68.1,29.92,South,178,3.0,6.0,75,0.00,,---,0.00,VWS V14.01,2013-07-07 17:52:00,
2013-07-07 13:53:00,76.8,68.3,29.92,SSW,196,0.0,6.0,75,0.00,,---,0.00,VWS V14.01,2013-07-07 17:53:00,
2013-07-07 13:54:00,76.9,68.4,29.92,SSE,165,0.0,6.0,75,0.00,,---,0.00,VWS V14.01,2013-07-07 17:54:00,
2013-07-07 13:55:00,77.0,68.5,29.92,South,185,0.0,6.0,75,0.00,,---,0.00,VWS V14.01,2013-07-07 17:55:00,
2013-07-07 13:56:00,77.1,68.2,29.92,South,188,0.0,6.0,74,0.00,,---,0.00,VWS V14.01,2013-07-07 17:56:00,
2013-07-07 13:57:00,77.1,68.2,29.92,SSW,200,2.0,6.0,74,0.00,,---,0.00,VWS V14.01,2013-07-07 17:57:00,
2013-07-07 13:58:00,77.2,68.3,29.92,South,191,0.0,6.0,74,0.00,,---,0.00,VWS V14.01,2013-07-07 17:58:00,
2013-07-07 13:59:00,77.2,68.3,29.92,SSW,198,0.0,6.0,74,0.00,,---,0.00,VWS V14.01,2013-07-07 17:59:00,
2013-07-07 14:00:00,77.2,68.3,29.92,SSW,211,0.0,6.0,74,0.00,,---,0.00,VWS V14.01,2013-07-07 18:00:00,
2013-07-07 14:01:00,77.2,68.3,29.92,SSW,211,0.0,0.0,74,0.00,,---,0.00,VWS V14.01,2013-07-07 18:01:00,
2013-07-07 14:02:00,77.2,68.3,29.92,SSW,212,0.0,3.0,74,0.00,,---,0.00,VWS V14.01,2013-07-07 18:02:00,
2013-07-07 14:03:00,77.2,68.3,29.92,SSW,212,0.0,3.0,74,0.00,,---,0.00,VWS V14.01,2013-07-07 18:03:00,
2013-07-07 14:04:00,77.2,68.3,29.91,SW,215,0.0,3.0,74,0.00,,---,0.00,VWS V14.01,2013-07-07 18:04:00,
2013-07-07 14:05:00,77.2,68.3,29.91,SW,215,0.0,3.0,74,0.00,,---,0.00,VWS V14.01,2013-07-07 18:05:00,
2013-07-07 14:06:00,77.2,68.7,29.91,SW,215,0.0,3.0,75,0.00,,---,0.00,VWS V14.01,2013-07-07 18:06:00,
2013-07-07 14:07:00,77.2,68.7,29.91,West,275,0.0,3.0,75,0.00,,---,0.00,VWS V14.01,2013-07-07 18:07:00,
2013-07-07 14:08:00,77.1,68.6,29.91,WNW,298,0.0,3.0,75,0.00,,---,0.00,VWS V14.01,2013-07-07 18:08:00,
2013-07-07 14:09:00,77.1,68.6,29.92,WNW,301,0.0,3.0,75,0.00,,---,0.00,VWS V14.01,2013-07-07 18:09:00,
2013-07-07 14:10:00,77.1,68.6,29.92,WNW,302,0.0,3.0,75,0.00,,---,0.00,VWS V14.01,2013-07-07 18:10:00,
2013-07-07 14:11:00,77.0,68.5,29.92,WNW,302,0.0,3.0,75,0.00,,---,0.00,VWS V14.01,2013-07-07 18:11:00,
2013-07-07 14:12:00,77.0,68.5,29.92,WNW,302,0.0,3.0,75,0.00,,---,0.00,VWS V14.01,2013-07-07 18:12:00,
2013-07-07 14:13:00,76.9,68.4,29.92,WNW,302,0.0,3.0,75,0.00,,---,0.00,VWS V14.01,2013-07-07 18:13:00,
2013-07-07 14:14:00,76.9,68.4,29.92,West,277,0.0,3.0,75,0.00,,---,0.00,VWS V14.01,2013-07-07 18:14:00,
2013-07-07 14:15:00,76.9,68.4,29.92,WNW,283,0.0,3.0,75,0.00,,---,0.00,VWS V14.01,2013-07-07 18:15:00,
2013-07-07 14:16:00,76.9,68.4,29.92,WNW,285,0.0,3.0,75,0.00,,---,0.00,VWS V14.01,2013-07-07 18:16:00,
2013-07-07 14:17:00,76.9,68.4,29.92,WNW,285,0.0,3.0,75,0.00,,---,0.00,VWS V14.01,2013-07-07 18:17:00,
2013-07-07 14:18:00,76.9,68.4,29.92,West,273,0.0,4.0,75,0.00,,---,0.00,VWS V14.01,2013-07-07 18:18:00,
2013-07-07 14:19:00,77.0,68.5,29.92,WSW,253,0.0,4.0,75,0.00,,---,0.00,VWS V14.01,2013-07-07 18:19:00,
2013-07-07 14:20:00,77.0,68.5,29.92,WSW,253,0.0,4.0,75,0.00,,---,0.00,VWS V14.01,2013-07-07 18:20:00,
2013-07-07 14:21:00,77.0,68.5,29.92,West,271,0.0,4.0,75,0.00,,---,0.00,VWS V14.01,2013-07-07 18:21:00,
2013-07-07 14:22:00,77.0,68.5,29.92,West,271,0.0,4.0,75,0.00,,---,0.00,VWS V14.01,2013-07-07 18:22:00,
2013-07-07 14:23:00,77.0,68.5,29.92,West,269,0.0,4.0,75,0.00,,---,0.00,VWS V14.01,2013-07-07 18:23:00,
2013-07-07 14:24:00,77.0,68.5,29.92,West,268,0.0,4.0,75,0.00,,---,0.00,VWS V14.01,2013-07-07 18:24:00,
2013-07-07 14:25:00,76.9,68.4,29.92,WNW,292,0.0,4.0,75,0.00,,---,0.00,VWS V14.01,2013-07-07 18:25:00,
2013-07-07 14:26:00,76.9,68.4,29.92,WNW,292,0.0,4.0,75,0.00,,---,0.00,VWS V14.01,2013-07-07 18:26:00,
2013-07-07 14:27:00,76.8,68.3,29.92,West,271,0.0,4.0,75,0.00,,---,0.00,VWS V14.01,2013-07-07 18:27:00,
2013-07-07 14:28:00,76.7,68.6,29.92,NE,52,0.0,4.0,76,0.00,,---,0.00,VWS V14.01,2013-07-07 18:28:00,
2013-07-07 14:29:00,76.7,68.6,29.92,NNE,15,0.0,4.0,76,0.00,,---,0.00,VWS V14.01,2013-07-07 18:29:00,
2013-07-07 14:30:00,76.7,68.6,29.92,NNE,15,0.0,4.0,76,0.00,,---,0.00,VWS V14.01,2013-07-07 18:30:00,
2013-07-07 14:31:00,76.6,68.5,29.92,NNE,15,0.0,0.0,76,0.00,,---,0.00,VWS V14.01,2013-07-07 18:31:00,
2013-07-07 14:32:00,76.6,68.5,29.92,NNE,13,0.0,0.0,76,0.00,,---,0.00,VWS V14.01,2013-07-07 18:32:00,
2013-07-07 14:33:00,76.5,68.4,29.92,East,91,0.0,0.0,76,0.00,,---,0.00,VWS V14.01,2013-07-07 18:33:00,
2013-07-07 14:34:00,76.4,68.3,29.92,East,96,0.0,0.0,76,0.00,,---,0.00,VWS V14.01,2013-07-07 18:34:00,
2013-07-07 14:35:00,76.4,68.3,29.92,East,97,0.0,0.0,76,0.00,,---,0.00,VWS V14.01,2013-07-07 18:35:00,
2013-07-07 14:36:00,76.3,68.2,29.92,ESE,102,0.0,0.0,76,0.00,,---,0.00,VWS V14.01,2013-07-07 18:36:00,
2013-07-07 14:37:00,76.3,68.6,29.92,SW,221,0.0,0.0,77,0.00,,---,0.00,VWS V14.01,2013-07-07 18:37:00,
2013-07-07 14:38:00,76.3,68.6,29.92,SE,146,0.0,1.0,77,0.00,,---,0.00,VWS V14.01,2013-07-07 18:38:00,
2013-07-07 14:39:00,76.3,68.6,29.92,East,98,1.0,6.0,77,0.00,,---,0.00,VWS V14.01,2013-07-07 18:39:00,
2013-07-07 14:40:00,76.2,68.5,29.92,SSE,147,2.0,6.0,77,0.00,,---,0.00,VWS V14.01,2013-07-07 18:40:00,
2013-07-07 14:41:00,76.2,68.5,29.92,SSE,154,1.0,6.0,77,0.00,,---,0.00,VWS V14.01,2013-07-07 18:41:00,
2013-07-07 14:42:00,76.2,68.5,29.92,SSE,156,0.0,6.0,77,0.00,,---,0.00,VWS V14.01,2013-07-07 18:42:00,
2013-07-07 14:43:00,76.2,68.5,29.92,SSE,165,6.0,7.0,77,0.00,,---,0.00,VWS V14.01,2013-07-07 18:43:00,
2013-07-07 14:44:00,76.2,68.5,29.92,South,181,8.0,9.0,77,0.00,,---,0.00,VWS V14.01,2013-07-07 18:44:00,
2013-07-07 14:45:00,76.2,68.5,29.92,SSE,163,9.0,10.0,77,0.00,,---,0.00,VWS V14.01,2013-07-07 18:45:00,
2013-07-07 14:46:00,76.2,68.8,29.91,South,169,9.0,10.0,78,0.00,,---,0.00,VWS V14.01,2013-07-07 18:46:00,
2013-07-07 14:47:00,76.3,69.3,29.91,SSE,161,10.0,11.0,79,0.00,,---,0.00,VWS V14.01,2013-07-07 18:47:00,
2013-07-07 14:48:00,76.4,69.8,29.91,SSE,163,6.0,11.0,80,0.00,,---,0.00,VWS V14.01,2013-07-07 18:48:00,
2013-07-07 14:49:00,76.5,69.9,29.91,South,178,13.0,13.0,80,0.00,,---,0.00,VWS V14.01,2013-07-07 18:49:00,
2013-07-07 14:50:00,76.6,70.0,29.90,South,186,8.0,13.0,80,0.00,,---,0.00,VWS V14.01,2013-07-07 18:50:00,
2013-07-07 14:51:00,76.7,70.1,29.90,South,178,12.0,13.0,80,0.00,,---,0.00,VWS V14.01,2013-07-07 18:51:00,
2013-07-07 14:52:00,76.9,70.6,29.90,South,190,13.0,14.0,81,0.00,,---,0.00,VWS V14.01,2013-07-07 18:52:00,
2013-07-07 14:53:00,77.2,70.9,29.90,SSW,198,12.0,17.0,81,0.00,,---,0.00,VWS V14.01,2013-07-07 18:53:00,
2013-07-07 14:54:00,77.5,71.2,29.91,SSW,197,16.0,17.0,81,0.00,,---,0.00,VWS V14.01,2013-07-07 18:54:00,
2013-07-07 14:55:00,77.7,71.4,29.91,SSW,196,15.0,17.0,81,0.00,,---,0.00,VWS V14.01,2013-07-07 18:55:00,
2013-07-07 14:56:00,77.8,71.1,29.91,SSW,194,14.0,17.0,80,0.00,,---,0.00,VWS V14.01,2013-07-07 18:56:00,
2013-07-07 14:57:00,77.9,71.2,29.90,SSW,196,13.0,17.0,80,0.00,,---,0.00,VWS V14.01,2013-07-07 18:57:00,
2013-07-07 14:58:00,78.0,71.3,29.90,SSW,194,11.0,17.0,80,0.00,,---,0.00,VWS V14.01,2013-07-07 18:58:00,
2013-07-07 14:59:00,78.2,71.2,29.90,SSW,192,10.0,17.0,79,0.00,,---,0.00,VWS V14.01,2013-07-07 18:59:00,
2013-07-07 15:00:00,78.3,71.3,29.90,SSW,196,11.0,17.0,79,0.00,,---,0.00,VWS V14.01,2013-07-07 19:00:00,
2013-07-07 15:01:00,78.4,71.3,29.90,SSW,192,12.0,13.0,79,0.00,,---,0.00,VWS V14.01,2013-07-07 19:01:00,
2013-07-07 15:02:00,78.5,71.4,29.90,South,189,11.0,14.0,79,0.00,,---,0.00,VWS V14.01,2013-07-07 19:02:00,
2013-07-07 15:03:00,78.5,71.4,29.91,SSW,194,9.0,14.0,79,0.00,,---,0.00,VWS V14.01,2013-07-07 19:03:00,
2013-07-07 15:04:00,78.5,71.4,29.91,SSW,192,10.0,14.0,79,0.00,,---,0.00,VWS V14.01,2013-07-07 19:04:00,
2013-07-07 15:05:00,78.5,71.4,29.90,SSW,194,7.0,14.0,79,0.00,,---,0.00,VWS V14.01,2013-07-07 19:05:00,
2013-07-07 15:06:00,78.5,71.4,29.90,South,188,9.0,14.0,79,0.00,,---,0.00,VWS V14.01,2013-07-07 19:06:00,
2013-07-07 15:07:00,78.4,71.3,29.90,South,188,9.0,14.0,79,0.00,,---,0.00,VWS V14.01,2013-07-07 19:07:00,
2013-07-07 15:08:00,78.3,71.3,29.90,South,187,8.0,14.0,79,0.00,,---,0.00,VWS V14.01,2013-07-07 19:08:00,
2013-07-07 15:09:00,78.2,70.8,29.90,South,188,8.0,14.0,78,0.00,,---,0.00,VWS V14.01,2013-07-07 19:09:00,
2013-07-07 15:10:00,77.9,70.5,29.90,South,190,9.0,14.0,78,0.00,,---,0.00,VWS V14.01,2013-07-07 19:10:00,
2013-07-07 15:11:00,77.8,70.8,29.90,SSW,196,13.0,14.0,79,0.00,,---,0.00,VWS V14.01,2013-07-07 19:11:00,
2013-07-07 15:12:00,77.7,70.7,29.90,SSW,197,12.0,14.0,79,0.00,,---,0.00,VWS V14.01,2013-07-07 19:12:00,
2013-07-07 15:13:00,77.7,71.0,29.89,SSW,201,11.0,14.0,80,0.00,,---,0.00,VWS V14.01,2013-07-07 19:13:00,
2013-07-07 15:14:00,77.7,71.0,29.89,SSW,197,10.0,14.0,80,0.00,,---,0.00,VWS V14.01,2013-07-07 19:14:00,
2013-07-07 15:15:00,77.6,70.6,29.89,SSW,202,10.0,14.0,79,0.00,,---,0.00,VWS V14.01,2013-07-07 19:15:00,
2013-07-07 15:16:00,77.6,70.6,29.89,SSW,199,9.0,14.0,79,0.00,,---,0.00,VWS V14.01,2013-07-07 19:16:00,
2013-07-07 15:17:00,77.5,70.5,29.89,SSW,201,9.0,14.0,79,0.00,,---,0.00,VWS V14.01,2013-07-07 19:17:00,
2013-07-07 15:18:00,77.3,70.3,29.89,SSW,202,10.0,14.0,79,0.00,,---,0.00,VWS V14.01,2013-07-07 19:18:00,
2013-07-07 15:19:00,77.2,70.6,29.89,SSW,202,9.0,14.0,80,0.00,,---,0.00,VWS V14.01,2013-07-07 19:19:00,
2013-07-07 15:20:00,77.0,70.4,29.90,SSW,201,9.0,14.0,80,0.00,,---,0.00,VWS V14.01,2013-07-07 19:20:00,
2013-07-07 15:21:00,76.9,70.3,29.90,SSW,200,8.0,14.0,80,0.00,,---,0.00,VWS V14.01,2013-07-07 19:21:00,
2013-07-07 15:22:00,76.7,70.1,29.90,SSW,200,7.0,14.0,80,0.00,,---,0.00,VWS V14.01,2013-07-07 19:22:00,
2013-07-07 15:23:00,76.5,69.9,29.90,SSW,199,7.0,14.0,80,0.00,,---,0.00,VWS V14.01,2013-07-07 19:23:00,
2013-07-07 15:24:00,76.3,69.7,29.90,SSW,200,7.0,14.0,80,0.00,,---,0.00,VWS V14.01,2013-07-07 19:24:00,
2013-07-07 15:25:00,76.1,69.5,29.90,SSW,201,8.0,14.0,80,0.00,,---,0.00,VWS V14.01,2013-07-07 19:25:00,
2013-07-07 15:26:00,76.0,69.8,29.90,SSW,202,7.0,14.0,81,0.00,,---,0.00,VWS V14.01,2013-07-07 19:26:00,
2013-07-07 15:27:00,75.8,69.6,29.89,SSW,202,7.0,14.0,81,0.00,,---,0.00,VWS V14.01,2013-07-07 19:27:00,
2013-07-07 15:28:00,75.8,69.9,29.89,SSW,202,7.0,14.0,82,0.00,,---,0.00,VWS V14.01,2013-07-07 19:28:00,
2013-07-07 15:29:00,75.7,69.8,29.89,SSW,202,7.0,14.0,82,0.00,,---,0.00,VWS V14.01,2013-07-07 19:29:00,
2013-07-07 15:30:00,75.7,69.8,29.89,SSW,202,7.0,14.0,82,0.00,,---,0.00,VWS V14.01,2013-07-07 19:30:00,
2013-07-07 15:31:00,75.7,69.8,29.89,SSW,204,7.0,7.0,82,0.00,,---,0.00,VWS V14.01,2013-07-07 19:31:00,
2013-07-07 15:32:00,75.6,69.7,29.89,SSW,205,6.0,7.0,82,0.00,,---,0.00,VWS V14.01,2013-07-07 19:32:00,
2013-07-07 15:33:00,75.6,69.7,29.89,SSW,205,5.0,7.0,82,0.00,,---,0.00,VWS V14.01,2013-07-07 19:33:00,
2013-07-07 15:34:00,75.5,69.6,29.89,SSW,205,5.0,7.0,82,0.00,,---,0.00,VWS V14.01,2013-07-07 19:34:00,
2013-07-07 15:35:00,75.4,69.5,29.89,SSW,205,6.0,7.0,82,0.00,,---,0.00,VWS V14.01,2013-07-07 19:35:00,
2013-07-07 15:36:00,75.3,69.4,29.89,SSW,205,4.0,7.0,82,0.00,,---,0.00,VWS V14.01,2013-07-07 19:36:00,
2013-07-07 15:37:00,75.3,69.8,29.89,SSW,205,6.0,7.0,83,0.00,,---,0.00,VWS V14.01,2013-07-07 19:37:00,
2013-07-07 15:38:00,75.2,69.7,29.89,SSW,204,6.0,7.0,83,0.00,,---,0.00,VWS V14.01,2013-07-07 19:38:00,
2013-07-07 15:39:00,75.2,69.7,29.89,SSW,203,6.0,7.0,83,0.00,,---,0.00,VWS V14.01,2013-07-07 19:39:00,
2013-07-07 15:40:00,75.2,69.7,29.89,SSW,202,7.0,7.0,83,0.00,,---,0.00,VWS V14.01,2013-07-07 19:40:00,
2013-07-07 15:41:00,75.3,69.8,29.89,SSW,202,6.0,7.0,83,0.00,,---,0.00,VWS V14.01,2013-07-07 19:41:00,
2013-07-07 15:42:00,75.4,70.2,29.89,SSW,203,7.0,7.0,84,0.00,,---,0.00,VWS V14.01,2013-07-07 19:42:00,
2013-07-07 15:43:00,75.5,70.3,29.89,SSW,206,5.0,7.0,84,0.00,,---,0.00,VWS V14.01,2013-07-07 19:43:00,
2013-07-07 15:44:00,75.5,70.3,29.89,SSW,207,5.0,7.0,84,0.00,,---,0.00,VWS V14.01,2013-07-07 19:44:00,
2013-07-07 15:45:00,75.3,69.8,29.89,SSW,207,6.0,7.0,83,0.00,,---,0.00,VWS V14.01,2013-07-07 19:45:00,
2013-07-07 15:46:00,75.3,69.8,29.89,SSW,207,4.0,7.0,83,0.00,,---,0.00,VWS V14.01,2013-07-07 19:46:00,
2013-07-07 15:47:00,75.2,69.7,29.89,SSW,207,3.0,7.0,83,0.00,,---,0.00,VWS V14.01,2013-07-07 19:47:00,
2013-07-07 15:48:00,75.1,69.6,29.89,SSW,207,5.0,7.0,83,0.00,,---,0.00,VWS V14.01,2013-07-07 19:48:00,
2013-07-07 15:49:00,75.2,69.7,29.89,SSW,206,5.0,7.0,83,0.00,,---,0.00,VWS V14.01,2013-07-07 19:49:00,
2013-07-07 15:50:00,75.3,70.1,29.89,SSW,206,5.0,7.0,84,0.00,,---,0.00,VWS V14.01,2013-07-07 19:50:00,
2013-07-07 15:51:00,75.5,70.3,29.89,SSW,206,5.0,7.0,84,0.00,,---,0.00,VWS V14.01,2013-07-07 19:51:00,
2013-07-07 15:52:00,75.7,70.5,29.88,SSW,206,5.0,7.0,84,0.00,,---,0.00,VWS V14.01,2013-07-07 19:52:00,
2013-07-07 15:53:00,75.8,70.6,29.89,SSW,206,5.0,7.0,84,0.00,,---,0.00,VWS V14.01,2013-07-07 19:53:00,
2013-07-07 15:54:00,76.0,70.8,29.89,SSW,205,7.0,7.0,84,0.00,,---,0.00,VWS V14.01,2013-07-07 19:54:00,
2013-07-07 15:55:00,76.1,70.9,29.89,SSW,205,7.0,8.0,84,0.00,,---,0.00,VWS V14.01,2013-07-07 19:55:00,
2013-07-07 15:56:00,76.2,71.0,29.89,SSW,204,7.0,9.0,84,0.00,,---,0.00,VWS V14.01,2013-07-07 19:56:00,
2013-07-07 15:57:00,76.3,71.1,29.89,SSW,205,7.0,9.0,84,0.00,,---,0.00,VWS V14.01,2013-07-07 19:57:00,
2013-07-07 15:58:00,76.2,70.7,29.90,SSW,209,7.0,9.0,83,0.00,,---,0.00,VWS V14.01,2013-07-07 19:58:00,
2013-07-07 15:59:00,76.2,70.7,29.90,SSW,209,7.0,9.0,83,0.00,,---,0.00,VWS V14.01,2013-07-07 19:59:00,
2013-07-07 16:00:00,76.2,70.7,29.90,SSW,209,7.0,9.0,83,0.00,,---,0.00,VWS V14.01,2013-07-07 20:00:00,
2013-07-07 16:01:00,76.1,70.6,29.89,SSW,209,7.0,7.0,83,0.00,,---,0.00,VWS V14.01,2013-07-07 20:01:00,
2013-07-07 16:02:00,76.1,70.6,29.90,SSW,210,7.0,7.0,83,0.00,,---,0.00,VWS V14.01,2013-07-07 20:02:00,
2013-07-07 16:03:00,76.1,70.6,29.90,SSW,210,7.0,7.0,83,0.00,,---,0.00,VWS V14.01,2013-07-07 20:03:00,
2013-07-07 16:04:00,76.2,70.7,29.90,SSW,211,7.0,7.0,83,0.00,,---,0.00,VWS V14.01,2013-07-07 20:04:00,
2013-07-07 16:05:00,76.2,70.7,29.90,SSW,211,7.0,7.0,83,0.00,,---,0.00,VWS V14.01,2013-07-07 20:05:00,
2013-07-07 16:06:00,76.2,70.7,29.90,SSW,211,7.0,7.0,83,0.00,,---,0.00,VWS V14.01,2013-07-07 20:06:00,
2013-07-07 16:07:00,76.3,71.1,29.90,SSW,211,7.0,7.0,84,0.00,,---,0.00,VWS V14.01,2013-07-07 20:07:00,
2013-07-07 16:08:00,76.3,71.1,29.90,SSW,209,7.0,8.0,84,0.00,,---,0.00,VWS V14.01,2013-07-07 20:08:00,
2013-07-07 16:09:00,76.3,70.8,29.90,SSW,205,9.0,9.0,83,0.00,,---,0.00,VWS V14.01,2013-07-07 20:09:00,
2013-07-07 16:10:00,76.3,70.8,29.90,SSW,205,9.0,10.0,83,0.00,,---,0.00,VWS V14.01,2013-07-07 20:10:00,
2013-07-07 16:11:00,76.3,70.8,29.90,SSW,206,8.0,10.0,83,0.00,,---,0.00,VWS V14.01,2013-07-07 20:11:00,
2013-07-07 16:12:00,76.4,70.9,29.90,SSW,205,8.0,10.0,83,0.00,,---,0.00,VWS V14.01,2013-07-07 20:12:00,
2013-07-07 16:13:00,76.3,70.8,29.90,SSW,207,7.0,10.0,83,0.00,,---,0.00,VWS V14.01,2013-07-07 20:13:00,
2013-07-07 16:14:00,76.2,70.7,29.90,SSW,208,7.0,10.0,83,0.00,,---,0.00,VWS V14.01,2013-07-07 20:14:00,
2013-07-07 16:15:00,76.1,70.2,29.90,SSW,210,7.0,10.0,82,0.00,,---,0.00,VWS V14.01,2013-07-07 20:15:00,
2013-07-07 16:16:00,75.9,70.4,29.90,SSW,210,7.0,10.0,83,0.00,,---,0.00,VWS V14.01,2013-07-07 20:16:00,
2013-07-07 16:17:00,75.8,70.3,29.90,SSW,210,7.0,10.0,83,0.00,,---,0.00,VWS V14.01,2013-07-07 20:17:00,
2013-07-07 16:18:00,75.8,70.3,29.90,SSW,212,7.0,10.0,83,0.00,,---,0.00,VWS V14.01,2013-07-07 20:18:00,
2013-07-07 16:19:00,75.8,70.3,29.90,SSW,213,8.0,10.0,83,0.00,,---,0.00,VWS V14.01,2013-07-07 20:19:00,
2013-07-07 16:20:00,75.8,70.3,29.90,SSW,213,8.0,10.0,83,0.00,,---,0.00,VWS V14.01,2013-07-07 20:20:00,
2013-07-07 16:21:00,75.8,70.3,29.90,SSW,213,7.0,10.0,83,0.00,,---,0.00,VWS V14.01,2013-07-07 20:21:00,
2013-07-07 16:22:00,75.8,70.6,29.90,SSW,213,7.0,10.0,84,0.00,,---,0.00,VWS V14.01,2013-07-07 20:22:00,
2013-07-07 16:23:00,75.8,70.6,29.91,SSW,213,8.0,10.0,84,0.00,,---,0.00,VWS V14.01,2013-07-07 20:23:00,
2013-07-07 16:24:00,75.9,70.7,29.91,SW,215,9.0,10.0,84,0.00,,---,0.00,VWS V14.01,2013-07-07 20:24:00,
2013-07-07 16:25:00,75.9,70.7,29.91,SW,216,7.0,10.0,84,0.00,,---,0.00,VWS V14.01,2013-07-07 20:25:00,
2013-07-07 16:26:00,75.9,70.4,29.91,SW,217,8.0,10.0,83,0.00,,---,0.00,VWS V14.01,2013-07-07 20:26:00,
2013-07-07 16:27:00,75.9,70.4,29.91,SW,217,7.0,10.0,83,0.00,,---,0.00,VWS V14.01,2013-07-07 20:27:00,
2013-07-07 16:28:00,75.8,70.3,29.91,SW,217,8.0,10.0,83,0.00,,---,0.00,VWS V14.01,2013-07-07 20:28:00,
2013-07-07 16:29:00,75.8,70.3,29.91,SW,217,7.0,10.0,83,0.00,,---,0.00,VWS V14.01,2013-07-07 20:29:00,
2013-07-07 16:30:00,75.7,70.2,29.91,SW,217,7.0,10.0,83,0.00,,---,0.00,VWS V14.01,2013-07-07 20:30:00,
2013-07-07 16:31:00,75.7,70.2,29.91,SW,217,7.0,7.0,83,0.00,,---,0.00,VWS V14.01,2013-07-07 20:31:00,
2013-07-07 16:32:00,75.7,70.5,29.91,SW,217,5.0,7.0,84,0.00,,---,0.00,VWS V14.01,2013-07-07 20:32:00,
2013-07-07 16:33:00,75.7,70.5,29.91,SW,217,5.0,7.0,84,0.00,,---,0.00,VWS V14.01,2013-07-07 20:33:00,
2013-07-07 16:34:00,75.7,70.5,29.91,SW,217,4.0,7.0,84,0.00,,---,0.00,VWS V14.01,2013-07-07 20:34:00,
2013-07-07 16:35:00,75.8,70.6,29.91,SW,217,4.0,7.0,84,0.00,,---,0.00,VWS V14.01,2013-07-07 20:35:00,
2013-07-07 16:36:00,75.8,70.6,29.91,SW,217,5.0,7.0,84,0.00,,---,0.00,VWS V14.01,2013-07-07 20:36:00,
2013-07-07 16:37:00,75.8,70.3,29.91,SW,217,4.0,7.0,83,0.00,,---,0.00,VWS V14.01,2013-07-07 20:37:00,
2013-07-07 16:38:00,75.8,70.3,29.91,SW,217,4.0,7.0,83,0.00,,---,0.00,VWS V14.01,2013-07-07 20:38:00,
2013-07-07 16:39:00,75.8,70.3,29.91,SW,217,3.0,7.0,83,0.00,,---,0.00,VWS V14.01,2013-07-07 20:39:00,
2013-07-07 16:40:00,75.9,70.4,29.91,SW,217,2.0,7.0,83,0.00,,---,0.00,VWS V14.01,2013-07-07 20:40:00,
2013-07-07 16:41:00,75.9,70.4,29.91,SW,217,0.0,7.0,83,0.00,,---,0.00,VWS V14.01,2013-07-07 20:41:00,
2013-07-07 16:42:00,75.9,70.4,29.91,SW,217,0.0,7.0,83,0.00,,---,0.00,VWS V14.01,2013-07-07 20:42:00,
2013-07-07 16:43:00,76.0,70.5,29.91,SW,217,0.0,7.0,83,0.00,,---,0.00,VWS V14.01,2013-07-07 20:43:00,
2013-07-07 16:44:00,76.0,70.5,29.91,SW,217,0.0,7.0,83,0.00,,---,0.00,VWS V14.01,2013-07-07 20:44:00,
2013-07-07 16:45:00,75.9,70.4,29.91,SW,217,0.0,7.0,83,0.00,,---,0.00,VWS V14.01,2013-07-07 20:45:00,
2013-07-07 16:46:00,76.0,70.5,29.91,SW,217,0.0,7.0,83,0.00,,---,0.00,VWS V14.01,2013-07-07 20:46:00,
2013-07-07 16:47:00,76.0,70.5,29.91,SW,217,0.0,7.0,83,0.00,,---,0.00,VWS V14.01,2013-07-07 20:47:00,
2013-07-07 16:48:00,76.0,70.5,29.91,SW,217,0.0,7.0,83,0.00,,---,0.00,VWS V14.01,2013-07-07 20:48:00,
2013-07-07 16:49:00,76.1,70.6,29.91,SW,217,4.0,7.0,83,0.00,,---,0.00,VWS V14.01,2013-07-07 20:49:00,
2013-07-07 16:50:00,76.2,70.7,29.91,SW,217,3.0,7.0,83,0.00,,---,0.00,VWS V14.01,2013-07-07 20:50:00,
2013-07-07 16:51:00,76.3,71.1,29.91,SW,217,4.0,7.0,84,0.00,,---,0.00,VWS V14.01,2013-07-07 20:51:00,
2013-07-07 16:52:00,76.4,71.2,29.91,SW,217,5.0,7.0,84,0.00,,---,0.00,VWS V14.01,2013-07-07 20:52:00,
2013-07-07 16:53:00,76.5,71.3,29.91,SW,217,5.0,7.0,84,0.00,,---,0.00,VWS V14.01,2013-07-07 20:53:00,
2013-07-07 16:54:00,76.6,71.1,29.91,SW,217,6.0,7.0,83,0.00,,---,0.00,VWS V14.01,2013-07-07 20:54:00,
2013-07-07 16:55:00,76.6,71.1,29.91,SW,217,6.0,7.0,83,0.00,,---,0.00,VWS V14.01,2013-07-07 20:55:00,
2013-07-07 16:56:00,76.5,71.0,29.91,SW,217,6.0,7.0,83,0.00,,---,0.00,VWS V14.01,2013-07-07 20:56:00,
2013-07-07 16:57:00,76.5,71.0,29.91,SW,217,4.0,7.0,83,0.00,,---,0.00,VWS V14.01,2013-07-07 20:57:00,
2013-07-07 16:58:00,76.6,71.1,29.91,SW,217,4.0,7.0,83,0.00,,---,0.00,VWS V14.01,2013-07-07 20:58:00,
2013-07-07 16:59:00,76.6,71.1,29.91,SW,217,4.0,7.0,83,0.00,,---,0.00,VWS V14.01,2013-07-07 20:59:00,
2013-07-07 17:00:00,76.6,71.1,29.91,SW,217,4.0,7.0,83,0.00,,---,0.00,VWS V14.01,2013-07-07 21:00:00,
2013-07-07 17:01:00,76.6,71.1,29.91,SW,217,5.0,5.0,83,0.00,,---,0.00,VWS V14.01,2013-07-07 21:01:00,
2013-07-07 17:02:00,76.5,71.0,29.91,SW,217,4.0,5.0,83,0.00,,---,0.00,VWS V14.01,2013-07-07 21:02:00,
2013-07-07 17:03:00,76.5,71.0,29.91,SW,217,4.0,5.0,83,0.00,,---,0.00,VWS V14.01,2013-07-07 21:03:00,
2013-07-07 17:04:00,76.4,70.9,29.91,SW,217,4.0,5.0,83,0.00,,---,0.00,VWS V14.01,2013-07-07 21:04:00,
2013-07-07 17:05:00,76.4,70.9,29.91,SW,217,5.0,6.0,83,0.00,,---,0.00,VWS V14.01,2013-07-07 21:05:00,
2013-07-07 17:06:00,76.4,70.9,29.91,SW,217,4.0,6.0,83,0.00,,---,0.00,VWS V14.01,2013-07-07 21:06:00,
2013-07-07 17:07:00,76.4,70.9,29.91,SW,217,5.0,6.0,83,0.00,,---,0.00,VWS V14.01,2013-07-07 21:07:00,
2013-07-07 17:08:00,76.4,70.9,29.91,SW,217,6.0,6.0,83,0.00,,---,0.00,VWS V14.01,2013-07-07 21:08:00,
2013-07-07 17:09:00,76.3,70.8,29.91,SW,217,5.0,7.0,83,0.00,,---,0.00,VWS V14.01,2013-07-07 21:09:00,
2013-07-07 17:10:00,76.4,70.9,29.91,SW,217,6.0,7.0,83,0.00,,---,0.00,VWS V14.01,2013-07-07 21:10:00,
2013-07-07 17:11:00,76.4,70.9,29.91,SW,217,7.0,7.0,83,0.00,,---,0.00,VWS V14.01,2013-07-07 21:11:00,
2013-07-07 17:12:00,76.6,71.4,29.91,SW,217,4.0,7.0,84,0.00,,---,0.00,VWS V14.01,2013-07-07 21:12:00,
2013-07-07 17:13:00,76.6,71.1,29.91,SW,217,5.0,7.0,83,0.00,,---,0.00,VWS V14.01,2013-07-07 21:13:00,
2013-07-07 17:14:00,76.6,71.1,29.91,SW,217,5.0,7.0,83,0.00,,---,0.00,VWS V14.01,2013-07-07 21:14:00,
2013-07-07 17:15:00,76.6,71.1,29.91,SW,217,4.0,7.0,83,0.00,,---,0.00,VWS V14.01,2013-07-07 21:15:00,
2013-07-07 17:16:00,76.7,71.2,29.91,SW,217,4.0,7.0,83,0.00,,---,0.00,VWS V14.01,2013-07-07 21:16:00,
2013-07-07 17:17:00,76.6,71.1,29.91,SW,217,4.0,7.0,83,0.00,,---,0.00,VWS V14.01,2013-07-07 21:17:00,
2013-07-07 17:18:00,76.7,71.2,29.91,SW,217,4.0,7.0,83,0.00,,---,0.00,VWS V14.01,2013-07-07 21:18:00,
2013-07-07 17:19:00,76.7,71.2,29.92,SW,217,4.0,7.0,83,0.00,,---,0.00,VWS V14.01,2013-07-07 21:19:00,
2013-07-07 17:20:00,76.8,71.2,29.91,SW,217,5.0,7.0,83,0.00,,---,0.00,VWS V14.01,2013-07-07 21:20:00,
2013-07-07 17:21:00,77.0,71.4,29.91,SW,217,1.0,7.0,83,0.00,,---,0.00,VWS V14.01,2013-07-07 21:21:00,
2013-07-07 17:22:00,77.1,71.5,29.91,SW,217,5.0,7.0,83,0.00,,---,0.00,VWS V14.01,2013-07-07 21:22:00,
2013-07-07 17:23:00,77.1,71.5,29.92,SW,217,4.0,7.0,83,0.00,,---,0.00,VWS V14.01,2013-07-07 21:23:00,
2013-07-07 17:24:00,77.2,71.6,29.92,SW,217,3.0,7.0,83,0.00,,---,0.00,VWS V14.01,2013-07-07 21:24:00,
2013-07-07 17:25:00,77.3,71.7,29.92,SW,217,5.0,7.0,83,0.00,,---,0.00,VWS V14.01,2013-07-07 21:25:00,
2013-07-07 17:26:00,77.4,71.8,29.92,SW,217,4.0,7.0,83,0.00,,---,0.00,VWS V14.01,2013-07-07 21:26:00,
2013-07-07 17:27:00,77.5,71.9,29.92,SW,217,5.0,7.0,83,0.00,,---,0.00,VWS V14.01,2013-07-07 21:27:00,
2013-07-07 17:28:00,77.5,71.9,29.92,SW,217,4.0,7.0,83,0.00,,---,0.00,VWS V14.01,2013-07-07 21:28:00,
2013-07-07 17:29:00,77.5,71.9,29.92,SW,217,4.0,7.0,83,0.00,,---,0.00,VWS V14.01,2013-07-07 21:29:00,
2013-07-07 17:30:00,77.5,71.9,29.92,SW,217,5.0,7.0,83,0.00,,---,0.00,VWS V14.01,2013-07-07 21:30:00,
2013-07-07 17:31:00,77.5,71.9,29.92,SW,217,5.0,5.0,83,0.00,,---,0.00,VWS V14.01,2013-07-07 21:31:00,
2013-07-07 17:32:00,77.6,72.0,29.92,SW,217,5.0,5.0,83,0.00,,---,0.00,VWS V14.01,2013-07-07 21:32:00,
2013-07-07 17:33:00,77.6,72.0,29.92,SW,217,5.0,6.0,83,0.00,,---,0.00,VWS V14.01,2013-07-07 21:33:00,
2013-07-07 17:34:00,77.6,72.0,29.92,SW,217,3.0,6.0,83,0.00,,---,0.00,VWS V14.01,2013-07-07 21:34:00,
2013-07-07 17:35:00,77.7,72.1,29.92,SW,217,5.0,6.0,83,0.00,,---,0.00,VWS V14.01,2013-07-07 21:35:00,
2013-07-07 17:36:00,77.7,71.8,29.92,SW,217,4.0,6.0,82,0.00,,---,0.00,VWS V14.01,2013-07-07 21:36:00,
2013-07-07 17:37:00,77.7,71.8,29.92,SW,217,4.0,6.0,82,0.00,,---,0.00,VWS V14.01,2013-07-07 21:37:00,
2013-07-07 17:38:00,77.8,72.2,29.92,SW,217,5.0,6.0,83,0.00,,---,0.00,VWS V14.01,2013-07-07 21:38:00,
2013-07-07 17:39:00,77.8,71.9,29.92,SW,217,5.0,6.0,82,0.00,,---,0.00,VWS V14.01,2013-07-07 21:39:00,
2013-07-07 17:40:00,77.9,72.0,29.92,SW,217,5.0,6.0,82,0.00,,---,0.00,VWS V14.01,2013-07-07 21:40:00,
2013-07-07 17:41:00,77.9,72.0,29.92,SW,217,4.0,6.0,82,0.00,,---,0.00,VWS V14.01,2013-07-07 21:41:00,
2013-07-07 17:42:00,77.9,72.0,29.92,SW,217,3.0,6.0,82,0.00,,---,0.00,VWS V14.01,2013-07-07 21:42:00,
2013-07-07 17:43:00,78.0,72.1,29.92,SW,217,4.0,6.0,82,0.00,,---,0.00,VWS V14.01,2013-07-07 21:43:00,
2013-07-07 17:44:00,78.0,72.1,29.92,SW,217,4.0,6.0,82,0.00,,---,0.00,VWS V14.01,2013-07-07 21:44:00,
2013-07-07 17:45:00,77.9,72.0,29.92,SW,217,5.0,6.0,82,0.00,,---,0.00,VWS V14.01,2013-07-07 21:45:00,
2013-07-07 17:46:00,78.0,72.1,29.92,SW,217,5.0,6.0,82,0.00,,---,0.00,VWS V14.01,2013-07-07 21:46:00,
2013-07-07 17:47:00,78.0,72.1,29.92,SW,217,4.0,6.0,82,0.00,,---,0.00,VWS V14.01,2013-07-07 21:47:00,
2013-07-07 17:48:00,78.0,72.1,29.92,SW,217,5.0,6.0,82,0.00,,---,0.00,VWS V14.01,2013-07-07 21:48:00,
2013-07-07 17:49:00,78.0,72.1,29.92,SW,217,4.0,6.0,82,0.00,,---,0.00,VWS V14.01,2013-07-07 21:49:00,
2013-07-07 17:50:00,78.0,72.1,29.92,SW,217,4.0,6.0,82,0.00,,---,0.00,VWS V14.01,2013-07-07 21:50:00,
2013-07-07 17:51:00,78.1,72.2,29.92,SW,217,4.0,6.0,82,0.00,,---,0.00,VWS V14.01,2013-07-07 21:51:00,
2013-07-07 17:52:00,78.1,72.2,29.92,SW,217,2.0,6.0,82,0.00,,---,0.00,VWS V14.01,2013-07-07 21:52:00,
2013-07-07 17:53:00,78.1,72.2,29.92,SW,217,4.0,6.0,82,0.00,,---,0.00,VWS V14.01,2013-07-07 21:53:00,
2013-07-07 17:54:00,78.1,72.2,29.92,SW,217,4.0,6.0,82,0.00,,---,0.00,VWS V14.01,2013-07-07 21:54:00,
2013-07-07 17:55:00,78.2,72.3,29.92,SW,217,5.0,6.0,82,0.00,,---,0.00,VWS V14.01,2013-07-07 21:55:00,
2013-07-07 17:56:00,78.2,72.3,29.92,SW,217,5.0,6.0,82,0.00,,---,0.00,VWS V14.01,2013-07-07 21:56:00,
2013-07-07 17:57:00,78.2,72.3,29.92,SW,217,5.0,6.0,82,0.00,,---,0.00,VWS V14.01,2013-07-07 21:57:00,
2013-07-07 17:58:00,78.2,72.3,29.92,SW,217,5.0,6.0,82,0.00,,---,0.00,VWS V14.01,2013-07-07 21:58:00,
2013-07-07 17:59:00,78.3,72.4,29.92,SW,217,5.0,6.0,82,0.00,,---,0.00,VWS V14.01,2013-07-07 21:59:00,
2013-07-07 18:00:00,78.3,72.4,29.92,SW,216,5.0,6.0,82,0.00,,---,0.00,VWS V14.01,2013-07-07 22:00:00,
2013-07-07 18:01:00,78.3,72.4,29.92,SW,216,4.0,5.0,82,0.00,,---,0.00,VWS V14.01,2013-07-07 22:01:00,
2013-07-07 18:02:00,78.3,72.4,29.92,SW,215,5.0,6.0,82,0.00,,---,0.00,VWS V14.01,2013-07-07 22:02:00,
2013-07-07 18:03:00,78.3,72.4,29.92,SW,215,5.0,6.0,82,0.00,,---,0.00,VWS V14.01,2013-07-07 22:03:00,
2013-07-07 18:04:00,78.3,72.4,29.92,SW,215,5.0,6.0,82,0.00,,---,0.00,VWS V14.01,2013-07-07 22:04:00,
2013-07-07 18:05:00,78.3,72.4,29.92,SW,215,4.0,6.0,82,0.00,,---,0.00,VWS V14.01,2013-07-07 22:05:00,
2013-07-07 18:06:00,78.3,72.4,29.92,SW,215,3.0,6.0,82,0.00,,---,0.00,VWS V14.01,2013-07-07 22:06:00,
2013-07-07 18:07:00,78.3,72.4,29.92,SW,215,3.0,6.0,82,0.00,,---,0.00,VWS V14.01,2013-07-07 22:07:00,
2013-07-07 18:08:00,78.2,71.9,29.92,SW,215,3.0,6.0,81,0.00,,---,0.00,VWS V14.01,2013-07-07 22:08:00,
2013-07-07 18:09:00,78.1,71.8,29.92,SW,215,4.0,6.0,81,0.00,,---,0.00,VWS V14.01,2013-07-07 22:09:00,
2013-07-07 18:10:00,78.0,71.7,29.92,SW,215,3.0,6.0,81,0.00,,---,0.00,VWS V14.01,2013-07-07 22:10:00,
2013-07-07 18:11:00,77.9,71.6,29.92,SW,215,4.0,6.0,81,0.00,,---,0.00,VWS V14.01,2013-07-07 22:11:00,
2013-07-07 18:12:00,77.8,71.5,29.92,SW,215,5.0,6.0,81,0.00,,---,0.00,VWS V14.01,2013-07-07 22:12:00,
2013-07-07 18:13:00,77.7,71.4,29.92,SW,215,4.0,6.0,81,0.00,,---,0.00,VWS V14.01,2013-07-07 22:13:00,
2013-07-07 18:14:00,77.5,71.2,29.92,SW,215,4.0,6.0,81,0.00,,---,0.00,VWS V14.01,2013-07-07 22:14:00,
2013-07-07 18:15:00,77.4,71.1,29.92,SW,215,4.0,6.0,81,0.00,,---,0.00,VWS V14.01,2013-07-07 22:15:00,
2013-07-07 18:16:00,77.3,71.0,29.92,SW,215,4.0,6.0,81,0.00,,---,0.00,VWS V14.01,2013-07-07 22:16:00,
2013-07-07 18:17:00,77.2,70.9,29.92,SW,215,5.0,6.0,81,0.00,,---,0.00,VWS V14.01,2013-07-07 22:17:00,
2013-07-07 18:18:00,77.2,71.3,29.92,SW,215,4.0,6.0,82,0.00,,---,0.00,VWS V14.01,2013-07-07 22:18:00,
2013-07-07 18:19:00,77.1,71.2,29.92,SW,215,4.0,6.0,82,0.00,,---,0.00,VWS V14.01,2013-07-07 22:19:00,
2013-07-07 18:20:00,77.1,71.2,29.92,SW,215,5.0,6.0,82,0.00,,---,0.00,VWS V14.01,2013-07-07 22:20:00,
2013-07-07 18:21:00,77.0,71.1,29.92,SW,215,6.0,6.0,82,0.00,,---,0.00,VWS V14.01,2013-07-07 22:21:00,
2013-07-07 18:22:00,77.0,71.1,29.92,SW,214,5.0,6.0,82,0.00,,---,0.00,VWS V14.01,2013-07-07 22:22:00,
2013-07-07 18:23:00,77.0,71.1,29.92,SW,214,6.0,6.0,82,0.00,,---,0.00,VWS V14.01,2013-07-07 22:23:00,
2013-07-07 18:24:00,77.0,71.1,29.92,SW,214,6.0,6.0,82,0.00,,---,0.00,VWS V14.01,2013-07-07 22:24:00,
2013-07-07 18:25:00,77.0,71.1,29.92,SW,214,4.0,6.0,82,0.00,,---,0.00,VWS V14.01,2013-07-07 22:25:00,
2013-07-07 18:26:00,77.0,71.1,29.92,SW,215,6.0,6.0,82,0.00,,---,0.00,VWS V14.01,2013-07-07 22:26:00,
2013-07-07 18:27:00,77.0,71.4,29.92,SW,214,5.0,6.0,83,0.00,,---,0.00,VWS V14.01,2013-07-07 22:27:00,
2013-07-07 18:28:00,77.1,71.2,29.92,SW,214,5.0,6.0,82,0.00,,---,0.00,VWS V14.01,2013-07-07 22:28:00,
2013-07-07 18:29:00,77.1,71.5,29.92,SW,214,6.0,6.0,83,0.00,,---,0.00,VWS V14.01,2013-07-07 22:29:00,
2013-07-07 18:30:00,77.1,71.5,29.92,SW,214,5.0,6.0,83,0.00,,---,0.00,VWS V14.01,2013-07-07 22:30:00,
2013-07-07 18:31:00,77.1,71.5,29.92,SW,214,7.0,7.0,83,0.00,,---,0.00,VWS V14.01,2013-07-07 22:31:00,
2013-07-07 18:32:00,77.1,71.5,29.92,SSW,213,6.0,7.0,83,0.00,,---,0.00,VWS V14.01,2013-07-07 22:32:00,
2013-07-07 18:33:00,77.1,71.2,29.92,SSW,213,5.0,7.0,82,0.00,,---,0.00,VWS V14.01,2013-07-07 22:33:00,
2013-07-07 18:34:00,77.2,71.6,29.92,SSW,213,5.0,7.0,83,0.00,,---,0.00,VWS V14.01,2013-07-07 22:34:00,
2013-07-07 18:35:00,77.3,71.4,29.93,SSW,213,5.0,7.0,82,0.00,,---,0.00,VWS V14.01,2013-07-07 22:35:00,
2013-07-07 18:36:00,77.2,71.3,29.93,SSW,213,5.0,7.0,82,0.00,,---,0.00,VWS V14.01,2013-07-07 22:36:00,
2013-07-07 18:37:00,77.3,71.4,29.92,SSW,213,7.0,7.0,82,0.00,,---,0.00,VWS V14.01,2013-07-07 22:37:00,
2013-07-07 18:38:00,77.3,71.4,29.93,SSW,211,7.0,7.0,82,0.00,,---,0.00,VWS V14.01,2013-07-07 22:38:00,
2013-07-07 18:39:00,77.3,71.4,29.93,SSW,209,7.0,7.0,82,0.00,,---,0.00,VWS V14.01,2013-07-07 22:39:00,
2013-07-07 18:40:00,77.3,71.4,29.92,SSW,209,7.0,7.0,82,0.00,,---,0.00,VWS V14.01,2013-07-07 22:40:00,
2013-07-07 18:41:00,77.3,71.4,29.93,SSW,209,7.0,7.0,82,0.00,,---,0.00,VWS V14.01,2013-07-07 22:41:00,
2013-07-07 18:42:00,77.3,71.4,29.92,SSW,209,7.0,7.0,82,0.00,,---,0.00,VWS V14.01,2013-07-07 22:42:00,
2013-07-07 18:43:00,77.3,71.7,29.92,SSW,208,7.0,8.0,83,0.00,,---,0.00,VWS V14.01,2013-07-07 22:43:00,
2013-07-07 18:44:00,77.4,71.5,29.93,SSW,208,7.0,8.0,82,0.00,,---,0.00,VWS V14.01,2013-07-07 22:44:00,
2013-07-07 18:45:00,77.4,71.5,29.93,SSW,208,7.0,8.0,82,0.00,,---,0.00,VWS V14.01,2013-07-07 22:45:00,
2013-07-07 18:46:00,77.4,71.8,29.93,SSW,208,7.0,8.0,83,0.00,,---,0.00,VWS V14.01,2013-07-07 22:46:00,
2013-07-07 18:47:00,77.5,71.9,29.93,SSW,209,6.0,8.0,83,0.00,,---,0.00,VWS V14.01,2013-07-07 22:47:00,
2013-07-07 18:48:00,77.5,71.9,29.93,SSW,207,7.0,8.0,83,0.00,,---,0.00,VWS V14.01,2013-07-07 22:48:00,
2013-07-07 18:49:00,77.6,72.0,29.93,SSW,204,9.0,9.0,83,0.00,,---,0.00,VWS V14.01,2013-07-07 22:49:00,
2013-07-07 18:50:00,77.6,71.7,29.93,SSW,203,9.0,9.0,82,0.00,,---,0.00,VWS V14.01,2013-07-07 22:50:00,
2013-07-07 18:51:00,77.6,71.7,29.93,SSW,205,7.0,9.0,82,0.00,,---,0.00,VWS V14.01,2013-07-07 22:51:00,
2013-07-07 18:52:00,77.7,71.8,29.92,SSW,204,8.0,9.0,82,0.00,,---,0.00,VWS V14.01,2013-07-07 22:52:00,
2013-07-07 18:53:00,77.7,71.8,29.93,SSW,206,9.0,9.0,82,0.00,,---,0.00,VWS V14.01,2013-07-07 22:53:00,
2013-07-07 18:54:00,77.7,71.8,29.93,SSW,207,8.0,9.0,82,0.00,,---,0.00,VWS V14.01,2013-07-07 22:54:00,
2013-07-07 18:55:00,77.6,71.7,29.93,SSW,209,8.0,9.0,82,0.00,,---,0.00,VWS V14.01,2013-07-07 22:55:00,
2013-07-07 18:56:00,77.5,71.2,29.93,SSW,209,8.0,9.0,81,0.00,,---,0.00,VWS V14.01,2013-07-07 22:56:00,
2013-07-07 18:57:00,77.3,71.0,29.93,SSW,211,7.0,9.0,81,0.00,,---,0.00,VWS V14.01,2013-07-07 22:57:00,
2013-07-07 18:58:00,77.1,71.2,29.93,SSW,211,7.0,9.0,82,0.00,,---,0.00,VWS V14.01,2013-07-07 22:58:00,
2013-07-07 18:59:00,77.0,71.1,29.93,SSW,211,7.0,9.0,82,0.00,,---,0.00,VWS V14.01,2013-07-07 22:59:00,
2013-07-07 19:00:00,76.9,71.0,29.93,SSW,211,7.0,9.0,82,0.00,,---,0.00,VWS V14.01,2013-07-07 23:00:00,
2013-07-07 19:01:00,76.8,70.9,29.93,SSW,211,8.0,8.0,82,0.00,,---,0.00,VWS V14.01,2013-07-07 23:01:00,
2013-07-07 19:02:00,76.8,71.2,29.93,SSW,210,8.0,8.0,83,0.00,,---,0.00,VWS V14.01,2013-07-07 23:02:00,
2013-07-07 19:03:00,76.8,71.2,29.93,SSW,210,8.0,8.0,83,0.00,,---,0.00,VWS V14.01,2013-07-07 23:03:00,
2013-07-07 19:04:00,76.8,71.2,29.93,SSW,210,7.0,8.0,83,0.00,,---,0.00,VWS V14.01,2013-07-07 23:04:00,
2013-07-07 19:05:00,76.7,71.2,29.93,SSW,210,7.0,8.0,83,0.00,,---,0.00,VWS V14.01,2013-07-07 23:05:00,
2013-07-07 19:06:00,76.7,71.2,29.93,SSW,210,7.0,8.0,83,0.00,,---,0.00,VWS V14.01,2013-07-07 23:06:00,
2013-07-07 19:07:00,76.7,71.2,29.93,SSW,209,7.0,8.0,83,0.00,,---,0.00,VWS V14.01,2013-07-07 23:07:00,
2013-07-07 19:08:00,76.8,71.2,29.93,SSW,210,7.0,8.0,83,0.00,,---,0.00,VWS V14.01,2013-07-07 23:08:00,
2013-07-07 19:09:00,76.8,71.2,29.93,SSW,209,7.0,8.0,83,0.00,,---,0.00,VWS V14.01,2013-07-07 23:09:00,
2013-07-07 19:10:00,76.9,71.3,29.93,SSW,209,7.0,8.0,83,0.00,,---,0.00,VWS V14.01,2013-07-07 23:10:00,
2013-07-07 19:11:00,76.9,71.3,29.93,SSW,209,7.0,8.0,83,0.00,,---,0.00,VWS V14.01,2013-07-07 23:11:00,
2013-07-07 19:12:00,76.9,71.3,29.93,SSW,209,6.0,8.0,83,0.00,,---,0.00,VWS V14.01,2013-07-07 23:12:00,
2013-07-07 19:13:00,77.0,71.4,29.93,SSW,209,7.0,8.0,83,0.00,,---,0.00,VWS V14.01,2013-07-07 23:13:00,
2013-07-07 19:14:00,77.1,71.5,29.93,SSW,209,5.0,8.0,83,0.00,,---,0.00,VWS V14.01,2013-07-07 23:14:00,
2013-07-07 19:15:00,77.1,71.5,29.93,SSW,209,6.0,8.0,83,0.00,,---,0.00,VWS V14.01,2013-07-07 23:15:00,
2013-07-07 19:16:00,77.1,71.5,29.93,SSW,209,7.0,8.0,83,0.00,,---,0.00,VWS V14.01,2013-07-07 23:16:00,
2013-07-07 19:17:00,77.2,71.6,29.93,SSW,209,6.0,8.0,83,0.00,,---,0.00,VWS V14.01,2013-07-07 23:17:00,
2013-07-07 19:18:00,77.2,71.6,29.93,SSW,209,7.0,8.0,83,0.00,,---,0.00,VWS V14.01,2013-07-07 23:18:00,
2013-07-07 19:19:00,77.2,71.6,29.93,SSW,209,7.0,8.0,83,0.00,,---,0.00,VWS V14.01,2013-07-07 23:19:00,
2013-07-07 19:20:00,77.3,71.7,29.93,SSW,209,7.0,8.0,83,0.00,,---,0.00,VWS V14.01,2013-07-07 23:20:00,
2013-07-07 19:21:00,77.3,71.7,29.93,SSW,208,7.0,8.0,83,0.00,,---,0.00,VWS V14.01,2013-07-07 23:21:00,
2013-07-07 19:22:00,77.3,71.7,29.93,SSW,208,6.0,8.0,83,0.00,,---,0.00,VWS V14.01,2013-07-07 23:22:00,
2013-07-07 19:23:00,77.3,71.7,29.93,SSW,208,5.0,8.0,83,0.00,,---,0.00,VWS V14.01,2013-07-07 23:23:00,
2013-07-07 19:24:00,77.2,71.6,29.93,SSW,208,6.0,8.0,83,0.00,,---,0.00,VWS V14.01,2013-07-07 23:24:00,
2013-07-07 19:25:00,77.1,71.5,29.93,SSW,208,6.0,8.0,83,0.00,,---,0.00,VWS V14.01,2013-07-07 23:25:00,
2013-07-07 19:26:00,77.1,71.5,29.93,SSW,208,5.0,8.0,83,0.00,,---,0.00,VWS V14.01,2013-07-07 23:26:00,
2013-07-07 19:27:00,77.0,71.4,29.93,SSW,208,6.0,8.0,83,0.00,,---,0.00,VWS V14.01,2013-07-07 23:27:00,
2013-07-07 19:28:00,77.0,71.4,29.93,SSW,208,6.0,8.0,83,0.00,,---,0.00,VWS V14.01,2013-07-07 23:28:00,
2013-07-07 19:29:00,76.9,71.3,29.93,SSW,208,7.0,8.0,83,0.00,,---,0.00,VWS V14.01,2013-07-07 23:29:00,
2013-07-07 19:30:00,76.9,71.3,29.93,SSW,208,6.0,8.0,83,0.00,,---,0.00,VWS V14.01,2013-07-07 23:30:00,
2013-07-07 19:31:00,76.9,71.3,29.93,SSW,208,4.0,6.0,83,0.00,,---,0.00,VWS V14.01,2013-07-07 23:31:00,
2013-07-07 19:32:00,76.9,71.3,29.93,SSW,208,5.0,6.0,83,0.00,,---,0.00,VWS V14.01,2013-07-07 23:32:00,
2013-07-07 19:33:00,76.8,71.2,29.93,SSW,208,5.0,6.0,83,0.00,,---,0.00,VWS V14.01,2013-07-07 23:33:00,
2013-07-07 19:34:00,76.8,71.2,29.93,SSW,208,5.0,6.0,83,0.00,,---,0.00,VWS V14.01,2013-07-07 23:34:00,
2013-07-07 19:35:00,76.7,71.2,29.93,SSW,208,5.0,6.0,83,0.00,,---,0.00,VWS V14.01,2013-07-07 23:35:00,
2013-07-07 19:36:00,76.7,71.2,29.93,SSW,208,5.0,6.0,83,0.00,,---,0.00,VWS V14.01,2013-07-07 23:36:00,
2013-07-07 19:37:00,76.7,71.5,29.93,SSW,208,5.0,6.0,84,0.00,,---,0.00,VWS V14.01,2013-07-07 23:37:00,
2013-07-07 19:38:00,76.7,71.5,29.93,SSW,208,5.0,6.0,84,0.00,,---,0.00,VWS V14.01,2013-07-07 23:38:00,
2013-07-07 19:39:00,76.7,71.5,29.93,SSW,208,5.0,6.0,84,0.00,,---,0.00,VWS V14.01,2013-07-07 23:39:00,
2013-07-07 19:40:00,76.7,71.5,29.93,SSW,208,7.0,7.0,84,0.00,,---,0.00,VWS V14.01,2013-07-07 23:40:00,
2013-07-07 19:41:00,76.7,71.5,29.93,SSW,207,7.0,7.0,84,0.00,,---,0.00,VWS V14.01,2013-07-07 23:41:00,
2013-07-07 19:42:00,76.7,71.5,29.93,SSW,207,6.0,7.0,84,0.00,,---,0.00,VWS V14.01,2013-07-07 23:42:00,
2013-07-07 19:43:00,76.7,71.5,29.93,SSW,207,4.0,7.0,84,0.00,,---,0.00,VWS V14.01,2013-07-07 23:43:00,
2013-07-07 19:44:00,76.7,71.5,29.93,SSW,207,5.0,7.0,84,0.00,,---,0.00,VWS V14.01,2013-07-07 23:44:00,
2013-07-07 19:45:00,76.7,71.5,29.93,SSW,207,5.0,7.0,84,0.00,,---,0.00,VWS V14.01,2013-07-07 23:45:00,
2013-07-07 19:46:00,76.7,71.5,29.93,SSW,207,4.0,7.0,84,0.00,,---,0.00,VWS V14.01,2013-07-07 23:46:00,
2013-07-07 19:47:00,76.7,71.5,29.93,SSW,207,5.0,7.0,84,0.00,,---,0.00,VWS V14.01,2013-07-07 23:47:00,
2013-07-07 19:48:00,76.7,71.5,29.93,SSW,207,5.0,7.0,84,0.00,,---,0.00,VWS V14.01,2013-07-07 23:48:00,
2013-07-07 19:49:00,76.8,71.6,29.93,SSW,207,4.0,7.0,84,0.00,,---,0.00,VWS V14.01,2013-07-07 23:49:00,
2013-07-07 19:50:00,76.8,71.6,29.93,SSW,207,3.0,7.0,84,0.00,,---,0.00,VWS V14.01,2013-07-07 23:50:00,
2013-07-07 19:51:00,76.7,71.5,29.93,SSW,207,3.0,7.0,84,0.00,,---,0.00,VWS V14.01,2013-07-07 23:51:00,
2013-07-07 19:52:00,76.8,71.6,29.93,SSW,207,0.0,7.0,84,0.00,,---,0.00,VWS V14.01,2013-07-07 23:52:00,
2013-07-07 19:53:00,76.7,71.5,29.93,SSW,207,0.0,7.0,84,0.00,,---,0.00,VWS V14.01,2013-07-07 23:53:00,
2013-07-07 19:54:00,76.7,71.5,29.93,SSW,207,0.0,7.0,84,0.00,,---,0.00,VWS V14.01,2013-07-07 23:54:00,
2013-07-07 19:55:00,76.7,71.5,29.93,SSW,207,0.0,7.0,84,0.00,,---,0.00,VWS V14.01,2013-07-07 23:55:00,
2013-07-07 19:56:00,76.7,71.5,29.93,SSW,207,0.0,7.0,84,0.00,,---,0.00,VWS V14.01,2013-07-07 23:56:00,
2013-07-07 19:57:00,76.7,71.5,29.93,SSW,207,0.0,7.0,84,0.00,,---,0.00,VWS V14.01,2013-07-07 23:57:00,
2013-07-07 19:58:00,76.7,71.5,29.93,SSW,207,0.0,7.0,84,0.00,,---,0.00,VWS V14.01,2013-07-07 23:58:00,
2013-07-07 19:59:00,76.7,71.5,29.93,SSW,207,0.0,7.0,84,0.00,,---,0.00,VWS V14.01,2013-07-07 23:59:00,
2013-07-07 20:00:00,76.6,71.4,29.93,SSW,207,0.0,7.0,84,0.00,,---,0.00,VWS V14.01,2013-07-08 00:00:00,
2013-07-07 20:01:00,76.6,71.4,29.93,SSW,207,0.0,0.0,84,0.00,,---,0.00,VWS V14.01,2013-07-08 00:01:00,
2013-07-07 20:02:00,76.5,71.0,29.93,SSW,207,0.0,0.0,83,0.00,,---,0.00,VWS V14.01,2013-07-08 00:02:00,
2013-07-07 20:03:00,76.4,70.9,29.93,SSW,207,0.0,0.0,83,0.00,,---,0.00,VWS V14.01,2013-07-08 00:03:00,
2013-07-07 20:04:00,76.3,70.8,29.93,SSW,207,0.0,0.0,83,0.00,,---,0.00,VWS V14.01,2013-07-08 00:04:00,
2013-07-07 20:05:00,76.3,70.8,29.93,SSW,207,0.0,0.0,83,0.00,,---,0.00,VWS V14.01,2013-07-08 00:05:00,
2013-07-07 20:06:00,76.2,70.7,29.93,SSW,207,0.0,0.0,83,0.00,,---,0.00,VWS V14.01,2013-07-08 00:06:00,
2013-07-07 20:07:00,76.2,70.7,29.93,SSW,207,0.0,0.0,83,0.00,,---,0.00,VWS V14.01,2013-07-08 00:07:00,
2013-07-07 20:08:00,76.2,70.7,29.93,SSW,207,0.0,0.0,83,0.00,,---,0.00,VWS V14.01,2013-07-08 00:08:00,
2013-07-07 20:09:00,76.2,70.7,29.93,SSW,207,0.0,0.0,83,0.00,,---,0.00,VWS V14.01,2013-07-08 00:09:00,
2013-07-07 20:10:00,76.1,70.6,29.93,SSW,207,0.0,0.0,83,0.00,,---,0.00,VWS V14.01,2013-07-08 00:10:00,
2013-07-07 20:11:00,76.1,70.6,29.93,SSW,207,0.0,0.0,83,0.00,,---,0.00,VWS V14.01,2013-07-08 00:11:00,
2013-07-07 20:12:00,76.0,70.5,29.93,SSW,207,0.0,0.0,83,0.00,,---,0.00,VWS V14.01,2013-07-08 00:12:00,
2013-07-07 20:13:00,76.0,70.5,29.93,SSW,207,0.0,0.0,83,0.00,,---,0.00,VWS V14.01,2013-07-08 00:13:00,
2013-07-07 20:14:00,76.0,70.5,29.93,SSW,207,0.0,0.0,83,0.00,,---,0.00,VWS V14.01,2013-07-08 00:14:00,
2013-07-07 20:15:00,75.9,70.4,29.92,SSW,207,0.0,0.0,83,0.00,,---,0.00,VWS V14.01,2013-07-08 00:15:00,
2013-07-07 20:16:00,75.8,70.6,29.93,SSW,207,0.0,0.0,84,0.00,,---,0.00,VWS V14.01,2013-07-08 00:16:00,
2013-07-07 20:17:00,75.8,70.6,29.93,SSW,207,0.0,0.0,84,0.00,,---,0.00,VWS V14.01,2013-07-08 00:17:00,
2013-07-07 20:18:00,75.7,70.5,29.92,SSW,207,0.0,0.0,84,0.00,,---,0.00,VWS V14.01,2013-07-08 00:18:00,
2013-07-07 20:19:00,75.7,70.5,29.92,SSW,206,0.0,0.0,84,0.00,,---,0.00,VWS V14.01,2013-07-08 00:19:00,
2013-07-07 20:20:00,75.6,70.4,29.92,SSW,206,0.0,0.0,84,0.00,,---,0.00,VWS V14.01,2013-07-08 00:20:00,
2013-07-07 20:21:00,75.6,70.4,29.92,SSW,206,0.0,0.0,84,0.00,,---,0.00,VWS V14.01,2013-07-08 00:21:00,
2013-07-07 20:22:00,75.6,70.4,29.92,SSW,206,0.0,0.0,84,0.00,,---,0.00,VWS V14.01,2013-07-08 00:22:00,
2013-07-07 20:23:00,75.5,70.3,29.92,SSW,206,0.0,0.0,84,0.00,,---,0.00,VWS V14.01,2013-07-08 00:23:00,
2013-07-07 20:24:00,75.5,70.3,29.92,SSW,206,0.0,0.0,84,0.00,,---,0.00,VWS V14.01,2013-07-08 00:24:00,
2013-07-07 20:25:00,75.5,70.3,29.92,SSW,206,0.0,0.0,84,0.00,,---,0.00,VWS V14.01,2013-07-08 00:25:00,
2013-07-07 20:26:00,75.4,70.2,29.92,SSW,206,0.0,0.0,84,0.00,,---,0.00,VWS V14.01,2013-07-08 00:26:00,
2013-07-07 20:27:00,75.4,70.2,29.92,SSW,206,0.0,0.0,84,0.00,,---,0.00,VWS V14.01,2013-07-08 00:27:00,
2013-07-07 20:28:00,75.4,70.2,29.92,SSW,206,0.0,0.0,84,0.00,,---,0.00,VWS V14.01,2013-07-08 00:28:00,
2013-07-07 20:29:00,75.4,70.2,29.92,SSW,205,0.0,0.0,84,0.00,,---,0.00,VWS V14.01,2013-07-08 00:29:00,
2013-07-07 20:30:00,75.4,70.2,29.92,SSW,205,0.0,0.0,84,0.00,,---,0.00,VWS V14.01,2013-07-08 00:30:00,
2013-07-07 20:31:00,75.3,70.1,29.92,SSW,200,0.0,0.0,84,0.00,,---,0.00,VWS V14.01,2013-07-08 00:31:00,
2013-07-07 20:32:00,75.3,70.1,29.92,SSW,198,0.0,0.0,84,0.00,,---,0.00,VWS V14.01,2013-07-08 00:32:00,
2013-07-07 20:33:00,75.3,70.1,29.92,SSW,197,0.0,0.0,84,0.00,,---,0.00,VWS V14.01,2013-07-08 00:33:00,
2013-07-07 20:34:00,75.3,70.5,29.92,SSW,196,0.0,0.0,85,0.00,,---,0.00,VWS V14.01,2013-07-08 00:34:00,
2013-07-07 20:35:00,75.3,70.5,29.92,SSW,196,2.0,3.0,85,0.00,,---,0.00,VWS V14.01,2013-07-08 00:35:00,
2013-07-07 20:36:00,75.3,70.5,29.92,SSW,192,3.0,5.0,85,0.00,,---,0.00,VWS V14.01,2013-07-08 00:36:00,
2013-07-07 20:37:00,75.3,70.5,29.92,South,189,4.0,6.0,85,0.00,,---,0.00,VWS V14.01,2013-07-08 00:37:00,
2013-07-07 20:38:00,75.3,70.5,29.92,South,189,4.0,6.0,85,0.00,,---,0.00,VWS V14.01,2013-07-08 00:38:00,
2013-07-07 20:39:00,75.3,70.5,29.92,South,188,0.0,6.0,85,0.00,,---,0.00,VWS V14.01,2013-07-08 00:39:00,
2013-07-07 20:40:00,75.3,70.5,29.92,South,188,4.0,6.0,85,0.00,,---,0.00,VWS V14.01,2013-07-08 00:40:00,
2013-07-07 20:41:00,75.3,70.5,29.92,South,188,2.0,6.0,85,0.00,,---,0.00,VWS V14.01,2013-07-08 00:41:00,
2013-07-07 20:42:00,75.3,70.5,29.92,South,188,1.0,6.0,85,0.00,,---,0.00,VWS V14.01,2013-07-08 00:42:00,
2013-07-07 20:43:00,75.3,70.5,29.92,South,188,0.0,6.0,85,0.00,,---,0.00,VWS V14.01,2013-07-08 00:43:00,
2013-07-07 20:44:00,75.3,70.5,29.92,South,188,4.0,6.0,85,0.00,,---,0.00,VWS V14.01,2013-07-08 00:44:00,
2013-07-07 20:45:00,75.3,70.5,29.92,South,188,0.0,6.0,85,0.00,,---,0.00,VWS V14.01,2013-07-08 00:45:00,
2013-07-07 20:46:00,75.3,70.5,29.92,South,187,5.0,7.0,85,0.00,,---,0.00,VWS V14.01,2013-07-08 00:46:00,
2013-07-07 20:47:00,75.4,70.6,29.92,South,187,4.0,7.0,85,0.00,,---,0.00,VWS V14.01,2013-07-08 00:47:00,
2013-07-07 20:48:00,75.4,70.6,29.92,South,186,2.0,8.0,85,0.00,,---,0.00,VWS V14.01,2013-07-08 00:48:00,
2013-07-07 20:49:00,75.5,70.7,29.92,South,186,6.0,8.0,85,0.00,,---,0.00,VWS V14.01,2013-07-08 00:49:00,
2013-07-07 20:50:00,75.5,70.7,29.92,South,184,7.0,8.0,85,0.00,,---,0.00,VWS V14.01,2013-07-08 00:50:00,
2013-07-07 20:51:00,75.5,70.7,29.91,South,182,6.0,8.0,85,0.00,,---,0.00,VWS V14.01,2013-07-08 00:51:00,
2013-07-07 20:52:00,75.5,70.7,29.91,South,182,4.0,8.0,85,0.00,,---,0.00,VWS V14.01,2013-07-08 00:52:00,
2013-07-07 20:53:00,75.4,70.6,29.91,South,181,6.0,8.0,85,0.00,,---,0.00,VWS V14.01,2013-07-08 00:53:00,
2013-07-07 20:54:00,75.3,70.5,29.91,South,180,4.0,8.0,85,0.00,,---,0.00,VWS V14.01,2013-07-08 00:54:00,
2013-07-07 20:55:00,75.3,70.5,29.91,South,180,3.0,8.0,85,0.00,,---,0.00,VWS V14.01,2013-07-08 00:55:00,
2013-07-07 20:56:00,75.2,70.4,29.92,South,178,5.0,8.0,85,0.00,,---,0.00,VWS V14.01,2013-07-08 00:56:00,
2013-07-07 20:57:00,75.2,70.4,29.91,South,181,6.0,8.0,85,0.00,,---,0.00,VWS V14.01,2013-07-08 00:57:00,
2013-07-07 20:58:00,75.2,70.4,29.91,South,180,5.0,8.0,85,0.00,,---,0.00,VWS V14.01,2013-07-08 00:58:00,
2013-07-07 20:59:00,75.2,70.4,29.91,South,175,5.0,8.0,85,0.00,,---,0.00,VWS V14.01,2013-07-08 00:59:00,
2013-07-07 21:00:00,75.2,70.4,29.91,South,174,5.0,8.0,85,0.00,,---,0.00,VWS V14.01,2013-07-08 01:00:00,
2013-07-07 21:01:00,75.2,70.4,29.91,South,174,4.0,5.0,85,0.00,,---,0.00,VWS V14.01,2013-07-08 01:01:00,
2013-07-07 21:02:00,75.2,70.4,29.91,South,174,4.0,5.0,85,0.00,,---,0.00,VWS V14.01,2013-07-08 01:02:00,
2013-07-07 21:03:00,75.2,70.4,29.91,South,174,4.0,5.0,85,0.00,,---,0.00,VWS V14.01,2013-07-08 01:03:00,
2013-07-07 21:04:00,75.3,70.5,29.91,South,174,3.0,5.0,85,0.00,,---,0.00,VWS V14.01,2013-07-08 01:04:00,
2013-07-07 21:05:00,75.3,70.5,29.91,South,174,4.0,5.0,85,0.00,,---,0.00,VWS V14.01,2013-07-08 01:05:00,
2013-07-07 21:06:00,75.3,70.5,29.91,South,174,3.0,5.0,85,0.00,,---,0.00,VWS V14.01,2013-07-08 01:06:00,
2013-07-07 21:07:00,75.3,70.5,29.91,South,174,4.0,5.0,85,0.00,,---,0.00,VWS V14.01,2013-07-08 01:07:00,
2013-07-07 21:08:00,75.3,70.5,29.91,South,174,4.0,5.0,85,0.00,,---,0.00,VWS V14.01,2013-07-08 01:08:00,
2013-07-07 21:09:00,75.2,70.4,29.91,South,174,4.0,5.0,85,0.00,,---,0.00,VWS V14.01,2013-07-08 01:09:00,
2013-07-07 21:10:00,75.2,70.4,29.91,South,174,5.0,5.0,85,0.00,,---,0.00,VWS V14.01,2013-07-08 01:10:00,
2013-07-07 21:11:00,75.2,70.4,29.91,South,174,6.0,6.0,85,0.00,,---,0.00,VWS V14.01,2013-07-08 01:11:00,
2013-07-07 21:12:00,75.2,70.4,29.91,South,174,5.0,6.0,85,0.00,,---,0.00,VWS V14.01,2013-07-08 01:12:00,
2013-07-07 21:13:00,75.3,70.8,29.91,South,174,7.0,7.0,86,0.00,,---,0.00,VWS V14.01,2013-07-08 01:13:00,
2013-07-07 21:14:00,75.3,70.8,29.91,South,175,4.0,7.0,86,0.00,,---,0.00,VWS V14.01,2013-07-08 01:14:00,
2013-07-07 21:15:00,75.3,70.8,29.91,South,178,4.0,7.0,86,0.00,,---,0.00,VWS V14.01,2013-07-08 01:15:00,
2013-07-07 21:16:00,75.3,70.8,29.91,South,179,5.0,7.0,86,0.00,,---,0.00,VWS V14.01,2013-07-08 01:16:00,
2013-07-07 21:17:00,75.3,70.8,29.91,South,178,4.0,7.0,86,0.00,,---,0.00,VWS V14.01,2013-07-08 01:17:00,
2013-07-07 21:18:00,75.3,70.8,29.91,South,178,4.0,7.0,86,0.00,,---,0.00,VWS V14.01,2013-07-08 01:18:00,
2013-07-07 21:19:00,75.3,70.8,29.91,South,179,5.0,7.0,86,0.00,,---,0.00,VWS V14.01,2013-07-08 01:19:00,
2013-07-07 21:20:00,75.3,70.8,29.90,South,179,6.0,7.0,86,0.00,,---,0.00,VWS V14.01,2013-07-08 01:20:00,
2013-07-07 21:21:00,75.3,70.8,29.91,South,179,3.0,7.0,86,0.00,,---,0.00,VWS V14.01,2013-07-08 01:21:00,
2013-07-07 21:22:00,75.3,70.8,29.90,South,179,5.0,7.0,86,0.00,,---,0.00,VWS V14.01,2013-07-08 01:22:00,
2013-07-07 21:23:00,75.3,70.8,29.90,South,179,4.0,7.0,86,0.00,,---,0.00,VWS V14.01,2013-07-08 01:23:00,
2013-07-07 21:24:00,75.3,70.8,29.90,South,179,0.0,7.0,86,0.00,,---,0.00,VWS V14.01,2013-07-08 01:24:00,
2013-07-07 21:25:00,75.3,70.8,29.90,South,179,0.0,7.0,86,0.00,,---,0.00,VWS V14.01,2013-07-08 01:25:00,
2013-07-07 21:26:00,75.3,70.8,29.90,South,179,0.0,7.0,86,0.00,,---,0.00,VWS V14.01,2013-07-08 01:26:00,
2013-07-07 21:27:00,75.3,70.8,29.90,South,179,0.0,7.0,86,0.00,,---,0.00,VWS V14.01,2013-07-08 01:27:00,
2013-07-07 21:28:00,75.3,70.8,29.90,South,179,0.0,7.0,86,0.00,,---,0.00,VWS V14.01,2013-07-08 01:28:00,
2013-07-07 21:29:00,75.3,70.8,29.90,South,179,0.0,7.0,86,0.00,,---,0.00,VWS V14.01,2013-07-08 01:29:00,
2013-07-07 21:30:00,75.2,70.7,29.90,South,179,0.0,7.0,86,0.00,,---,0.00,VWS V14.01,2013-07-08 01:30:00,
2013-07-07 21:31:00,75.2,70.7,29.90,South,179,0.0,0.0,86,0.00,,---,0.00,VWS V14.01,2013-07-08 01:31:00,
2013-07-07 21:32:00,75.1,70.6,29.91,South,179,0.0,0.0,86,0.00,,---,0.00,VWS V14.01,2013-07-08 01:32:00,
2013-07-07 21:33:00,75.1,70.6,29.91,South,179,0.0,0.0,86,0.00,,---,0.00,VWS V14.01,2013-07-08 01:33:00,
2013-07-07 21:34:00,75.0,70.5,29.91,South,179,0.0,0.0,86,0.00,,---,0.00,VWS V14.01,2013-07-08 01:34:00,
2013-07-07 21:35:00,74.9,70.4,29.91,South,179,0.0,0.0,86,0.00,,---,0.00,VWS V14.01,2013-07-08 01:35:00,
2013-07-07 21:36:00,74.8,70.3,29.91,South,179,5.0,6.0,86,0.00,,---,0.00,VWS V14.01,2013-07-08 01:36:00,
2013-07-07 21:37:00,74.7,70.2,29.91,South,179,5.0,6.0,86,0.00,,---,0.00,VWS V14.01,2013-07-08 01:37:00,
2013-07-07 21:38:00,74.7,70.2,29.91,South,179,3.0,6.0,86,0.00,,---,0.00,VWS V14.01,2013-07-08 01:38:00,
2013-07-07 21:39:00,74.6,70.1,29.91,South,179,4.0,6.0,86,0.00,,---,0.00,VWS V14.01,2013-07-08 01:39:00,
2013-07-07 21:40:00,74.6,70.1,29.91,South,179,4.0,6.0,86,0.00,,---,0.00,VWS V14.01,2013-07-08 01:40:00,
2013-07-07 21:41:00,74.6,70.1,29.91,South,179,6.0,6.0,86,0.00,,---,0.00,VWS V14.01,2013-07-08 01:41:00,
2013-07-07 21:42:00,74.6,70.1,29.91,South,179,5.0,7.0,86,0.00,,---,0.00,VWS V14.01,2013-07-08 01:42:00,
2013-07-07 21:43:00,74.6,70.1,29.91,South,179,0.0,7.0,86,0.00,,---,0.00,VWS V14.01,2013-07-08 01:43:00,
2013-07-07 21:44:00,74.6,70.1,29.91,South,179,3.0,7.0,86,0.00,,---,0.00,VWS V14.01,2013-07-08 01:44:00,
2013-07-07 21:45:00,74.6,70.1,29.91,South,179,4.0,7.0,86,0.00,,---,0.00,VWS V14.01,2013-07-08 01:45:00,
2013-07-07 21:46:00,74.5,70.0,29.91,South,179,4.0,7.0,86,0.00,,---,0.00,VWS V14.01,2013-07-08 01:46:00,
2013-07-07 21:47:00,74.5,70.0,29.91,South,178,4.0,7.0,86,0.00,,---,0.00,VWS V14.01,2013-07-08 01:47:00,
2013-07-07 21:48:00,74.5,70.0,29.91,South,178,5.0,7.0,86,0.00,,---,0.00,VWS V14.01,2013-07-08 01:48:00,
2013-07-07 21:49:00,74.4,69.9,29.90,South,176,5.0,7.0,86,0.00,,---,0.00,VWS V14.01,2013-07-08 01:49:00,
2013-07-07 21:50:00,74.4,69.9,29.90,South,174,4.0,7.0,86,0.00,,---,0.00,VWS V14.01,2013-07-08 01:50:00,
2013-07-07 21:51:00,74.3,69.8,29.90,South,173,5.0,7.0,86,0.00,,---,0.00,VWS V14.01,2013-07-08 01:51:00,
2013-07-07 21:52:00,74.3,69.8,29.90,South,169,5.0,7.0,86,0.00,,---,0.00,VWS V14.01,2013-07-08 01:52:00,
2013-07-07 21:53:00,74.2,69.8,29.90,SSE,167,5.0,7.0,86,0.00,,---,0.00,VWS V14.01,2013-07-08 01:53:00,
2013-07-07 21:54:00,74.1,69.7,29.90,SSE,163,3.0,7.0,86,0.00,,---,0.00,VWS V14.01,2013-07-08 01:54:00,
2013-07-07 21:55:00,74.1,69.7,29.90,SSE,161,6.0,7.0,86,0.00,,---,0.00,VWS V14.01,2013-07-08 01:55:00,
2013-07-07 21:56:00,74.0,69.6,29.90,SSE,159,0.0,7.0,86,0.00,,---,0.00,VWS V14.01,2013-07-08 01:56:00,
2013-07-07 21:57:00,74.0,69.6,29.90,SSE,160,5.0,7.0,86,0.00,,---,0.00,VWS V14.01,2013-07-08 01:57:00,
2013-07-07 21:58:00,73.9,69.4,29.90,SSE,161,4.0,7.0,86,0.00,,---,0.00,VWS V14.01,2013-07-08 01:58:00,
2013-07-07 21:59:00,73.9,69.4,29.90,SSE,165,7.0,7.0,86,0.00,,---,0.00,VWS V14.01,2013-07-08 01:59:00,
2013-07-07 22:00:00,73.9,69.4,29.90,SSE,168,5.0,7.0,86,0.00,,---,0.00,VWS V14.01,2013-07-08 02:00:00,
2013-07-07 22:01:00,73.9,69.4,29.91,SSE,168,5.0,5.0,86,0.00,,---,0.00,VWS V14.01,2013-07-08 02:01:00,
2013-07-07 22:02:00,74.0,69.6,29.91,South,170,6.0,7.0,86,0.00,,---,0.00,VWS V14.01,2013-07-08 02:02:00,
2013-07-07 22:03:00,74.0,69.6,29.91,South,170,5.0,7.0,86,0.00,,---,0.00,VWS V14.01,2013-07-08 02:03:00,
2013-07-07 22:04:00,74.0,69.6,29.91,South,170,6.0,7.0,86,0.00,,---,0.00,VWS V14.01,2013-07-08 02:04:00,
2013-07-07 22:05:00,74.1,69.7,29.91,South,171,3.0,7.0,86,0.00,,---,0.00,VWS V14.01,2013-07-08 02:05:00,
2013-07-07 22:06:00,74.1,69.7,29.91,South,171,5.0,8.0,86,0.00,,---,0.00,VWS V14.01,2013-07-08 02:06:00,
2013-07-07 22:07:00,74.1,69.7,29.91,South,172,5.0,8.0,86,0.00,,---,0.00,VWS V14.01,2013-07-08 02:07:00,
2013-07-07 22:08:00,74.1,69.7,29.91,South,172,5.0,8.0,86,0.00,,---,0.00,VWS V14.01,2013-07-08 02:08:00,
2013-07-07 22:09:00,74.0,69.6,29.91,South,172,6.0,8.0,86,0.00,,---,0.00,VWS V14.01,2013-07-08 02:09:00,
2013-07-07 22:10:00,74.0,69.6,29.91,South,172,6.0,8.0,86,0.00,,---,0.00,VWS V14.01,2013-07-08 02:10:00,
2013-07-07 22:11:00,73.9,69.4,29.91,South,173,6.0,8.0,86,0.00,,---,0.00,VWS V14.01,2013-07-08 02:11:00,
2013-07-07 22:12:00,73.9,69.4,29.91,South,173,6.0,8.0,86,0.00,,---,0.00,VWS V14.01,2013-07-08 02:12:00,
2013-07-07 22:13:00,73.8,69.3,29.91,South,173,6.0,8.0,86,0.00,,---,0.00,VWS V14.01,2013-07-08 02:13:00,
2013-07-07 22:14:00,73.7,69.3,29.91,South,174,8.0,8.0,86,0.00,,---,0.00,VWS V14.01,2013-07-08 02:14:00,
2013-07-07 22:15:00,73.7,69.3,29.91,South,175,7.0,8.0,86,0.00,,---,0.00,VWS V14.01,2013-07-08 02:15:00,
2013-07-07 22:16:00,73.6,69.2,29.91,South,176,6.0,8.0,86,0.00,,---,0.00,VWS V14.01,2013-07-08 02:16:00,
2013-07-07 22:17:00,73.5,69.1,29.91,South,177,6.0,8.0,86,0.00,,---,0.00,VWS V14.01,2013-07-08 02:17:00,
2013-07-07 22:18:00,73.5,69.1,29.91,South,177,6.0,8.0,86,0.00,,---,0.00,VWS V14.01,2013-07-08 02:18:00,
2013-07-07 22:19:00,73.4,69.0,29.91,South,177,5.0,8.0,86,0.00,,---,0.00,VWS V14.01,2013-07-08 02:19:00,
2013-07-07 22:20:00,73.4,69.0,29.91,South,178,6.0,8.0,86,0.00,,---,0.00,VWS V14.01,2013-07-08 02:20:00,
2013-07-07 22:21:00,73.4,69.0,29.91,South,178,7.0,8.0,86,0.00,,---,0.00,VWS V14.01,2013-07-08 02:21:00,
2013-07-07 22:22:00,73.3,68.9,29.91,South,178,6.0,8.0,86,0.00,,---,0.00,VWS V14.01,2013-07-08 02:22:00,
2013-07-07 22:23:00,73.1,68.7,29.91,South,178,5.0,8.0,86,0.00,,---,0.00,VWS V14.01,2013-07-08 02:23:00,
2013-07-07 22:24:00,73.0,68.6,29.91,South,178,6.0,8.0,86,0.00,,---,0.00,VWS V14.01,2013-07-08 02:24:00,
2013-07-07 22:25:00,72.9,68.5,29.91,South,178,6.0,8.0,86,0.00,,---,0.00,VWS V14.01,2013-07-08 02:25:00,
2013-07-07 22:26:00,72.8,68.4,29.91,South,178,6.0,8.0,86,0.00,,---,0.00,VWS V14.01,2013-07-08 02:26:00,
2013-07-07 22:27:00,72.7,68.3,29.92,South,178,6.0,8.0,86,0.00,,---,0.00,VWS V14.01,2013-07-08 02:27:00,
2013-07-07 22:28:00,72.6,68.2,29.92,South,178,5.0,8.0,86,0.00,,---,0.00,VWS V14.01,2013-07-08 02:28:00,
2013-07-07 22:29:00,72.5,68.1,29.92,South,181,7.0,8.0,86,0.00,,---,0.00,VWS V14.01,2013-07-08 02:29:00,
2013-07-07 22:30:00,72.4,68.0,29.92,South,182,7.0,8.0,86,0.00,,---,0.00,VWS V14.01,2013-07-08 02:30:00,
2013-07-07 22:31:00,72.3,67.9,29.92,South,183,7.0,8.0,86,0.00,,---,0.00,VWS V14.01,2013-07-08 02:31:00,
2013-07-07 22:32:00,72.1,67.7,29.92,South,184,8.0,8.0,86,0.00,,---,0.00,VWS V14.01,2013-07-08 02:32:00,
2013-07-07 22:33:00,72.0,67.6,29.92,South,188,8.0,8.0,86,0.00,,---,0.00,VWS V14.01,2013-07-08 02:33:00,
2013-07-07 22:34:00,71.8,67.4,29.92,South,191,7.0,8.0,86,0.00,,---,0.00,VWS V14.01,2013-07-08 02:34:00,
2013-07-07 22:35:00,71.7,67.3,29.92,SSW,193,7.0,8.0,86,0.00,,---,0.00,VWS V14.01,2013-07-08 02:35:00,
2013-07-07 22:36:00,71.7,67.3,29.92,SSW,194,7.0,8.0,86,0.00,,---,0.00,VWS V14.01,2013-07-08 02:36:00,
2013-07-07 22:37:00,71.7,67.3,29.92,SSW,194,7.0,8.0,86,0.00,,---,0.00,VWS V14.01,2013-07-08 02:37:00,
2013-07-07 22:38:00,71.7,67.3,29.92,SSW,196,7.0,8.0,86,0.00,,---,0.00,VWS V14.01,2013-07-08 02:38:00,
2013-07-07 22:39:00,71.7,67.3,29.92,SSW,198,7.0,8.0,86,0.00,,---,0.00,VWS V14.01,2013-07-08 02:39:00,
2013-07-07 22:40:00,71.7,67.3,29.92,SSW,198,7.0,8.0,86,0.00,,---,0.00,VWS V14.01,2013-07-08 02:40:00,
2013-07-07 22:41:00,71.8,67.4,29.92,SSW,198,7.0,8.0,86,0.00,,---,0.00,VWS V14.01,2013-07-08 02:41:00,
2013-07-07 22:42:00,71.9,67.5,29.92,SSW,198,6.0,8.0,86,0.00,,---,0.00,VWS V14.01,2013-07-08 02:42:00,
2013-07-07 22:43:00,72.1,67.7,29.92,SSW,198,6.0,8.0,86,0.00,,---,0.00,VWS V14.01,2013-07-08 02:43:00,
2013-07-07 22:44:00,72.2,67.8,29.92,SSW,198,5.0,8.0,86,0.00,,---,0.00,VWS V14.01,2013-07-08 02:44:00,
2013-07-07 22:45:00,72.4,68.0,29.92,SSW,198,5.0,8.0,86,0.00,,---,0.00,VWS V14.01,2013-07-08 02:45:00,
2013-07-07 22:46:00,72.7,68.3,29.92,SSW,198,5.0,8.0,86,0.00,,---,0.00,VWS V14.01,2013-07-08 02:46:00,
2013-07-07 22:47:00,72.9,68.5,29.92,SSW,198,5.0,8.0,86,0.00,,---,0.00,VWS V14.01,2013-07-08 02:47:00,
2013-07-07 22:48:00,73.0,68.6,29.92,SSW,198,5.0,8.0,86,0.00,,---,0.00,VWS V14.01,2013-07-08 02:48:00,
2013-07-07 22:49:00,73.1,68.7,29.92,SSW,198,5.0,8.0,86,0.00,,---,0.00,VWS V14.01,2013-07-08 02:49:00,
2013-07-07 22:50:00,73.3,68.9,29.92,SSW,198,5.0,8.0,86,0.00,,---,0.00,VWS V14.01,2013-07-08 02:50:00,
2013-07-07 22:51:00,73.4,69.0,29.92,SSW,198,5.0,8.0,86,0.00,,---,0.00,VWS V14.01,2013-07-08 02:51:00,
2013-07-07 22:52:00,73.5,69.1,29.92,SSW,198,5.0,8.0,86,0.00,,---,0.00,VWS V14.01,2013-07-08 02:52:00,
2013-07-07 22:53:00,73.5,69.1,29.92,SSW,198,5.0,8.0,86,0.00,,---,0.00,VWS V14.01,2013-07-08 02:53:00,
2013-07-07 22:54:00,73.6,69.2,29.92,SSW,198,4.0,8.0,86,0.00,,---,0.00,VWS V14.01,2013-07-08 02:54:00,
2013-07-07 22:55:00,73.6,69.2,29.92,SSW,198,3.0,8.0,86,0.00,,---,0.00,VWS V14.01,2013-07-08 02:55:00,
2013-07-07 22:56:00,73.6,69.2,29.92,SSW,198,4.0,8.0,86,0.00,,---,0.00,VWS V14.01,2013-07-08 02:56:00,
2013-07-07 22:57:00,73.7,69.3,29.92,SSW,198,5.0,8.0,86,0.00,,---,0.00,VWS V14.01,2013-07-08 02:57:00,
2013-07-07 22:58:00,73.7,69.3,29.92,SSW,198,6.0,8.0,86,0.00,,---,0.00,VWS V14.01,2013-07-08 02:58:00,
2013-07-07 22:59:00,73.7,69.3,29.92,SSW,198,5.0,8.0,86,0.00,,---,0.00,VWS V14.01,2013-07-08 02:59:00,
2013-07-07 23:00:00,73.7,69.3,29.92,SSW,198,6.0,8.0,86,0.00,,---,0.00,VWS V14.01,2013-07-08 03:00:00,
2013-07-07 23:01:00,73.7,69.3,29.92,SSW,198,5.0,6.0,86,0.00,,---,0.00,VWS V14.01,2013-07-08 03:01:00,
2013-07-07 23:02:00,73.7,69.3,29.92,SSW,198,6.0,7.0,86,0.00,,---,0.00,VWS V14.01,2013-07-08 03:02:00,
2013-07-07 23:03:00,73.7,69.3,29.92,SSW,198,5.0,7.0,86,0.00,,---,0.00,VWS V14.01,2013-07-08 03:03:00,
2013-07-07 23:04:00,73.7,69.3,29.92,SSW,198,6.0,7.0,86,0.00,,---,0.00,VWS V14.01,2013-07-08 03:04:00,
2013-07-07 23:05:00,73.8,69.3,29.92,SSW,198,6.0,7.0,86,0.00,,---,0.00,VWS V14.01,2013-07-08 03:05:00,
2013-07-07 23:06:00,73.8,69.3,29.91,SSW,198,7.0,7.0,86,0.00,,---,0.00,VWS V14.01,2013-07-08 03:06:00,
2013-07-07 23:07:00,73.8,69.3,29.91,SSW,198,6.0,7.0,86,0.00,,---,0.00,VWS V14.01,2013-07-08 03:07:00,
2013-07-07 23:08:00,73.8,69.3,29.91,SSW,198,6.0,7.0,86,0.00,,---,0.00,VWS V14.01,2013-07-08 03:08:00,
2013-07-07 23:09:00,73.9,69.4,29.91,SSW,198,6.0,7.0,86,0.00,,---,0.00,VWS V14.01,2013-07-08 03:09:00,
2013-07-07 23:10:00,73.9,69.4,29.91,SSW,198,6.0,7.0,86,0.00,,---,0.00,VWS V14.01,2013-07-08 03:10:00,
2013-07-07 23:11:00,74.0,69.6,29.91,SSW,198,6.0,7.0,86,0.00,,---,0.00,VWS V14.01,2013-07-08 03:11:00,
2013-07-07 23:12:00,74.0,69.6,29.91,SSW,198,6.0,7.0,86,0.00,,---,0.00,VWS V14.01,2013-07-08 03:12:00,
2013-07-07 23:13:00,74.1,69.7,29.91,SSW,198,4.0,7.0,86,0.00,,---,0.00,VWS V14.01,2013-07-08 03:13:00,
2013-07-07 23:14:00,74.2,69.8,29.91,SSW,198,6.0,7.0,86,0.00,,---,0.00,VWS V14.01,2013-07-08 03:14:00,
2013-07-07 23:15:00,74.2,69.8,29.91,SSW,198,6.0,7.0,86,0.00,,---,0.00,VWS V14.01,2013-07-08 03:15:00,
2013-07-07 23:16:00,74.3,69.8,29.91,SSW,198,6.0,7.0,86,0.00,,---,0.00,VWS V14.01,2013-07-08 03:16:00,
2013-07-07 23:17:00,74.3,69.8,29.91,SSW,198,7.0,7.0,86,0.00,,---,0.00,VWS V14.01,2013-07-08 03:17:00,
2013-07-07 23:18:00,74.4,69.9,29.91,SSW,198,7.0,7.0,86,0.00,,---,0.00,VWS V14.01,2013-07-08 03:18:00,
2013-07-07 23:19:00,74.5,70.0,29.91,SSW,198,7.0,7.0,86,0.00,,---,0.00,VWS V14.01,2013-07-08 03:19:00,
2013-07-07 23:20:00,74.5,70.0,29.91,SSW,198,7.0,7.0,86,0.00,,---,0.00,VWS V14.01,2013-07-08 03:20:00,
2013-07-07 23:21:00,74.6,70.1,29.91,SSW,198,8.0,8.0,86,0.00,,---,0.00,VWS V14.01,2013-07-08 03:21:00,
2013-07-07 23:22:00,74.6,70.1,29.91,SSW,198,7.0,8.0,86,0.00,,---,0.00,VWS V14.01,2013-07-08 03:22:00,
2013-07-07 23:23:00,74.6,70.1,29.91,SSW,198,7.0,8.0,86,0.00,,---,0.00,VWS V14.01,2013-07-08 03:23:00,
2013-07-07 23:24:00,74.6,70.1,29.91,SSW,198,7.0,8.0,86,0.00,,---,0.00,VWS V14.01,2013-07-08 03:24:00,
2013-07-07 23:25:00,74.6,70.1,29.91,SSW,198,8.0,9.0,86,0.00,,---,0.00,VWS V14.01,2013-07-08 03:25:00,
2013-07-07 23:26:00,74.6,70.1,29.91,SSW,198,7.0,9.0,86,0.00,,---,0.00,VWS V14.01,2013-07-08 03:26:00,
2013-07-07 23:27:00,74.6,70.1,29.91,SSW,198,7.0,9.0,86,0.00,,---,0.00,VWS V14.01,2013-07-08 03:27:00,
2013-07-07 23:28:00,74.6,70.1,29.91,SSW,198,9.0,9.0,86,0.00,,---,0.00,VWS V14.01,2013-07-08 03:28:00,
2013-07-07 23:29:00,74.5,70.0,29.91,SSW,198,7.0,9.0,86,0.00,,---,0.00,VWS V14.01,2013-07-08 03:29:00,
2013-07-07 23:30:00,74.4,69.9,29.91,SSW,198,7.0,9.0,86,0.00,,---,0.00,VWS V14.01,2013-07-08 03:30:00,
2013-07-07 23:31:00,74.4,69.9,29.91,SSW,198,8.0,8.0,86,0.00,,---,0.00,VWS V14.01,2013-07-08 03:31:00,
2013-07-07 23:32:00,74.2,69.8,29.91,SSW,198,7.0,8.0,86,0.00,,---,0.00,VWS V14.01,2013-07-08 03:32:00,
2013-07-07 23:33:00,74.1,69.7,29.91,SSW,198,8.0,8.0,86,0.00,,---,0.00,VWS V14.01,2013-07-08 03:33:00,
2013-07-07 23:34:00,74.1,69.7,29.91,SSW,198,8.0,9.0,86,0.00,,---,0.00,VWS V14.01,2013-07-08 03:34:00,
2013-07-07 23:35:00,74.1,69.7,29.91,SSW,198,7.0,9.0,86,0.00,,---,0.00,VWS V14.01,2013-07-08 03:35:00,
2013-07-07 23:36:00,74.2,69.8,29.91,SSW,198,7.0,9.0,86,0.00,,---,0.00,VWS V14.01,2013-07-08 03:36:00,
2013-07-07 23:37:00,74.2,69.8,29.91,SSW,198,7.0,9.0,86,0.00,,---,0.00,VWS V14.01,2013-07-08 03:37:00,
2013-07-07 23:38:00,74.3,69.8,29.91,SSW,198,7.0,9.0,86,0.00,,---,0.00,VWS V14.01,2013-07-08 03:38:00,
2013-07-07 23:39:00,74.4,69.9,29.91,SSW,198,7.0,9.0,86,0.00,,---,0.00,VWS V14.01,2013-07-08 03:39:00,
2013-07-07 23:40:00,74.4,69.9,29.91,SSW,198,7.0,9.0,86,0.00,,---,0.00,VWS V14.01,2013-07-08 03:40:00,
2013-07-07 23:41:00,74.5,70.0,29.91,SSW,198,6.0,9.0,86,0.00,,---,0.00,VWS V14.01,2013-07-08 03:41:00,
2013-07-07 23:42:00,74.5,70.0,29.91,SSW,198,6.0,9.0,86,0.00,,---,0.00,VWS V14.01,2013-07-08 03:42:00,
2013-07-07 23:43:00,74.5,70.0,29.91,SSW,198,7.0,9.0,86,0.00,,---,0.00,VWS V14.01,2013-07-08 03:43:00,
2013-07-07 23:44:00,74.6,70.1,29.91,SSW,198,7.0,9.0,86,0.00,,---,0.00,VWS V14.01,2013-07-08 03:44:00,
2013-07-07 23:45:00,74.6,70.1,29.91,SSW,198,7.0,9.0,86,0.00,,---,0.00,VWS V14.01,2013-07-08 03:45:00,
2013-07-07 23:46:00,74.6,70.1,29.90,SSW,198,7.0,9.0,86,0.00,,---,0.00,VWS V14.01,2013-07-08 03:46:00,
2013-07-07 23:47:00,74.6,70.1,29.90,SSW,198,5.0,9.0,86,0.00,,---,0.00,VWS V14.01,2013-07-08 03:47:00,
2013-07-07 23:48:00,74.6,70.1,29.90,SSW,198,6.0,9.0,86,0.00,,---,0.00,VWS V14.01,2013-07-08 03:48:00,
2013-07-07 23:49:00,74.6,70.1,29.90,SSW,198,5.0,9.0,86,0.00,,---,0.00,VWS V14.01,2013-07-08 03:49:00,
2013-07-07 23:50:00,74.6,70.1,29.90,SSW,198,6.0,9.0,86,0.00,,---,0.00,VWS V14.01,2013-07-08 03:50:00,
2013-07-07 23:51:00,74.5,70.0,29.90,SSW,198,6.0,9.0,86,0.00,,---,0.00,VWS V14.01,2013-07-08 03:51:00,
2013-07-07 23:52:00,74.5,70.0,29.90,SSW,198,7.0,9.0,86,0.00,,---,0.00,VWS V14.01,2013-07-08 03:52:00,
2013-07-07 23:53:00,74.4,69.9,29.90,SSW,198,7.0,9.0,86,0.00,,---,0.00,VWS V14.01,2013-07-08 03:53:00,
2013-07-07 23:54:00,74.5,70.0,29.90,SSW,198,7.0,9.0,86,0.00,,---,0.00,VWS V14.01,2013-07-08 03:54:00,
2013-07-07 23:55:00,74.5,70.0,29.90,SSW,198,8.0,9.0,86,0.00,,---,0.00,VWS V14.01,2013-07-08 03:55:00,
2013-07-07 23:56:00,74.5,70.0,29.90,SSW,198,8.0,9.0,86,0.00,,---,0.00,VWS V14.01,2013-07-08 03:56:00,
2013-07-07 23:57:00,74.5,70.0,29.90,SSW,198,7.0,9.0,86,0.00,,---,0.00,VWS V14.01,2013-07-08 03:57:00,
2013-07-07 23:58:00,74.6,70.1,29.90,SSW,198,9.0,9.0,86,0.00,,---,0.00,VWS V14.01,2013-07-08 03:58:00,
2013-07-07 23:59:00,74.6,70.1,29.90,SSW,198,9.0,9.0,86,0.00,,---,0.00,VWS V14.01,2013-07-08 03:59:00,